<?xml version="1.0" encoding="UTF-8" standalone="no" ?>
<gpx xmlns="http://www.topografix.com/GPX/1/1" xmlns:xsi="http://www.w3.org/2001/XMLSchema-instance" xsi:schemaLocation="http://www.topografix.com/GPX/1/1 http://www.topografix.com/GPX/1/1/gpx.xsd" version="1.1" creator="VisuGPX - https://www.visugpx.com">
  <metadata>
    <name>Etangs de bievre</name>
    <desc><![CDATA[Rando en boucle depuis Versailles]]></desc>
  </metadata>
  <wpt lat="48.7795" lon="2.06717">
    <ele>141</ele>
    <name><![CDATA[Source de la Bièvre]]></name>
  </wpt>
  <trk>
    <name><![CDATA[20190512194147-mZccP]]></name>
    <trkseg>
      <trkpt lat="48.78013" lon="2.12456">
        <ele>213</ele>
        <time>2019-05-12T08:58:12.000Z</time>
      </trkpt>
      <trkpt lat="48.78013" lon="2.12456">
        <ele>213</ele>
        <time>2019-05-12T08:58:12.000Z</time>
      </trkpt>
      <trkpt lat="48.78008" lon="2.1246">
        <ele>213</ele>
        <time>2019-05-12T08:58:16.000Z</time>
      </trkpt>
      <trkpt lat="48.78001" lon="2.12462">
        <ele>213</ele>
        <time>2019-05-12T08:58:21.000Z</time>
      </trkpt>
      <trkpt lat="48.77999" lon="2.12461">
        <ele>213</ele>
        <time>2019-05-12T08:58:25.000Z</time>
      </trkpt>
      <trkpt lat="48.77996" lon="2.12461">
        <ele>213</ele>
        <time>2019-05-12T08:58:27.000Z</time>
      </trkpt>
      <trkpt lat="48.77987" lon="2.12459">
        <ele>213</ele>
        <time>2019-05-12T08:58:29.000Z</time>
      </trkpt>
      <trkpt lat="48.77978" lon="2.12453">
        <ele>213</ele>
        <time>2019-05-12T08:58:35.000Z</time>
      </trkpt>
      <trkpt lat="48.77971" lon="2.12446">
        <ele>213</ele>
        <time>2019-05-12T08:58:45.000Z</time>
      </trkpt>
      <trkpt lat="48.77969" lon="2.1244">
        <ele>212</ele>
        <time>2019-05-12T08:58:52.000Z</time>
      </trkpt>
      <trkpt lat="48.77968" lon="2.12433">
        <ele>212</ele>
        <time>2019-05-12T08:59:00.000Z</time>
      </trkpt>
      <trkpt lat="48.77967" lon="2.12431">
        <ele>212</ele>
        <time>2019-05-12T08:59:04.000Z</time>
      </trkpt>
      <trkpt lat="48.77967" lon="2.12431">
        <ele>212</ele>
        <time>2019-05-12T08:59:09.000Z</time>
      </trkpt>
      <trkpt lat="48.77967" lon="2.1243">
        <ele>212</ele>
        <time>2019-05-12T08:59:13.000Z</time>
      </trkpt>
      <trkpt lat="48.77967" lon="2.1243">
        <ele>211</ele>
        <time>2019-05-12T08:59:18.000Z</time>
      </trkpt>
      <trkpt lat="48.77966" lon="2.1243">
        <ele>211</ele>
        <time>2019-05-12T08:59:18.000Z</time>
      </trkpt>
      <trkpt lat="48.77966" lon="2.12429">
        <ele>211</ele>
        <time>2019-05-12T08:59:18.000Z</time>
      </trkpt>
      <trkpt lat="48.77966" lon="2.12429">
        <ele>211</ele>
        <time>2019-05-12T08:59:19.000Z</time>
      </trkpt>
      <trkpt lat="48.77966" lon="2.12428">
        <ele>211</ele>
        <time>2019-05-12T08:59:19.000Z</time>
      </trkpt>
      <trkpt lat="48.77965" lon="2.12426">
        <ele>211</ele>
        <time>2019-05-12T08:59:22.000Z</time>
      </trkpt>
      <trkpt lat="48.77964" lon="2.12423">
        <ele>211</ele>
        <time>2019-05-12T08:59:26.000Z</time>
      </trkpt>
      <trkpt lat="48.77964" lon="2.12419">
        <ele>211</ele>
        <time>2019-05-12T08:59:29.000Z</time>
      </trkpt>
      <trkpt lat="48.77963" lon="2.12416">
        <ele>211</ele>
        <time>2019-05-12T08:59:33.000Z</time>
      </trkpt>
      <trkpt lat="48.77962" lon="2.12414">
        <ele>211</ele>
        <time>2019-05-12T08:59:34.000Z</time>
      </trkpt>
      <trkpt lat="48.77962" lon="2.12414">
        <ele>211</ele>
        <time>2019-05-12T08:59:36.000Z</time>
      </trkpt>
      <trkpt lat="48.77962" lon="2.12414">
        <ele>211</ele>
        <time>2019-05-12T08:59:37.000Z</time>
      </trkpt>
      <trkpt lat="48.77962" lon="2.12414">
        <ele>211</ele>
        <time>2019-05-12T08:59:39.000Z</time>
      </trkpt>
      <trkpt lat="48.77962" lon="2.12414">
        <ele>211</ele>
        <time>2019-05-12T08:59:39.000Z</time>
      </trkpt>
      <trkpt lat="48.77962" lon="2.12414">
        <ele>211</ele>
        <time>2019-05-12T08:59:39.000Z</time>
      </trkpt>
      <trkpt lat="48.77962" lon="2.12414">
        <ele>211</ele>
        <time>2019-05-12T08:59:39.000Z</time>
      </trkpt>
      <trkpt lat="48.77962" lon="2.12413">
        <ele>211</ele>
        <time>2019-05-12T08:59:40.000Z</time>
      </trkpt>
      <trkpt lat="48.7796" lon="2.12411">
        <ele>211</ele>
        <time>2019-05-12T08:59:43.000Z</time>
      </trkpt>
      <trkpt lat="48.77958" lon="2.12409">
        <ele>211</ele>
        <time>2019-05-12T08:59:44.000Z</time>
      </trkpt>
      <trkpt lat="48.77958" lon="2.12408">
        <ele>210</ele>
        <time>2019-05-12T08:59:57.000Z</time>
      </trkpt>
      <trkpt lat="48.77957" lon="2.12408">
        <ele>210</ele>
        <time>2019-05-12T08:59:58.000Z</time>
      </trkpt>
      <trkpt lat="48.77955" lon="2.12407">
        <ele>210</ele>
        <time>2019-05-12T09:00:00.000Z</time>
      </trkpt>
      <trkpt lat="48.77949" lon="2.12403">
        <ele>210</ele>
        <time>2019-05-12T09:00:02.000Z</time>
      </trkpt>
      <trkpt lat="48.77947" lon="2.12402">
        <ele>210</ele>
        <time>2019-05-12T09:00:05.000Z</time>
      </trkpt>
      <trkpt lat="48.77946" lon="2.12402">
        <ele>210</ele>
        <time>2019-05-12T09:00:07.000Z</time>
      </trkpt>
      <trkpt lat="48.7794" lon="2.12398">
        <ele>210</ele>
        <time>2019-05-12T09:00:09.000Z</time>
      </trkpt>
      <trkpt lat="48.77937" lon="2.12396">
        <ele>210</ele>
        <time>2019-05-12T09:00:11.000Z</time>
      </trkpt>
      <trkpt lat="48.77936" lon="2.12396">
        <ele>210</ele>
        <time>2019-05-12T09:00:14.000Z</time>
      </trkpt>
      <trkpt lat="48.77936" lon="2.12395">
        <ele>210</ele>
        <time>2019-05-12T09:00:16.000Z</time>
      </trkpt>
      <trkpt lat="48.77936" lon="2.12395">
        <ele>210</ele>
        <time>2019-05-12T09:00:25.000Z</time>
      </trkpt>
      <trkpt lat="48.77936" lon="2.12394">
        <ele>210</ele>
        <time>2019-05-12T09:00:35.000Z</time>
      </trkpt>
      <trkpt lat="48.77937" lon="2.12393">
        <ele>210</ele>
        <time>2019-05-12T09:00:45.000Z</time>
      </trkpt>
      <trkpt lat="48.77937" lon="2.12392">
        <ele>209</ele>
        <time>2019-05-12T09:00:55.000Z</time>
      </trkpt>
      <trkpt lat="48.77937" lon="2.12392">
        <ele>209</ele>
        <time>2019-05-12T09:00:55.000Z</time>
      </trkpt>
      <trkpt lat="48.77937" lon="2.12391">
        <ele>209</ele>
        <time>2019-05-12T09:00:55.000Z</time>
      </trkpt>
      <trkpt lat="48.77937" lon="2.12391">
        <ele>209</ele>
        <time>2019-05-12T09:00:55.000Z</time>
      </trkpt>
      <trkpt lat="48.77938" lon="2.12391">
        <ele>209</ele>
        <time>2019-05-12T09:00:56.000Z</time>
      </trkpt>
      <trkpt lat="48.77939" lon="2.12389">
        <ele>209</ele>
        <time>2019-05-12T09:00:58.000Z</time>
      </trkpt>
      <trkpt lat="48.7794" lon="2.12388">
        <ele>209</ele>
        <time>2019-05-12T09:01:01.000Z</time>
      </trkpt>
      <trkpt lat="48.77942" lon="2.12386">
        <ele>209</ele>
        <time>2019-05-12T09:01:03.000Z</time>
      </trkpt>
      <trkpt lat="48.77943" lon="2.12385">
        <ele>209</ele>
        <time>2019-05-12T09:01:06.000Z</time>
      </trkpt>
      <trkpt lat="48.77944" lon="2.12384">
        <ele>209</ele>
        <time>2019-05-12T09:01:07.000Z</time>
      </trkpt>
      <trkpt lat="48.77945" lon="2.12383">
        <ele>209</ele>
        <time>2019-05-12T09:01:08.000Z</time>
      </trkpt>
      <trkpt lat="48.77947" lon="2.12382">
        <ele>209</ele>
        <time>2019-05-12T09:01:09.000Z</time>
      </trkpt>
      <trkpt lat="48.77948" lon="2.12381">
        <ele>209</ele>
        <time>2019-05-12T09:01:10.000Z</time>
      </trkpt>
      <trkpt lat="48.7795" lon="2.12379">
        <ele>209</ele>
        <time>2019-05-12T09:01:11.000Z</time>
      </trkpt>
      <trkpt lat="48.77953" lon="2.12377">
        <ele>209</ele>
        <time>2019-05-12T09:01:13.000Z</time>
      </trkpt>
      <trkpt lat="48.77956" lon="2.12375">
        <ele>209</ele>
        <time>2019-05-12T09:01:14.000Z</time>
      </trkpt>
      <trkpt lat="48.77959" lon="2.12372">
        <ele>209</ele>
        <time>2019-05-12T09:01:16.000Z</time>
      </trkpt>
      <trkpt lat="48.77961" lon="2.12368">
        <ele>209</ele>
        <time>2019-05-12T09:01:18.000Z</time>
      </trkpt>
      <trkpt lat="48.77961" lon="2.12365">
        <ele>209</ele>
        <time>2019-05-12T09:01:20.000Z</time>
      </trkpt>
      <trkpt lat="48.77962" lon="2.12363">
        <ele>209</ele>
        <time>2019-05-12T09:01:21.000Z</time>
      </trkpt>
      <trkpt lat="48.77963" lon="2.1236">
        <ele>209</ele>
        <time>2019-05-12T09:01:22.000Z</time>
      </trkpt>
      <trkpt lat="48.77963" lon="2.12358">
        <ele>209</ele>
        <time>2019-05-12T09:01:23.000Z</time>
      </trkpt>
      <trkpt lat="48.77963" lon="2.12356">
        <ele>209</ele>
        <time>2019-05-12T09:01:24.000Z</time>
      </trkpt>
      <trkpt lat="48.77964" lon="2.12353">
        <ele>209</ele>
        <time>2019-05-12T09:01:24.000Z</time>
      </trkpt>
      <trkpt lat="48.77964" lon="2.12351">
        <ele>209</ele>
        <time>2019-05-12T09:01:25.000Z</time>
      </trkpt>
      <trkpt lat="48.77964" lon="2.12349">
        <ele>209</ele>
        <time>2019-05-12T09:01:25.000Z</time>
      </trkpt>
      <trkpt lat="48.77965" lon="2.12347">
        <ele>209</ele>
        <time>2019-05-12T09:01:26.000Z</time>
      </trkpt>
      <trkpt lat="48.77965" lon="2.12345">
        <ele>209</ele>
        <time>2019-05-12T09:01:26.000Z</time>
      </trkpt>
      <trkpt lat="48.77965" lon="2.12344">
        <ele>209</ele>
        <time>2019-05-12T09:01:27.000Z</time>
      </trkpt>
      <trkpt lat="48.77965" lon="2.12344">
        <ele>209</ele>
        <time>2019-05-12T09:01:27.000Z</time>
      </trkpt>
      <trkpt lat="48.77965" lon="2.12343">
        <ele>209</ele>
        <time>2019-05-12T09:01:28.000Z</time>
      </trkpt>
      <trkpt lat="48.77965" lon="2.12342">
        <ele>209</ele>
        <time>2019-05-12T09:01:28.000Z</time>
      </trkpt>
      <trkpt lat="48.77965" lon="2.12342">
        <ele>209</ele>
        <time>2019-05-12T09:01:28.000Z</time>
      </trkpt>
      <trkpt lat="48.77965" lon="2.12341">
        <ele>209</ele>
        <time>2019-05-12T09:01:28.000Z</time>
      </trkpt>
      <trkpt lat="48.77965" lon="2.12341">
        <ele>209</ele>
        <time>2019-05-12T09:01:29.000Z</time>
      </trkpt>
      <trkpt lat="48.77965" lon="2.1234">
        <ele>209</ele>
        <time>2019-05-12T09:01:42.000Z</time>
      </trkpt>
      <trkpt lat="48.77965" lon="2.1234">
        <ele>208</ele>
        <time>2019-05-12T09:01:56.000Z</time>
      </trkpt>
      <trkpt lat="48.77964" lon="2.12339">
        <ele>208</ele>
        <time>2019-05-12T09:02:10.000Z</time>
      </trkpt>
      <trkpt lat="48.77964" lon="2.12339">
        <ele>208</ele>
        <time>2019-05-12T09:02:24.000Z</time>
      </trkpt>
      <trkpt lat="48.77964" lon="2.12339">
        <ele>208</ele>
        <time>2019-05-12T09:02:24.000Z</time>
      </trkpt>
      <trkpt lat="48.77964" lon="2.12338">
        <ele>208</ele>
        <time>2019-05-12T09:02:24.000Z</time>
      </trkpt>
      <trkpt lat="48.77963" lon="2.12338">
        <ele>208</ele>
        <time>2019-05-12T09:02:24.000Z</time>
      </trkpt>
      <trkpt lat="48.77963" lon="2.12338">
        <ele>208</ele>
        <time>2019-05-12T09:02:25.000Z</time>
      </trkpt>
      <trkpt lat="48.77963" lon="2.12337">
        <ele>208</ele>
        <time>2019-05-12T09:02:25.000Z</time>
      </trkpt>
      <trkpt lat="48.77963" lon="2.12336">
        <ele>208</ele>
        <time>2019-05-12T09:02:26.000Z</time>
      </trkpt>
      <trkpt lat="48.77962" lon="2.12336">
        <ele>208</ele>
        <time>2019-05-12T09:02:26.000Z</time>
      </trkpt>
      <trkpt lat="48.77962" lon="2.12335">
        <ele>208</ele>
        <time>2019-05-12T09:02:27.000Z</time>
      </trkpt>
      <trkpt lat="48.77961" lon="2.12334">
        <ele>208</ele>
        <time>2019-05-12T09:02:28.000Z</time>
      </trkpt>
      <trkpt lat="48.77961" lon="2.12333">
        <ele>208</ele>
        <time>2019-05-12T09:02:30.000Z</time>
      </trkpt>
      <trkpt lat="48.7796" lon="2.12332">
        <ele>208</ele>
        <time>2019-05-12T09:02:31.000Z</time>
      </trkpt>
      <trkpt lat="48.7796" lon="2.12331">
        <ele>208</ele>
        <time>2019-05-12T09:02:33.000Z</time>
      </trkpt>
      <trkpt lat="48.77959" lon="2.12331">
        <ele>208</ele>
        <time>2019-05-12T09:02:33.000Z</time>
      </trkpt>
      <trkpt lat="48.77959" lon="2.1233">
        <ele>208</ele>
        <time>2019-05-12T09:02:33.000Z</time>
      </trkpt>
      <trkpt lat="48.77959" lon="2.1233">
        <ele>208</ele>
        <time>2019-05-12T09:02:34.000Z</time>
      </trkpt>
      <trkpt lat="48.77959" lon="2.12329">
        <ele>208</ele>
        <time>2019-05-12T09:02:34.000Z</time>
      </trkpt>
      <trkpt lat="48.77958" lon="2.12328">
        <ele>208</ele>
        <time>2019-05-12T09:02:35.000Z</time>
      </trkpt>
      <trkpt lat="48.77957" lon="2.12327">
        <ele>208</ele>
        <time>2019-05-12T09:02:35.000Z</time>
      </trkpt>
      <trkpt lat="48.77956" lon="2.12325">
        <ele>208</ele>
        <time>2019-05-12T09:02:36.000Z</time>
      </trkpt>
      <trkpt lat="48.77955" lon="2.12323">
        <ele>208</ele>
        <time>2019-05-12T09:02:37.000Z</time>
      </trkpt>
      <trkpt lat="48.77953" lon="2.1232">
        <ele>208</ele>
        <time>2019-05-12T09:02:39.000Z</time>
      </trkpt>
      <trkpt lat="48.77952" lon="2.12317">
        <ele>208</ele>
        <time>2019-05-12T09:02:42.000Z</time>
      </trkpt>
      <trkpt lat="48.77945" lon="2.123">
        <ele>207</ele>
        <time>2019-05-12T09:02:50.000Z</time>
      </trkpt>
      <trkpt lat="48.77941" lon="2.12277">
        <ele>207</ele>
        <time>2019-05-12T09:03:09.000Z</time>
      </trkpt>
      <trkpt lat="48.77937" lon="2.12269">
        <ele>207</ele>
        <time>2019-05-12T09:03:22.000Z</time>
      </trkpt>
      <trkpt lat="48.77935" lon="2.12264">
        <ele>207</ele>
        <time>2019-05-12T09:03:24.000Z</time>
      </trkpt>
      <trkpt lat="48.7793" lon="2.1225">
        <ele>207</ele>
        <time>2019-05-12T09:03:28.000Z</time>
      </trkpt>
      <trkpt lat="48.7793" lon="2.12249">
        <ele>206</ele>
        <time>2019-05-12T09:03:33.000Z</time>
      </trkpt>
      <trkpt lat="48.77926" lon="2.12244">
        <ele>206</ele>
        <time>2019-05-12T09:03:38.000Z</time>
      </trkpt>
      <trkpt lat="48.77923" lon="2.1224">
        <ele>206</ele>
        <time>2019-05-12T09:03:39.000Z</time>
      </trkpt>
      <trkpt lat="48.77918" lon="2.12234">
        <ele>206</ele>
        <time>2019-05-12T09:03:41.000Z</time>
      </trkpt>
      <trkpt lat="48.77915" lon="2.1223">
        <ele>206</ele>
        <time>2019-05-12T09:03:42.000Z</time>
      </trkpt>
      <trkpt lat="48.77911" lon="2.12228">
        <ele>206</ele>
        <time>2019-05-12T09:03:44.000Z</time>
      </trkpt>
      <trkpt lat="48.77903" lon="2.12222">
        <ele>206</ele>
        <time>2019-05-12T09:03:57.000Z</time>
      </trkpt>
      <trkpt lat="48.77896" lon="2.12216">
        <ele>206</ele>
        <time>2019-05-12T09:04:02.000Z</time>
      </trkpt>
      <trkpt lat="48.77895" lon="2.12215">
        <ele>206</ele>
        <time>2019-05-12T09:04:04.000Z</time>
      </trkpt>
      <trkpt lat="48.77889" lon="2.12211">
        <ele>206</ele>
        <time>2019-05-12T09:04:06.000Z</time>
      </trkpt>
      <trkpt lat="48.77883" lon="2.12208">
        <ele>206</ele>
        <time>2019-05-12T09:04:08.000Z</time>
      </trkpt>
      <trkpt lat="48.77874" lon="2.12203">
        <ele>206</ele>
        <time>2019-05-12T09:04:19.000Z</time>
      </trkpt>
      <trkpt lat="48.77874" lon="2.122">
        <ele>206</ele>
        <time>2019-05-12T09:04:22.000Z</time>
      </trkpt>
      <trkpt lat="48.77874" lon="2.12197">
        <ele>206</ele>
        <time>2019-05-12T09:04:25.000Z</time>
      </trkpt>
      <trkpt lat="48.77876" lon="2.12193">
        <ele>206</ele>
        <time>2019-05-12T09:04:28.000Z</time>
      </trkpt>
      <trkpt lat="48.77877" lon="2.12189">
        <ele>206</ele>
        <time>2019-05-12T09:04:31.000Z</time>
      </trkpt>
      <trkpt lat="48.77877" lon="2.12186">
        <ele>206</ele>
        <time>2019-05-12T09:04:33.000Z</time>
      </trkpt>
      <trkpt lat="48.77877" lon="2.12182">
        <ele>205</ele>
        <time>2019-05-12T09:04:36.000Z</time>
      </trkpt>
      <trkpt lat="48.77877" lon="2.12179">
        <ele>205</ele>
        <time>2019-05-12T09:04:38.000Z</time>
      </trkpt>
      <trkpt lat="48.77877" lon="2.12175">
        <ele>205</ele>
        <time>2019-05-12T09:04:41.000Z</time>
      </trkpt>
      <trkpt lat="48.77878" lon="2.12171">
        <ele>205</ele>
        <time>2019-05-12T09:04:43.000Z</time>
      </trkpt>
      <trkpt lat="48.77879" lon="2.12167">
        <ele>205</ele>
        <time>2019-05-12T09:04:46.000Z</time>
      </trkpt>
      <trkpt lat="48.7788" lon="2.12162">
        <ele>205</ele>
        <time>2019-05-12T09:04:49.000Z</time>
      </trkpt>
      <trkpt lat="48.77881" lon="2.12158">
        <ele>205</ele>
        <time>2019-05-12T09:04:52.000Z</time>
      </trkpt>
      <trkpt lat="48.77882" lon="2.12155">
        <ele>205</ele>
        <time>2019-05-12T09:04:53.000Z</time>
      </trkpt>
      <trkpt lat="48.77882" lon="2.12154">
        <ele>205</ele>
        <time>2019-05-12T09:04:53.000Z</time>
      </trkpt>
      <trkpt lat="48.77882" lon="2.12152">
        <ele>205</ele>
        <time>2019-05-12T09:04:54.000Z</time>
      </trkpt>
      <trkpt lat="48.77882" lon="2.12151">
        <ele>205</ele>
        <time>2019-05-12T09:04:55.000Z</time>
      </trkpt>
      <trkpt lat="48.77882" lon="2.12147">
        <ele>205</ele>
        <time>2019-05-12T09:04:58.000Z</time>
      </trkpt>
      <trkpt lat="48.77883" lon="2.12143">
        <ele>205</ele>
        <time>2019-05-12T09:05:01.000Z</time>
      </trkpt>
      <trkpt lat="48.77884" lon="2.12137">
        <ele>205</ele>
        <time>2019-05-12T09:05:05.000Z</time>
      </trkpt>
      <trkpt lat="48.77885" lon="2.12131">
        <ele>205</ele>
        <time>2019-05-12T09:05:08.000Z</time>
      </trkpt>
      <trkpt lat="48.77885" lon="2.12129">
        <ele>205</ele>
        <time>2019-05-12T09:05:19.000Z</time>
      </trkpt>
      <trkpt lat="48.77885" lon="2.12129">
        <ele>205</ele>
        <time>2019-05-12T09:05:30.000Z</time>
      </trkpt>
      <trkpt lat="48.77885" lon="2.12129">
        <ele>205</ele>
        <time>2019-05-12T09:05:41.000Z</time>
      </trkpt>
      <trkpt lat="48.77885" lon="2.1213">
        <ele>205</ele>
        <time>2019-05-12T09:05:53.000Z</time>
      </trkpt>
      <trkpt lat="48.77885" lon="2.12129">
        <ele>205</ele>
        <time>2019-05-12T09:05:54.000Z</time>
      </trkpt>
      <trkpt lat="48.77885" lon="2.1212">
        <ele>205</ele>
        <time>2019-05-12T09:06:01.000Z</time>
      </trkpt>
      <trkpt lat="48.77887" lon="2.12103">
        <ele>205</ele>
        <time>2019-05-12T09:06:08.000Z</time>
      </trkpt>
      <trkpt lat="48.77887" lon="2.12091">
        <ele>205</ele>
        <time>2019-05-12T09:06:18.000Z</time>
      </trkpt>
      <trkpt lat="48.77887" lon="2.12072">
        <ele>205</ele>
        <time>2019-05-12T09:06:24.000Z</time>
      </trkpt>
      <trkpt lat="48.77887" lon="2.1205">
        <ele>205</ele>
        <time>2019-05-12T09:06:33.000Z</time>
      </trkpt>
      <trkpt lat="48.77892" lon="2.12033">
        <ele>205</ele>
        <time>2019-05-12T09:06:46.000Z</time>
      </trkpt>
      <trkpt lat="48.779" lon="2.12018">
        <ele>205</ele>
        <time>2019-05-12T09:06:56.000Z</time>
      </trkpt>
      <trkpt lat="48.77911" lon="2.12004">
        <ele>205</ele>
        <time>2019-05-12T09:07:13.000Z</time>
      </trkpt>
      <trkpt lat="48.7792" lon="2.11993">
        <ele>204</ele>
        <time>2019-05-12T09:07:24.000Z</time>
      </trkpt>
      <trkpt lat="48.77924" lon="2.11986">
        <ele>204</ele>
        <time>2019-05-12T09:07:27.000Z</time>
      </trkpt>
      <trkpt lat="48.77931" lon="2.11975">
        <ele>204</ele>
        <time>2019-05-12T09:07:29.000Z</time>
      </trkpt>
      <trkpt lat="48.77941" lon="2.1196">
        <ele>204</ele>
        <time>2019-05-12T09:07:49.000Z</time>
      </trkpt>
      <trkpt lat="48.7795" lon="2.11949">
        <ele>204</ele>
        <time>2019-05-12T09:08:01.000Z</time>
      </trkpt>
      <trkpt lat="48.7795" lon="2.11947">
        <ele>204</ele>
        <time>2019-05-12T09:08:04.000Z</time>
      </trkpt>
      <trkpt lat="48.7795" lon="2.11946">
        <ele>204</ele>
        <time>2019-05-12T09:08:06.000Z</time>
      </trkpt>
      <trkpt lat="48.77953" lon="2.11932">
        <ele>204</ele>
        <time>2019-05-12T09:08:08.000Z</time>
      </trkpt>
      <trkpt lat="48.77956" lon="2.11913">
        <ele>203</ele>
        <time>2019-05-12T09:08:34.000Z</time>
      </trkpt>
      <trkpt lat="48.77959" lon="2.11905">
        <ele>203</ele>
        <time>2019-05-12T09:08:40.000Z</time>
      </trkpt>
      <trkpt lat="48.77966" lon="2.11893">
        <ele>203</ele>
        <time>2019-05-12T09:08:47.000Z</time>
      </trkpt>
      <trkpt lat="48.77972" lon="2.11878">
        <ele>203</ele>
        <time>2019-05-12T09:08:57.000Z</time>
      </trkpt>
      <trkpt lat="48.7798" lon="2.11866">
        <ele>203</ele>
        <time>2019-05-12T09:09:09.000Z</time>
      </trkpt>
      <trkpt lat="48.7798" lon="2.11862">
        <ele>203</ele>
        <time>2019-05-12T09:09:17.000Z</time>
      </trkpt>
      <trkpt lat="48.7798" lon="2.11858">
        <ele>203</ele>
        <time>2019-05-12T09:09:24.000Z</time>
      </trkpt>
      <trkpt lat="48.7798" lon="2.11853">
        <ele>202</ele>
        <time>2019-05-12T09:09:32.000Z</time>
      </trkpt>
      <trkpt lat="48.77979" lon="2.11849">
        <ele>202</ele>
        <time>2019-05-12T09:09:40.000Z</time>
      </trkpt>
      <trkpt lat="48.77978" lon="2.11845">
        <ele>202</ele>
        <time>2019-05-12T09:09:43.000Z</time>
      </trkpt>
      <trkpt lat="48.77976" lon="2.11844">
        <ele>202</ele>
        <time>2019-05-12T09:09:47.000Z</time>
      </trkpt>
      <trkpt lat="48.77976" lon="2.11843">
        <ele>202</ele>
        <time>2019-05-12T09:09:48.000Z</time>
      </trkpt>
      <trkpt lat="48.77975" lon="2.11842">
        <ele>202</ele>
        <time>2019-05-12T09:09:49.000Z</time>
      </trkpt>
      <trkpt lat="48.77975" lon="2.11841">
        <ele>202</ele>
        <time>2019-05-12T09:09:51.000Z</time>
      </trkpt>
      <trkpt lat="48.77974" lon="2.11841">
        <ele>202</ele>
        <time>2019-05-12T09:09:52.000Z</time>
      </trkpt>
      <trkpt lat="48.77974" lon="2.1184">
        <ele>202</ele>
        <time>2019-05-12T09:09:52.000Z</time>
      </trkpt>
      <trkpt lat="48.77974" lon="2.1184">
        <ele>202</ele>
        <time>2019-05-12T09:09:53.000Z</time>
      </trkpt>
      <trkpt lat="48.77974" lon="2.11839">
        <ele>202</ele>
        <time>2019-05-12T09:09:53.000Z</time>
      </trkpt>
      <trkpt lat="48.77973" lon="2.11839">
        <ele>202</ele>
        <time>2019-05-12T09:09:54.000Z</time>
      </trkpt>
      <trkpt lat="48.77972" lon="2.11837">
        <ele>202</ele>
        <time>2019-05-12T09:09:54.000Z</time>
      </trkpt>
      <trkpt lat="48.77971" lon="2.11834">
        <ele>202</ele>
        <time>2019-05-12T09:09:55.000Z</time>
      </trkpt>
      <trkpt lat="48.7797" lon="2.11831">
        <ele>202</ele>
        <time>2019-05-12T09:09:55.000Z</time>
      </trkpt>
      <trkpt lat="48.77969" lon="2.11828">
        <ele>202</ele>
        <time>2019-05-12T09:09:56.000Z</time>
      </trkpt>
      <trkpt lat="48.77968" lon="2.11826">
        <ele>202</ele>
        <time>2019-05-12T09:09:57.000Z</time>
      </trkpt>
      <trkpt lat="48.77967" lon="2.11823">
        <ele>202</ele>
        <time>2019-05-12T09:09:57.000Z</time>
      </trkpt>
      <trkpt lat="48.77966" lon="2.11821">
        <ele>202</ele>
        <time>2019-05-12T09:09:58.000Z</time>
      </trkpt>
      <trkpt lat="48.77966" lon="2.11819">
        <ele>202</ele>
        <time>2019-05-12T09:09:59.000Z</time>
      </trkpt>
      <trkpt lat="48.77965" lon="2.11816">
        <ele>202</ele>
        <time>2019-05-12T09:10:01.000Z</time>
      </trkpt>
      <trkpt lat="48.77964" lon="2.11813">
        <ele>202</ele>
        <time>2019-05-12T09:10:04.000Z</time>
      </trkpt>
      <trkpt lat="48.77964" lon="2.1181">
        <ele>202</ele>
        <time>2019-05-12T09:10:06.000Z</time>
      </trkpt>
      <trkpt lat="48.77963" lon="2.11807">
        <ele>202</ele>
        <time>2019-05-12T09:10:09.000Z</time>
      </trkpt>
      <trkpt lat="48.7796" lon="2.11794">
        <ele>201</ele>
        <time>2019-05-12T09:10:15.000Z</time>
      </trkpt>
      <trkpt lat="48.77957" lon="2.11785">
        <ele>201</ele>
        <time>2019-05-12T09:10:29.000Z</time>
      </trkpt>
      <trkpt lat="48.77956" lon="2.11784">
        <ele>201</ele>
        <time>2019-05-12T09:10:31.000Z</time>
      </trkpt>
      <trkpt lat="48.77956" lon="2.11784">
        <ele>201</ele>
        <time>2019-05-12T09:10:34.000Z</time>
      </trkpt>
      <trkpt lat="48.77955" lon="2.11784">
        <ele>201</ele>
        <time>2019-05-12T09:10:36.000Z</time>
      </trkpt>
      <trkpt lat="48.77955" lon="2.11784">
        <ele>201</ele>
        <time>2019-05-12T09:10:39.000Z</time>
      </trkpt>
      <trkpt lat="48.77954" lon="2.11784">
        <ele>201</ele>
        <time>2019-05-12T09:10:39.000Z</time>
      </trkpt>
      <trkpt lat="48.77954" lon="2.11784">
        <ele>201</ele>
        <time>2019-05-12T09:10:39.000Z</time>
      </trkpt>
      <trkpt lat="48.77953" lon="2.11784">
        <ele>201</ele>
        <time>2019-05-12T09:10:39.000Z</time>
      </trkpt>
      <trkpt lat="48.77953" lon="2.11784">
        <ele>201</ele>
        <time>2019-05-12T09:10:40.000Z</time>
      </trkpt>
      <trkpt lat="48.77951" lon="2.11784">
        <ele>201</ele>
        <time>2019-05-12T09:10:41.000Z</time>
      </trkpt>
      <trkpt lat="48.7795" lon="2.11783">
        <ele>201</ele>
        <time>2019-05-12T09:10:42.000Z</time>
      </trkpt>
      <trkpt lat="48.77949" lon="2.11783">
        <ele>201</ele>
        <time>2019-05-12T09:10:43.000Z</time>
      </trkpt>
      <trkpt lat="48.77947" lon="2.11783">
        <ele>201</ele>
        <time>2019-05-12T09:10:44.000Z</time>
      </trkpt>
      <trkpt lat="48.77945" lon="2.11782">
        <ele>201</ele>
        <time>2019-05-12T09:10:44.000Z</time>
      </trkpt>
      <trkpt lat="48.77943" lon="2.11782">
        <ele>201</ele>
        <time>2019-05-12T09:10:45.000Z</time>
      </trkpt>
      <trkpt lat="48.7794" lon="2.11782">
        <ele>201</ele>
        <time>2019-05-12T09:10:46.000Z</time>
      </trkpt>
      <trkpt lat="48.77938" lon="2.11781">
        <ele>201</ele>
        <time>2019-05-12T09:10:47.000Z</time>
      </trkpt>
      <trkpt lat="48.77937" lon="2.11781">
        <ele>201</ele>
        <time>2019-05-12T09:10:48.000Z</time>
      </trkpt>
      <trkpt lat="48.77936" lon="2.11781">
        <ele>201</ele>
        <time>2019-05-12T09:10:50.000Z</time>
      </trkpt>
      <trkpt lat="48.77935" lon="2.11781">
        <ele>201</ele>
        <time>2019-05-12T09:10:51.000Z</time>
      </trkpt>
      <trkpt lat="48.77935" lon="2.11781">
        <ele>201</ele>
        <time>2019-05-12T09:10:53.000Z</time>
      </trkpt>
      <trkpt lat="48.77933" lon="2.11781">
        <ele>201</ele>
        <time>2019-05-12T09:10:54.000Z</time>
      </trkpt>
      <trkpt lat="48.7793" lon="2.1178">
        <ele>201</ele>
        <time>2019-05-12T09:10:54.000Z</time>
      </trkpt>
      <trkpt lat="48.77926" lon="2.1178">
        <ele>201</ele>
        <time>2019-05-12T09:10:55.000Z</time>
      </trkpt>
      <trkpt lat="48.77922" lon="2.11779">
        <ele>201</ele>
        <time>2019-05-12T09:10:56.000Z</time>
      </trkpt>
      <trkpt lat="48.77918" lon="2.11778">
        <ele>200</ele>
        <time>2019-05-12T09:10:58.000Z</time>
      </trkpt>
      <trkpt lat="48.77914" lon="2.11778">
        <ele>200</ele>
        <time>2019-05-12T09:11:03.000Z</time>
      </trkpt>
      <trkpt lat="48.77899" lon="2.11774">
        <ele>200</ele>
        <time>2019-05-12T09:11:38.000Z</time>
      </trkpt>
      <trkpt lat="48.77893" lon="2.11769">
        <ele>199</ele>
        <time>2019-05-12T09:13:08.000Z</time>
      </trkpt>
      <trkpt lat="48.7789" lon="2.11766">
        <ele>199</ele>
        <time>2019-05-12T09:13:09.000Z</time>
      </trkpt>
      <trkpt lat="48.77879" lon="2.11757">
        <ele>199</ele>
        <time>2019-05-12T09:13:12.000Z</time>
      </trkpt>
      <trkpt lat="48.77879" lon="2.11756">
        <ele>199</ele>
        <time>2019-05-12T09:13:15.000Z</time>
      </trkpt>
      <trkpt lat="48.77877" lon="2.11755">
        <ele>199</ele>
        <time>2019-05-12T09:13:17.000Z</time>
      </trkpt>
      <trkpt lat="48.7787" lon="2.11747">
        <ele>199</ele>
        <time>2019-05-12T09:13:19.000Z</time>
      </trkpt>
      <trkpt lat="48.77858" lon="2.1173">
        <ele>199</ele>
        <time>2019-05-12T09:13:29.000Z</time>
      </trkpt>
      <trkpt lat="48.77855" lon="2.11719">
        <ele>199</ele>
        <time>2019-05-12T09:13:38.000Z</time>
      </trkpt>
      <trkpt lat="48.77854" lon="2.11707">
        <ele>199</ele>
        <time>2019-05-12T09:13:47.000Z</time>
      </trkpt>
      <trkpt lat="48.77853" lon="2.11703">
        <ele>199</ele>
        <time>2019-05-12T09:13:51.000Z</time>
      </trkpt>
      <trkpt lat="48.77852" lon="2.11699">
        <ele>199</ele>
        <time>2019-05-12T09:13:55.000Z</time>
      </trkpt>
      <trkpt lat="48.77851" lon="2.11696">
        <ele>199</ele>
        <time>2019-05-12T09:13:59.000Z</time>
      </trkpt>
      <trkpt lat="48.7785" lon="2.11693">
        <ele>199</ele>
        <time>2019-05-12T09:14:03.000Z</time>
      </trkpt>
      <trkpt lat="48.77848" lon="2.1169">
        <ele>198</ele>
        <time>2019-05-12T09:14:05.000Z</time>
      </trkpt>
      <trkpt lat="48.77848" lon="2.11687">
        <ele>198</ele>
        <time>2019-05-12T09:14:08.000Z</time>
      </trkpt>
      <trkpt lat="48.77847" lon="2.11683">
        <ele>198</ele>
        <time>2019-05-12T09:14:10.000Z</time>
      </trkpt>
      <trkpt lat="48.77845" lon="2.1168">
        <ele>198</ele>
        <time>2019-05-12T09:14:13.000Z</time>
      </trkpt>
      <trkpt lat="48.77845" lon="2.11679">
        <ele>198</ele>
        <time>2019-05-12T09:14:15.000Z</time>
      </trkpt>
      <trkpt lat="48.77845" lon="2.11678">
        <ele>198</ele>
        <time>2019-05-12T09:14:18.000Z</time>
      </trkpt>
      <trkpt lat="48.77845" lon="2.11678">
        <ele>198</ele>
        <time>2019-05-12T09:14:20.000Z</time>
      </trkpt>
      <trkpt lat="48.77844" lon="2.11677">
        <ele>198</ele>
        <time>2019-05-12T09:14:23.000Z</time>
      </trkpt>
      <trkpt lat="48.77844" lon="2.11677">
        <ele>198</ele>
        <time>2019-05-12T09:14:23.000Z</time>
      </trkpt>
      <trkpt lat="48.77844" lon="2.11677">
        <ele>198</ele>
        <time>2019-05-12T09:14:23.000Z</time>
      </trkpt>
      <trkpt lat="48.77844" lon="2.11676">
        <ele>198</ele>
        <time>2019-05-12T09:14:24.000Z</time>
      </trkpt>
      <trkpt lat="48.77844" lon="2.11676">
        <ele>198</ele>
        <time>2019-05-12T09:14:24.000Z</time>
      </trkpt>
      <trkpt lat="48.77843" lon="2.11674">
        <ele>198</ele>
        <time>2019-05-12T09:14:26.000Z</time>
      </trkpt>
      <trkpt lat="48.77842" lon="2.11672">
        <ele>198</ele>
        <time>2019-05-12T09:14:29.000Z</time>
      </trkpt>
      <trkpt lat="48.77841" lon="2.11669">
        <ele>198</ele>
        <time>2019-05-12T09:14:31.000Z</time>
      </trkpt>
      <trkpt lat="48.7784" lon="2.11667">
        <ele>198</ele>
        <time>2019-05-12T09:14:34.000Z</time>
      </trkpt>
      <trkpt lat="48.7784" lon="2.11665">
        <ele>198</ele>
        <time>2019-05-12T09:14:53.000Z</time>
      </trkpt>
      <trkpt lat="48.7784" lon="2.11664">
        <ele>198</ele>
        <time>2019-05-12T09:15:13.000Z</time>
      </trkpt>
      <trkpt lat="48.77841" lon="2.11664">
        <ele>198</ele>
        <time>2019-05-12T09:15:33.000Z</time>
      </trkpt>
      <trkpt lat="48.77842" lon="2.11664">
        <ele>198</ele>
        <time>2019-05-12T09:15:53.000Z</time>
      </trkpt>
      <trkpt lat="48.77842" lon="2.11663">
        <ele>198</ele>
        <time>2019-05-12T09:15:53.000Z</time>
      </trkpt>
      <trkpt lat="48.77842" lon="2.11662">
        <ele>198</ele>
        <time>2019-05-12T09:15:53.000Z</time>
      </trkpt>
      <trkpt lat="48.77842" lon="2.11662">
        <ele>198</ele>
        <time>2019-05-12T09:15:54.000Z</time>
      </trkpt>
      <trkpt lat="48.77842" lon="2.11662">
        <ele>198</ele>
        <time>2019-05-12T09:15:54.000Z</time>
      </trkpt>
      <trkpt lat="48.77843" lon="2.1166">
        <ele>198</ele>
        <time>2019-05-12T09:15:55.000Z</time>
      </trkpt>
      <trkpt lat="48.77843" lon="2.11657">
        <ele>198</ele>
        <time>2019-05-12T09:15:57.000Z</time>
      </trkpt>
      <trkpt lat="48.77844" lon="2.11654">
        <ele>198</ele>
        <time>2019-05-12T09:15:58.000Z</time>
      </trkpt>
      <trkpt lat="48.77845" lon="2.11651">
        <ele>198</ele>
        <time>2019-05-12T09:16:00.000Z</time>
      </trkpt>
      <trkpt lat="48.77845" lon="2.1165">
        <ele>198</ele>
        <time>2019-05-12T09:16:04.000Z</time>
      </trkpt>
      <trkpt lat="48.77845" lon="2.11649">
        <ele>198</ele>
        <time>2019-05-12T09:16:07.000Z</time>
      </trkpt>
      <trkpt lat="48.77844" lon="2.11649">
        <ele>198</ele>
        <time>2019-05-12T09:16:11.000Z</time>
      </trkpt>
      <trkpt lat="48.77844" lon="2.11649">
        <ele>198</ele>
        <time>2019-05-12T09:16:15.000Z</time>
      </trkpt>
      <trkpt lat="48.77844" lon="2.11648">
        <ele>197</ele>
        <time>2019-05-12T09:16:15.000Z</time>
      </trkpt>
      <trkpt lat="48.77844" lon="2.11648">
        <ele>197</ele>
        <time>2019-05-12T09:16:15.000Z</time>
      </trkpt>
      <trkpt lat="48.77844" lon="2.11648">
        <ele>197</ele>
        <time>2019-05-12T09:16:16.000Z</time>
      </trkpt>
      <trkpt lat="48.77843" lon="2.11647">
        <ele>198</ele>
        <time>2019-05-12T09:16:16.000Z</time>
      </trkpt>
      <trkpt lat="48.77842" lon="2.11644">
        <ele>197</ele>
        <time>2019-05-12T09:16:18.000Z</time>
      </trkpt>
      <trkpt lat="48.7784" lon="2.1164">
        <ele>197</ele>
        <time>2019-05-12T09:16:20.000Z</time>
      </trkpt>
      <trkpt lat="48.77839" lon="2.11635">
        <ele>197</ele>
        <time>2019-05-12T09:16:22.000Z</time>
      </trkpt>
      <trkpt lat="48.77837" lon="2.1163">
        <ele>197</ele>
        <time>2019-05-12T09:16:24.000Z</time>
      </trkpt>
      <trkpt lat="48.77835" lon="2.11625">
        <ele>197</ele>
        <time>2019-05-12T09:16:27.000Z</time>
      </trkpt>
      <trkpt lat="48.77833" lon="2.11619">
        <ele>197</ele>
        <time>2019-05-12T09:16:30.000Z</time>
      </trkpt>
      <trkpt lat="48.77832" lon="2.11614">
        <ele>197</ele>
        <time>2019-05-12T09:16:33.000Z</time>
      </trkpt>
      <trkpt lat="48.7783" lon="2.11608">
        <ele>197</ele>
        <time>2019-05-12T09:16:36.000Z</time>
      </trkpt>
      <trkpt lat="48.77828" lon="2.11603">
        <ele>197</ele>
        <time>2019-05-12T09:16:40.000Z</time>
      </trkpt>
      <trkpt lat="48.77826" lon="2.11599">
        <ele>197</ele>
        <time>2019-05-12T09:16:44.000Z</time>
      </trkpt>
      <trkpt lat="48.77824" lon="2.11595">
        <ele>197</ele>
        <time>2019-05-12T09:16:48.000Z</time>
      </trkpt>
      <trkpt lat="48.77822" lon="2.11591">
        <ele>197</ele>
        <time>2019-05-12T09:16:52.000Z</time>
      </trkpt>
      <trkpt lat="48.77821" lon="2.11583">
        <ele>197</ele>
        <time>2019-05-12T09:16:58.000Z</time>
      </trkpt>
      <trkpt lat="48.77821" lon="2.11575">
        <ele>197</ele>
        <time>2019-05-12T09:17:05.000Z</time>
      </trkpt>
      <trkpt lat="48.77821" lon="2.11572">
        <ele>197</ele>
        <time>2019-05-12T09:17:19.000Z</time>
      </trkpt>
      <trkpt lat="48.77821" lon="2.11569">
        <ele>197</ele>
        <time>2019-05-12T09:17:33.000Z</time>
      </trkpt>
      <trkpt lat="48.77821" lon="2.11567">
        <ele>197</ele>
        <time>2019-05-12T09:17:47.000Z</time>
      </trkpt>
      <trkpt lat="48.7782" lon="2.11565">
        <ele>196</ele>
        <time>2019-05-12T09:18:01.000Z</time>
      </trkpt>
      <trkpt lat="48.7782" lon="2.11564">
        <ele>196</ele>
        <time>2019-05-12T09:18:01.000Z</time>
      </trkpt>
      <trkpt lat="48.7782" lon="2.11562">
        <ele>196</ele>
        <time>2019-05-12T09:18:01.000Z</time>
      </trkpt>
      <trkpt lat="48.7782" lon="2.11561">
        <ele>196</ele>
        <time>2019-05-12T09:18:02.000Z</time>
      </trkpt>
      <trkpt lat="48.7782" lon="2.11561">
        <ele>196</ele>
        <time>2019-05-12T09:18:02.000Z</time>
      </trkpt>
      <trkpt lat="48.77819" lon="2.11559">
        <ele>196</ele>
        <time>2019-05-12T09:18:02.000Z</time>
      </trkpt>
      <trkpt lat="48.77819" lon="2.11558">
        <ele>196</ele>
        <time>2019-05-12T09:18:03.000Z</time>
      </trkpt>
      <trkpt lat="48.77819" lon="2.11556">
        <ele>196</ele>
        <time>2019-05-12T09:18:03.000Z</time>
      </trkpt>
      <trkpt lat="48.77819" lon="2.11555">
        <ele>196</ele>
        <time>2019-05-12T09:18:04.000Z</time>
      </trkpt>
      <trkpt lat="48.77818" lon="2.11553">
        <ele>196</ele>
        <time>2019-05-12T09:18:05.000Z</time>
      </trkpt>
      <trkpt lat="48.77818" lon="2.11551">
        <ele>196</ele>
        <time>2019-05-12T09:18:06.000Z</time>
      </trkpt>
      <trkpt lat="48.77818" lon="2.11549">
        <ele>196</ele>
        <time>2019-05-12T09:18:08.000Z</time>
      </trkpt>
      <trkpt lat="48.77817" lon="2.11547">
        <ele>196</ele>
        <time>2019-05-12T09:18:09.000Z</time>
      </trkpt>
      <trkpt lat="48.77817" lon="2.11547">
        <ele>196</ele>
        <time>2019-05-12T09:18:12.000Z</time>
      </trkpt>
      <trkpt lat="48.77816" lon="2.11548">
        <ele>196</ele>
        <time>2019-05-12T09:18:15.000Z</time>
      </trkpt>
      <trkpt lat="48.77816" lon="2.11549">
        <ele>196</ele>
        <time>2019-05-12T09:18:19.000Z</time>
      </trkpt>
      <trkpt lat="48.77816" lon="2.1155">
        <ele>196</ele>
        <time>2019-05-12T09:18:22.000Z</time>
      </trkpt>
      <trkpt lat="48.77816" lon="2.11551">
        <ele>196</ele>
        <time>2019-05-12T09:18:38.000Z</time>
      </trkpt>
      <trkpt lat="48.77816" lon="2.11551">
        <ele>196</ele>
        <time>2019-05-12T09:18:55.000Z</time>
      </trkpt>
      <trkpt lat="48.77816" lon="2.11551">
        <ele>196</ele>
        <time>2019-05-12T09:19:11.000Z</time>
      </trkpt>
      <trkpt lat="48.77816" lon="2.11551">
        <ele>196</ele>
        <time>2019-05-12T09:19:28.000Z</time>
      </trkpt>
      <trkpt lat="48.77817" lon="2.11551">
        <ele>196</ele>
        <time>2019-05-12T09:19:28.000Z</time>
      </trkpt>
      <trkpt lat="48.77817" lon="2.11551">
        <ele>196</ele>
        <time>2019-05-12T09:19:28.000Z</time>
      </trkpt>
      <trkpt lat="48.77817" lon="2.11552">
        <ele>196</ele>
        <time>2019-05-12T09:19:29.000Z</time>
      </trkpt>
      <trkpt lat="48.77817" lon="2.11552">
        <ele>196</ele>
        <time>2019-05-12T09:19:29.000Z</time>
      </trkpt>
      <trkpt lat="48.77817" lon="2.11552">
        <ele>196</ele>
        <time>2019-05-12T09:19:29.000Z</time>
      </trkpt>
      <trkpt lat="48.77818" lon="2.11552">
        <ele>196</ele>
        <time>2019-05-12T09:19:29.000Z</time>
      </trkpt>
      <trkpt lat="48.77818" lon="2.11552">
        <ele>196</ele>
        <time>2019-05-12T09:19:30.000Z</time>
      </trkpt>
      <trkpt lat="48.77818" lon="2.11552">
        <ele>196</ele>
        <time>2019-05-12T09:19:30.000Z</time>
      </trkpt>
      <trkpt lat="48.77818" lon="2.11552">
        <ele>195</ele>
        <time>2019-05-12T09:19:44.000Z</time>
      </trkpt>
      <trkpt lat="48.77818" lon="2.11552">
        <ele>195</ele>
        <time>2019-05-12T09:19:57.000Z</time>
      </trkpt>
      <trkpt lat="48.77818" lon="2.11551">
        <ele>195</ele>
        <time>2019-05-12T09:20:11.000Z</time>
      </trkpt>
      <trkpt lat="48.77818" lon="2.11551">
        <ele>195</ele>
        <time>2019-05-12T09:20:25.000Z</time>
      </trkpt>
      <trkpt lat="48.77818" lon="2.11551">
        <ele>195</ele>
        <time>2019-05-12T09:20:25.000Z</time>
      </trkpt>
      <trkpt lat="48.77818" lon="2.1155">
        <ele>195</ele>
        <time>2019-05-12T09:20:25.000Z</time>
      </trkpt>
      <trkpt lat="48.77818" lon="2.1155">
        <ele>195</ele>
        <time>2019-05-12T09:20:25.000Z</time>
      </trkpt>
      <trkpt lat="48.77818" lon="2.1155">
        <ele>195</ele>
        <time>2019-05-12T09:20:26.000Z</time>
      </trkpt>
      <trkpt lat="48.77819" lon="2.11548">
        <ele>195</ele>
        <time>2019-05-12T09:20:29.000Z</time>
      </trkpt>
      <trkpt lat="48.7782" lon="2.11544">
        <ele>195</ele>
        <time>2019-05-12T09:20:32.000Z</time>
      </trkpt>
      <trkpt lat="48.77821" lon="2.11541">
        <ele>195</ele>
        <time>2019-05-12T09:20:35.000Z</time>
      </trkpt>
      <trkpt lat="48.77823" lon="2.11536">
        <ele>194</ele>
        <time>2019-05-12T09:20:38.000Z</time>
      </trkpt>
      <trkpt lat="48.77824" lon="2.11534">
        <ele>194</ele>
        <time>2019-05-12T09:20:39.000Z</time>
      </trkpt>
      <trkpt lat="48.77824" lon="2.11532">
        <ele>194</ele>
        <time>2019-05-12T09:20:41.000Z</time>
      </trkpt>
      <trkpt lat="48.77825" lon="2.1153">
        <ele>194</ele>
        <time>2019-05-12T09:20:42.000Z</time>
      </trkpt>
      <trkpt lat="48.77826" lon="2.11528">
        <ele>194</ele>
        <time>2019-05-12T09:20:44.000Z</time>
      </trkpt>
      <trkpt lat="48.77826" lon="2.11526">
        <ele>194</ele>
        <time>2019-05-12T09:20:44.000Z</time>
      </trkpt>
      <trkpt lat="48.77827" lon="2.11525">
        <ele>194</ele>
        <time>2019-05-12T09:20:44.000Z</time>
      </trkpt>
      <trkpt lat="48.77827" lon="2.11524">
        <ele>194</ele>
        <time>2019-05-12T09:20:44.000Z</time>
      </trkpt>
      <trkpt lat="48.77828" lon="2.11523">
        <ele>194</ele>
        <time>2019-05-12T09:20:45.000Z</time>
      </trkpt>
      <trkpt lat="48.77828" lon="2.11522">
        <ele>194</ele>
        <time>2019-05-12T09:20:45.000Z</time>
      </trkpt>
      <trkpt lat="48.77828" lon="2.11521">
        <ele>194</ele>
        <time>2019-05-12T09:20:46.000Z</time>
      </trkpt>
      <trkpt lat="48.77828" lon="2.1152">
        <ele>194</ele>
        <time>2019-05-12T09:20:46.000Z</time>
      </trkpt>
      <trkpt lat="48.77829" lon="2.11519">
        <ele>194</ele>
        <time>2019-05-12T09:20:47.000Z</time>
      </trkpt>
      <trkpt lat="48.77829" lon="2.11517">
        <ele>194</ele>
        <time>2019-05-12T09:20:48.000Z</time>
      </trkpt>
      <trkpt lat="48.77833" lon="2.11494">
        <ele>194</ele>
        <time>2019-05-12T09:20:59.000Z</time>
      </trkpt>
      <trkpt lat="48.77834" lon="2.11476">
        <ele>193</ele>
        <time>2019-05-12T09:21:14.000Z</time>
      </trkpt>
      <trkpt lat="48.77834" lon="2.11473">
        <ele>193</ele>
        <time>2019-05-12T09:21:30.000Z</time>
      </trkpt>
      <trkpt lat="48.77834" lon="2.11471">
        <ele>193</ele>
        <time>2019-05-12T09:21:31.000Z</time>
      </trkpt>
      <trkpt lat="48.77835" lon="2.11468">
        <ele>193</ele>
        <time>2019-05-12T09:21:35.000Z</time>
      </trkpt>
      <trkpt lat="48.77835" lon="2.11467">
        <ele>193</ele>
        <time>2019-05-12T09:21:37.000Z</time>
      </trkpt>
      <trkpt lat="48.77835" lon="2.11459">
        <ele>193</ele>
        <time>2019-05-12T09:21:39.000Z</time>
      </trkpt>
      <trkpt lat="48.77836" lon="2.11452">
        <ele>193</ele>
        <time>2019-05-12T09:21:41.000Z</time>
      </trkpt>
      <trkpt lat="48.77838" lon="2.11426">
        <ele>192</ele>
        <time>2019-05-12T09:21:53.000Z</time>
      </trkpt>
      <trkpt lat="48.77838" lon="2.11426">
        <ele>192</ele>
        <time>2019-05-12T09:22:04.000Z</time>
      </trkpt>
      <trkpt lat="48.77839" lon="2.11425">
        <ele>192</ele>
        <time>2019-05-12T09:22:08.000Z</time>
      </trkpt>
      <trkpt lat="48.7784" lon="2.11419">
        <ele>192</ele>
        <time>2019-05-12T09:22:10.000Z</time>
      </trkpt>
      <trkpt lat="48.77842" lon="2.11411">
        <ele>192</ele>
        <time>2019-05-12T09:22:13.000Z</time>
      </trkpt>
      <trkpt lat="48.77845" lon="2.11401">
        <ele>192</ele>
        <time>2019-05-12T09:22:16.000Z</time>
      </trkpt>
      <trkpt lat="48.77847" lon="2.11393">
        <ele>192</ele>
        <time>2019-05-12T09:22:19.000Z</time>
      </trkpt>
      <trkpt lat="48.77849" lon="2.11387">
        <ele>192</ele>
        <time>2019-05-12T09:22:21.000Z</time>
      </trkpt>
      <trkpt lat="48.7785" lon="2.11382">
        <ele>192</ele>
        <time>2019-05-12T09:22:23.000Z</time>
      </trkpt>
      <trkpt lat="48.7785" lon="2.1138">
        <ele>192</ele>
        <time>2019-05-12T09:22:26.000Z</time>
      </trkpt>
      <trkpt lat="48.7785" lon="2.11379">
        <ele>192</ele>
        <time>2019-05-12T09:22:29.000Z</time>
      </trkpt>
      <trkpt lat="48.77852" lon="2.11372">
        <ele>192</ele>
        <time>2019-05-12T09:22:32.000Z</time>
      </trkpt>
      <trkpt lat="48.77853" lon="2.11367">
        <ele>192</ele>
        <time>2019-05-12T09:22:34.000Z</time>
      </trkpt>
      <trkpt lat="48.77854" lon="2.11362">
        <ele>192</ele>
        <time>2019-05-12T09:22:36.000Z</time>
      </trkpt>
      <trkpt lat="48.77855" lon="2.11355">
        <ele>192</ele>
        <time>2019-05-12T09:22:39.000Z</time>
      </trkpt>
      <trkpt lat="48.77855" lon="2.11353">
        <ele>191</ele>
        <time>2019-05-12T09:22:43.000Z</time>
      </trkpt>
      <trkpt lat="48.77856" lon="2.11351">
        <ele>191</ele>
        <time>2019-05-12T09:22:46.000Z</time>
      </trkpt>
      <trkpt lat="48.77858" lon="2.1134">
        <ele>191</ele>
        <time>2019-05-12T09:22:48.000Z</time>
      </trkpt>
      <trkpt lat="48.7786" lon="2.11325">
        <ele>191</ele>
        <time>2019-05-12T09:22:51.000Z</time>
      </trkpt>
      <trkpt lat="48.77868" lon="2.11305">
        <ele>191</ele>
        <time>2019-05-12T09:23:03.000Z</time>
      </trkpt>
      <trkpt lat="48.77874" lon="2.11297">
        <ele>191</ele>
        <time>2019-05-12T09:23:15.000Z</time>
      </trkpt>
      <trkpt lat="48.77886" lon="2.11284">
        <ele>191</ele>
        <time>2019-05-12T09:23:25.000Z</time>
      </trkpt>
      <trkpt lat="48.77894" lon="2.11281">
        <ele>191</ele>
        <time>2019-05-12T09:23:36.000Z</time>
      </trkpt>
      <trkpt lat="48.77895" lon="2.11278">
        <ele>191</ele>
        <time>2019-05-12T09:23:39.000Z</time>
      </trkpt>
      <trkpt lat="48.77897" lon="2.11273">
        <ele>191</ele>
        <time>2019-05-12T09:23:41.000Z</time>
      </trkpt>
      <trkpt lat="48.77899" lon="2.11268">
        <ele>191</ele>
        <time>2019-05-12T09:23:44.000Z</time>
      </trkpt>
      <trkpt lat="48.779" lon="2.11262">
        <ele>191</ele>
        <time>2019-05-12T09:23:47.000Z</time>
      </trkpt>
      <trkpt lat="48.77899" lon="2.11258">
        <ele>191</ele>
        <time>2019-05-12T09:23:51.000Z</time>
      </trkpt>
      <trkpt lat="48.77897" lon="2.11254">
        <ele>190</ele>
        <time>2019-05-12T09:23:55.000Z</time>
      </trkpt>
      <trkpt lat="48.77893" lon="2.1125">
        <ele>190</ele>
        <time>2019-05-12T09:23:59.000Z</time>
      </trkpt>
      <trkpt lat="48.7789" lon="2.11246">
        <ele>190</ele>
        <time>2019-05-12T09:24:03.000Z</time>
      </trkpt>
      <trkpt lat="48.77886" lon="2.11244">
        <ele>190</ele>
        <time>2019-05-12T09:24:07.000Z</time>
      </trkpt>
      <trkpt lat="48.77884" lon="2.11245">
        <ele>190</ele>
        <time>2019-05-12T09:24:11.000Z</time>
      </trkpt>
      <trkpt lat="48.77883" lon="2.11245">
        <ele>190</ele>
        <time>2019-05-12T09:24:12.000Z</time>
      </trkpt>
      <trkpt lat="48.77882" lon="2.11245">
        <ele>190</ele>
        <time>2019-05-12T09:24:12.000Z</time>
      </trkpt>
      <trkpt lat="48.77882" lon="2.11245">
        <ele>190</ele>
        <time>2019-05-12T09:24:13.000Z</time>
      </trkpt>
      <trkpt lat="48.77882" lon="2.11245">
        <ele>190</ele>
        <time>2019-05-12T09:24:14.000Z</time>
      </trkpt>
      <trkpt lat="48.77882" lon="2.11245">
        <ele>190</ele>
        <time>2019-05-12T09:24:15.000Z</time>
      </trkpt>
      <trkpt lat="48.77881" lon="2.11245">
        <ele>190</ele>
        <time>2019-05-12T09:24:15.000Z</time>
      </trkpt>
      <trkpt lat="48.77881" lon="2.11244">
        <ele>190</ele>
        <time>2019-05-12T09:24:16.000Z</time>
      </trkpt>
      <trkpt lat="48.77881" lon="2.11244">
        <ele>190</ele>
        <time>2019-05-12T09:24:17.000Z</time>
      </trkpt>
      <trkpt lat="48.7788" lon="2.11244">
        <ele>190</ele>
        <time>2019-05-12T09:24:17.000Z</time>
      </trkpt>
      <trkpt lat="48.7788" lon="2.11244">
        <ele>190</ele>
        <time>2019-05-12T09:24:18.000Z</time>
      </trkpt>
      <trkpt lat="48.7788" lon="2.11244">
        <ele>190</ele>
        <time>2019-05-12T09:24:18.000Z</time>
      </trkpt>
      <trkpt lat="48.77879" lon="2.11244">
        <ele>190</ele>
        <time>2019-05-12T09:24:19.000Z</time>
      </trkpt>
      <trkpt lat="48.77878" lon="2.11244">
        <ele>190</ele>
        <time>2019-05-12T09:24:19.000Z</time>
      </trkpt>
      <trkpt lat="48.77877" lon="2.11244">
        <ele>190</ele>
        <time>2019-05-12T09:24:20.000Z</time>
      </trkpt>
      <trkpt lat="48.77875" lon="2.11245">
        <ele>190</ele>
        <time>2019-05-12T09:24:20.000Z</time>
      </trkpt>
      <trkpt lat="48.77873" lon="2.11245">
        <ele>190</ele>
        <time>2019-05-12T09:24:21.000Z</time>
      </trkpt>
      <trkpt lat="48.77871" lon="2.11245">
        <ele>190</ele>
        <time>2019-05-12T09:24:21.000Z</time>
      </trkpt>
      <trkpt lat="48.7787" lon="2.11245">
        <ele>190</ele>
        <time>2019-05-12T09:24:22.000Z</time>
      </trkpt>
      <trkpt lat="48.77869" lon="2.11245">
        <ele>190</ele>
        <time>2019-05-12T09:24:23.000Z</time>
      </trkpt>
      <trkpt lat="48.77868" lon="2.11245">
        <ele>190</ele>
        <time>2019-05-12T09:24:24.000Z</time>
      </trkpt>
      <trkpt lat="48.77865" lon="2.11246">
        <ele>190</ele>
        <time>2019-05-12T09:24:26.000Z</time>
      </trkpt>
      <trkpt lat="48.77862" lon="2.11246">
        <ele>190</ele>
        <time>2019-05-12T09:24:29.000Z</time>
      </trkpt>
      <trkpt lat="48.77861" lon="2.11245">
        <ele>190</ele>
        <time>2019-05-12T09:24:42.000Z</time>
      </trkpt>
      <trkpt lat="48.77861" lon="2.11245">
        <ele>190</ele>
        <time>2019-05-12T09:24:56.000Z</time>
      </trkpt>
      <trkpt lat="48.77861" lon="2.11244">
        <ele>190</ele>
        <time>2019-05-12T09:25:09.000Z</time>
      </trkpt>
      <trkpt lat="48.77861" lon="2.11243">
        <ele>190</ele>
        <time>2019-05-12T09:25:23.000Z</time>
      </trkpt>
      <trkpt lat="48.77861" lon="2.11243">
        <ele>190</ele>
        <time>2019-05-12T09:25:23.000Z</time>
      </trkpt>
      <trkpt lat="48.77861" lon="2.11242">
        <ele>190</ele>
        <time>2019-05-12T09:25:23.000Z</time>
      </trkpt>
      <trkpt lat="48.77861" lon="2.11241">
        <ele>190</ele>
        <time>2019-05-12T09:25:23.000Z</time>
      </trkpt>
      <trkpt lat="48.77861" lon="2.11241">
        <ele>190</ele>
        <time>2019-05-12T09:25:24.000Z</time>
      </trkpt>
      <trkpt lat="48.77861" lon="2.1124">
        <ele>190</ele>
        <time>2019-05-12T09:25:24.000Z</time>
      </trkpt>
      <trkpt lat="48.77861" lon="2.11239">
        <ele>190</ele>
        <time>2019-05-12T09:25:25.000Z</time>
      </trkpt>
      <trkpt lat="48.77861" lon="2.11238">
        <ele>190</ele>
        <time>2019-05-12T09:25:25.000Z</time>
      </trkpt>
      <trkpt lat="48.77861" lon="2.11237">
        <ele>190</ele>
        <time>2019-05-12T09:25:26.000Z</time>
      </trkpt>
      <trkpt lat="48.7786" lon="2.11234">
        <ele>190</ele>
        <time>2019-05-12T09:25:26.000Z</time>
      </trkpt>
      <trkpt lat="48.7786" lon="2.11231">
        <ele>190</ele>
        <time>2019-05-12T09:25:27.000Z</time>
      </trkpt>
      <trkpt lat="48.77859" lon="2.11227">
        <ele>190</ele>
        <time>2019-05-12T09:25:27.000Z</time>
      </trkpt>
      <trkpt lat="48.77859" lon="2.11223">
        <ele>190</ele>
        <time>2019-05-12T09:25:28.000Z</time>
      </trkpt>
      <trkpt lat="48.77858" lon="2.1122">
        <ele>190</ele>
        <time>2019-05-12T09:25:28.000Z</time>
      </trkpt>
      <trkpt lat="48.77858" lon="2.11218">
        <ele>190</ele>
        <time>2019-05-12T09:25:29.000Z</time>
      </trkpt>
      <trkpt lat="48.77858" lon="2.11216">
        <ele>190</ele>
        <time>2019-05-12T09:25:29.000Z</time>
      </trkpt>
      <trkpt lat="48.77858" lon="2.11214">
        <ele>190</ele>
        <time>2019-05-12T09:25:30.000Z</time>
      </trkpt>
      <trkpt lat="48.77857" lon="2.11212">
        <ele>190</ele>
        <time>2019-05-12T09:25:31.000Z</time>
      </trkpt>
      <trkpt lat="48.77857" lon="2.11211">
        <ele>190</ele>
        <time>2019-05-12T09:25:31.000Z</time>
      </trkpt>
      <trkpt lat="48.77857" lon="2.11211">
        <ele>190</ele>
        <time>2019-05-12T09:25:32.000Z</time>
      </trkpt>
      <trkpt lat="48.77857" lon="2.1121">
        <ele>190</ele>
        <time>2019-05-12T09:25:33.000Z</time>
      </trkpt>
      <trkpt lat="48.77857" lon="2.11206">
        <ele>189</ele>
        <time>2019-05-12T09:25:36.000Z</time>
      </trkpt>
      <trkpt lat="48.77856" lon="2.11203">
        <ele>189</ele>
        <time>2019-05-12T09:25:38.000Z</time>
      </trkpt>
      <trkpt lat="48.77856" lon="2.11201">
        <ele>189</ele>
        <time>2019-05-12T09:25:41.000Z</time>
      </trkpt>
      <trkpt lat="48.77857" lon="2.112">
        <ele>189</ele>
        <time>2019-05-12T09:25:43.000Z</time>
      </trkpt>
      <trkpt lat="48.77858" lon="2.11188">
        <ele>189</ele>
        <time>2019-05-12T09:25:46.000Z</time>
      </trkpt>
      <trkpt lat="48.77858" lon="2.11176">
        <ele>189</ele>
        <time>2019-05-12T09:25:56.000Z</time>
      </trkpt>
      <trkpt lat="48.77858" lon="2.11165">
        <ele>189</ele>
        <time>2019-05-12T09:26:06.000Z</time>
      </trkpt>
      <trkpt lat="48.77856" lon="2.11163">
        <ele>189</ele>
        <time>2019-05-12T09:26:08.000Z</time>
      </trkpt>
      <trkpt lat="48.77855" lon="2.11162">
        <ele>189</ele>
        <time>2019-05-12T09:26:11.000Z</time>
      </trkpt>
      <trkpt lat="48.77853" lon="2.11161">
        <ele>189</ele>
        <time>2019-05-12T09:26:13.000Z</time>
      </trkpt>
      <trkpt lat="48.77851" lon="2.1116">
        <ele>189</ele>
        <time>2019-05-12T09:26:16.000Z</time>
      </trkpt>
      <trkpt lat="48.7785" lon="2.1116">
        <ele>189</ele>
        <time>2019-05-12T09:26:20.000Z</time>
      </trkpt>
      <trkpt lat="48.77848" lon="2.1116">
        <ele>189</ele>
        <time>2019-05-12T09:26:23.000Z</time>
      </trkpt>
      <trkpt lat="48.77846" lon="2.11161">
        <ele>189</ele>
        <time>2019-05-12T09:26:27.000Z</time>
      </trkpt>
      <trkpt lat="48.77845" lon="2.11162">
        <ele>189</ele>
        <time>2019-05-12T09:26:31.000Z</time>
      </trkpt>
      <trkpt lat="48.77844" lon="2.11162">
        <ele>189</ele>
        <time>2019-05-12T09:26:34.000Z</time>
      </trkpt>
      <trkpt lat="48.77844" lon="2.11162">
        <ele>189</ele>
        <time>2019-05-12T09:26:37.000Z</time>
      </trkpt>
      <trkpt lat="48.77844" lon="2.11162">
        <ele>189</ele>
        <time>2019-05-12T09:26:41.000Z</time>
      </trkpt>
      <trkpt lat="48.77844" lon="2.11162">
        <ele>189</ele>
        <time>2019-05-12T09:26:44.000Z</time>
      </trkpt>
      <trkpt lat="48.77844" lon="2.11162">
        <ele>189</ele>
        <time>2019-05-12T09:26:44.000Z</time>
      </trkpt>
      <trkpt lat="48.77844" lon="2.11162">
        <ele>189</ele>
        <time>2019-05-12T09:26:44.000Z</time>
      </trkpt>
      <trkpt lat="48.77844" lon="2.11162">
        <ele>189</ele>
        <time>2019-05-12T09:26:45.000Z</time>
      </trkpt>
      <trkpt lat="48.77844" lon="2.11162">
        <ele>189</ele>
        <time>2019-05-12T09:26:45.000Z</time>
      </trkpt>
      <trkpt lat="48.77844" lon="2.11161">
        <ele>189</ele>
        <time>2019-05-12T09:26:46.000Z</time>
      </trkpt>
      <trkpt lat="48.77842" lon="2.11159">
        <ele>189</ele>
        <time>2019-05-12T09:26:48.000Z</time>
      </trkpt>
      <trkpt lat="48.77841" lon="2.11158">
        <ele>189</ele>
        <time>2019-05-12T09:26:49.000Z</time>
      </trkpt>
      <trkpt lat="48.7784" lon="2.11156">
        <ele>189</ele>
        <time>2019-05-12T09:26:51.000Z</time>
      </trkpt>
      <trkpt lat="48.77839" lon="2.11154">
        <ele>189</ele>
        <time>2019-05-12T09:26:52.000Z</time>
      </trkpt>
      <trkpt lat="48.77837" lon="2.11151">
        <ele>189</ele>
        <time>2019-05-12T09:26:54.000Z</time>
      </trkpt>
      <trkpt lat="48.77836" lon="2.11149">
        <ele>189</ele>
        <time>2019-05-12T09:26:55.000Z</time>
      </trkpt>
      <trkpt lat="48.77834" lon="2.11146">
        <ele>189</ele>
        <time>2019-05-12T09:26:57.000Z</time>
      </trkpt>
      <trkpt lat="48.77832" lon="2.11141">
        <ele>189</ele>
        <time>2019-05-12T09:26:58.000Z</time>
      </trkpt>
      <trkpt lat="48.7783" lon="2.11136">
        <ele>189</ele>
        <time>2019-05-12T09:27:00.000Z</time>
      </trkpt>
      <trkpt lat="48.77828" lon="2.11131">
        <ele>189</ele>
        <time>2019-05-12T09:27:02.000Z</time>
      </trkpt>
      <trkpt lat="48.77826" lon="2.11125">
        <ele>189</ele>
        <time>2019-05-12T09:27:04.000Z</time>
      </trkpt>
      <trkpt lat="48.77824" lon="2.11119">
        <ele>189</ele>
        <time>2019-05-12T09:27:11.000Z</time>
      </trkpt>
      <trkpt lat="48.77822" lon="2.11112">
        <ele>189</ele>
        <time>2019-05-12T09:27:14.000Z</time>
      </trkpt>
      <trkpt lat="48.7782" lon="2.11105">
        <ele>189</ele>
        <time>2019-05-12T09:27:20.000Z</time>
      </trkpt>
      <trkpt lat="48.77819" lon="2.11098">
        <ele>189</ele>
        <time>2019-05-12T09:27:29.000Z</time>
      </trkpt>
      <trkpt lat="48.77818" lon="2.11097">
        <ele>189</ele>
        <time>2019-05-12T09:28:10.000Z</time>
      </trkpt>
      <trkpt lat="48.77817" lon="2.11096">
        <ele>189</ele>
        <time>2019-05-12T09:28:51.000Z</time>
      </trkpt>
      <trkpt lat="48.77817" lon="2.11096">
        <ele>189</ele>
        <time>2019-05-12T09:28:51.000Z</time>
      </trkpt>
      <trkpt lat="48.77816" lon="2.11096">
        <ele>189</ele>
        <time>2019-05-12T09:28:51.000Z</time>
      </trkpt>
      <trkpt lat="48.77816" lon="2.11095">
        <ele>189</ele>
        <time>2019-05-12T09:28:51.000Z</time>
      </trkpt>
      <trkpt lat="48.77816" lon="2.11095">
        <ele>189</ele>
        <time>2019-05-12T09:28:52.000Z</time>
      </trkpt>
      <trkpt lat="48.77815" lon="2.11094">
        <ele>189</ele>
        <time>2019-05-12T09:28:53.000Z</time>
      </trkpt>
      <trkpt lat="48.77814" lon="2.11093">
        <ele>189</ele>
        <time>2019-05-12T09:28:55.000Z</time>
      </trkpt>
      <trkpt lat="48.77813" lon="2.11091">
        <ele>189</ele>
        <time>2019-05-12T09:28:56.000Z</time>
      </trkpt>
      <trkpt lat="48.77811" lon="2.1109">
        <ele>189</ele>
        <time>2019-05-12T09:28:58.000Z</time>
      </trkpt>
      <trkpt lat="48.77811" lon="2.11088">
        <ele>189</ele>
        <time>2019-05-12T09:28:59.000Z</time>
      </trkpt>
      <trkpt lat="48.7781" lon="2.11087">
        <ele>189</ele>
        <time>2019-05-12T09:28:59.000Z</time>
      </trkpt>
      <trkpt lat="48.77808" lon="2.11085">
        <ele>189</ele>
        <time>2019-05-12T09:29:00.000Z</time>
      </trkpt>
      <trkpt lat="48.77807" lon="2.11084">
        <ele>189</ele>
        <time>2019-05-12T09:29:01.000Z</time>
      </trkpt>
      <trkpt lat="48.77805" lon="2.11081">
        <ele>189</ele>
        <time>2019-05-12T09:29:02.000Z</time>
      </trkpt>
      <trkpt lat="48.77803" lon="2.11078">
        <ele>189</ele>
        <time>2019-05-12T09:29:03.000Z</time>
      </trkpt>
      <trkpt lat="48.77801" lon="2.11074">
        <ele>189</ele>
        <time>2019-05-12T09:29:04.000Z</time>
      </trkpt>
      <trkpt lat="48.77799" lon="2.1107">
        <ele>189</ele>
        <time>2019-05-12T09:29:05.000Z</time>
      </trkpt>
      <trkpt lat="48.77796" lon="2.11066">
        <ele>189</ele>
        <time>2019-05-12T09:29:07.000Z</time>
      </trkpt>
      <trkpt lat="48.77794" lon="2.11061">
        <ele>189</ele>
        <time>2019-05-12T09:29:10.000Z</time>
      </trkpt>
      <trkpt lat="48.77792" lon="2.11056">
        <ele>189</ele>
        <time>2019-05-12T09:29:13.000Z</time>
      </trkpt>
      <trkpt lat="48.77789" lon="2.11052">
        <ele>189</ele>
        <time>2019-05-12T09:29:16.000Z</time>
      </trkpt>
      <trkpt lat="48.77782" lon="2.11029">
        <ele>189</ele>
        <time>2019-05-12T09:29:29.000Z</time>
      </trkpt>
      <trkpt lat="48.77776" lon="2.11008">
        <ele>189</ele>
        <time>2019-05-12T09:29:48.000Z</time>
      </trkpt>
      <trkpt lat="48.7777" lon="2.10991">
        <ele>189</ele>
        <time>2019-05-12T09:29:59.000Z</time>
      </trkpt>
      <trkpt lat="48.7777" lon="2.10987">
        <ele>189</ele>
        <time>2019-05-12T09:30:01.000Z</time>
      </trkpt>
      <trkpt lat="48.7777" lon="2.10982">
        <ele>189</ele>
        <time>2019-05-12T09:30:04.000Z</time>
      </trkpt>
      <trkpt lat="48.77771" lon="2.10977">
        <ele>189</ele>
        <time>2019-05-12T09:30:06.000Z</time>
      </trkpt>
      <trkpt lat="48.77772" lon="2.10972">
        <ele>189</ele>
        <time>2019-05-12T09:30:09.000Z</time>
      </trkpt>
      <trkpt lat="48.77772" lon="2.10969">
        <ele>189</ele>
        <time>2019-05-12T09:30:10.000Z</time>
      </trkpt>
      <trkpt lat="48.77773" lon="2.10967">
        <ele>189</ele>
        <time>2019-05-12T09:30:12.000Z</time>
      </trkpt>
      <trkpt lat="48.77773" lon="2.10965">
        <ele>189</ele>
        <time>2019-05-12T09:30:14.000Z</time>
      </trkpt>
      <trkpt lat="48.77774" lon="2.10964">
        <ele>189</ele>
        <time>2019-05-12T09:30:16.000Z</time>
      </trkpt>
      <trkpt lat="48.77774" lon="2.10963">
        <ele>189</ele>
        <time>2019-05-12T09:30:24.000Z</time>
      </trkpt>
      <trkpt lat="48.77774" lon="2.10962">
        <ele>189</ele>
        <time>2019-05-12T09:30:31.000Z</time>
      </trkpt>
      <trkpt lat="48.77775" lon="2.10961">
        <ele>189</ele>
        <time>2019-05-12T09:30:39.000Z</time>
      </trkpt>
      <trkpt lat="48.77775" lon="2.1096">
        <ele>189</ele>
        <time>2019-05-12T09:30:47.000Z</time>
      </trkpt>
      <trkpt lat="48.77775" lon="2.1096">
        <ele>189</ele>
        <time>2019-05-12T09:30:47.000Z</time>
      </trkpt>
      <trkpt lat="48.77776" lon="2.10959">
        <ele>189</ele>
        <time>2019-05-12T09:30:47.000Z</time>
      </trkpt>
      <trkpt lat="48.77776" lon="2.10958">
        <ele>189</ele>
        <time>2019-05-12T09:30:48.000Z</time>
      </trkpt>
      <trkpt lat="48.77776" lon="2.10958">
        <ele>189</ele>
        <time>2019-05-12T09:30:48.000Z</time>
      </trkpt>
      <trkpt lat="48.77777" lon="2.10956">
        <ele>189</ele>
        <time>2019-05-12T09:30:49.000Z</time>
      </trkpt>
      <trkpt lat="48.77778" lon="2.10954">
        <ele>189</ele>
        <time>2019-05-12T09:30:50.000Z</time>
      </trkpt>
      <trkpt lat="48.77779" lon="2.10951">
        <ele>189</ele>
        <time>2019-05-12T09:30:51.000Z</time>
      </trkpt>
      <trkpt lat="48.7778" lon="2.10948">
        <ele>189</ele>
        <time>2019-05-12T09:30:52.000Z</time>
      </trkpt>
      <trkpt lat="48.77782" lon="2.10944">
        <ele>189</ele>
        <time>2019-05-12T09:30:53.000Z</time>
      </trkpt>
      <trkpt lat="48.77784" lon="2.1094">
        <ele>189</ele>
        <time>2019-05-12T09:30:55.000Z</time>
      </trkpt>
      <trkpt lat="48.77786" lon="2.10936">
        <ele>189</ele>
        <time>2019-05-12T09:30:57.000Z</time>
      </trkpt>
      <trkpt lat="48.77789" lon="2.10931">
        <ele>189</ele>
        <time>2019-05-12T09:30:59.000Z</time>
      </trkpt>
      <trkpt lat="48.77794" lon="2.10921">
        <ele>189</ele>
        <time>2019-05-12T09:31:59.000Z</time>
      </trkpt>
      <trkpt lat="48.77796" lon="2.10916">
        <ele>189</ele>
        <time>2019-05-12T09:32:00.000Z</time>
      </trkpt>
      <trkpt lat="48.77797" lon="2.10909">
        <ele>189</ele>
        <time>2019-05-12T09:32:05.000Z</time>
      </trkpt>
      <trkpt lat="48.77797" lon="2.109">
        <ele>189</ele>
        <time>2019-05-12T09:32:10.000Z</time>
      </trkpt>
      <trkpt lat="48.77797" lon="2.10897">
        <ele>189</ele>
        <time>2019-05-12T09:32:15.000Z</time>
      </trkpt>
      <trkpt lat="48.77796" lon="2.10898">
        <ele>189</ele>
        <time>2019-05-12T09:32:21.000Z</time>
      </trkpt>
      <trkpt lat="48.77796" lon="2.10897">
        <ele>189</ele>
        <time>2019-05-12T09:32:21.000Z</time>
      </trkpt>
      <trkpt lat="48.77796" lon="2.10897">
        <ele>189</ele>
        <time>2019-05-12T09:32:21.000Z</time>
      </trkpt>
      <trkpt lat="48.77796" lon="2.10897">
        <ele>189</ele>
        <time>2019-05-12T09:32:22.000Z</time>
      </trkpt>
      <trkpt lat="48.77796" lon="2.10896">
        <ele>189</ele>
        <time>2019-05-12T09:32:22.000Z</time>
      </trkpt>
      <trkpt lat="48.77794" lon="2.10893">
        <ele>189</ele>
        <time>2019-05-12T09:32:26.000Z</time>
      </trkpt>
      <trkpt lat="48.77793" lon="2.10888">
        <ele>189</ele>
        <time>2019-05-12T09:32:29.000Z</time>
      </trkpt>
      <trkpt lat="48.77791" lon="2.10882">
        <ele>189</ele>
        <time>2019-05-12T09:32:33.000Z</time>
      </trkpt>
      <trkpt lat="48.77788" lon="2.10876">
        <ele>189</ele>
        <time>2019-05-12T09:32:37.000Z</time>
      </trkpt>
      <trkpt lat="48.77787" lon="2.10873">
        <ele>188</ele>
        <time>2019-05-12T09:32:39.000Z</time>
      </trkpt>
      <trkpt lat="48.77787" lon="2.10871">
        <ele>188</ele>
        <time>2019-05-12T09:32:42.000Z</time>
      </trkpt>
      <trkpt lat="48.77787" lon="2.1087">
        <ele>188</ele>
        <time>2019-05-12T09:32:44.000Z</time>
      </trkpt>
      <trkpt lat="48.77787" lon="2.10869">
        <ele>188</ele>
        <time>2019-05-12T09:32:47.000Z</time>
      </trkpt>
      <trkpt lat="48.77787" lon="2.10868">
        <ele>188</ele>
        <time>2019-05-12T09:32:54.000Z</time>
      </trkpt>
      <trkpt lat="48.77786" lon="2.10867">
        <ele>188</ele>
        <time>2019-05-12T09:33:01.000Z</time>
      </trkpt>
      <trkpt lat="48.77786" lon="2.10866">
        <ele>188</ele>
        <time>2019-05-12T09:33:09.000Z</time>
      </trkpt>
      <trkpt lat="48.77786" lon="2.10864">
        <ele>188</ele>
        <time>2019-05-12T09:33:16.000Z</time>
      </trkpt>
      <trkpt lat="48.77786" lon="2.10863">
        <ele>188</ele>
        <time>2019-05-12T09:33:16.000Z</time>
      </trkpt>
      <trkpt lat="48.77786" lon="2.10862">
        <ele>188</ele>
        <time>2019-05-12T09:33:16.000Z</time>
      </trkpt>
      <trkpt lat="48.77786" lon="2.10862">
        <ele>188</ele>
        <time>2019-05-12T09:33:17.000Z</time>
      </trkpt>
      <trkpt lat="48.77786" lon="2.10861">
        <ele>188</ele>
        <time>2019-05-12T09:33:17.000Z</time>
      </trkpt>
      <trkpt lat="48.77784" lon="2.10849">
        <ele>188</ele>
        <time>2019-05-12T09:33:25.000Z</time>
      </trkpt>
      <trkpt lat="48.77784" lon="2.10839">
        <ele>188</ele>
        <time>2019-05-12T09:33:29.000Z</time>
      </trkpt>
      <trkpt lat="48.77783" lon="2.10836">
        <ele>188</ele>
        <time>2019-05-12T09:33:30.000Z</time>
      </trkpt>
      <trkpt lat="48.77783" lon="2.10825">
        <ele>188</ele>
        <time>2019-05-12T09:33:40.000Z</time>
      </trkpt>
      <trkpt lat="48.77783" lon="2.10822">
        <ele>188</ele>
        <time>2019-05-12T09:33:48.000Z</time>
      </trkpt>
      <trkpt lat="48.77783" lon="2.1082">
        <ele>188</ele>
        <time>2019-05-12T09:33:49.000Z</time>
      </trkpt>
      <trkpt lat="48.77785" lon="2.10812">
        <ele>188</ele>
        <time>2019-05-12T09:33:52.000Z</time>
      </trkpt>
      <trkpt lat="48.77785" lon="2.1081">
        <ele>188</ele>
        <time>2019-05-12T09:34:07.000Z</time>
      </trkpt>
      <trkpt lat="48.77785" lon="2.10809">
        <ele>188</ele>
        <time>2019-05-12T09:34:08.000Z</time>
      </trkpt>
      <trkpt lat="48.77786" lon="2.10801">
        <ele>188</ele>
        <time>2019-05-12T09:34:10.000Z</time>
      </trkpt>
      <trkpt lat="48.77787" lon="2.10783">
        <ele>188</ele>
        <time>2019-05-12T09:34:13.000Z</time>
      </trkpt>
      <trkpt lat="48.77787" lon="2.10772">
        <ele>188</ele>
        <time>2019-05-12T09:34:18.000Z</time>
      </trkpt>
      <trkpt lat="48.77786" lon="2.10761">
        <ele>188</ele>
        <time>2019-05-12T09:34:25.000Z</time>
      </trkpt>
      <trkpt lat="48.77786" lon="2.1076">
        <ele>188</ele>
        <time>2019-05-12T09:34:28.000Z</time>
      </trkpt>
      <trkpt lat="48.77786" lon="2.10756">
        <ele>188</ele>
        <time>2019-05-12T09:34:30.000Z</time>
      </trkpt>
      <trkpt lat="48.77786" lon="2.10755">
        <ele>188</ele>
        <time>2019-05-12T09:34:33.000Z</time>
      </trkpt>
      <trkpt lat="48.77784" lon="2.10754">
        <ele>188</ele>
        <time>2019-05-12T09:34:36.000Z</time>
      </trkpt>
      <trkpt lat="48.77784" lon="2.10753">
        <ele>188</ele>
        <time>2019-05-12T09:34:39.000Z</time>
      </trkpt>
      <trkpt lat="48.77782" lon="2.10752">
        <ele>188</ele>
        <time>2019-05-12T09:34:42.000Z</time>
      </trkpt>
      <trkpt lat="48.77782" lon="2.10752">
        <ele>188</ele>
        <time>2019-05-12T09:34:42.000Z</time>
      </trkpt>
      <trkpt lat="48.77781" lon="2.10751">
        <ele>188</ele>
        <time>2019-05-12T09:34:42.000Z</time>
      </trkpt>
      <trkpt lat="48.77781" lon="2.10751">
        <ele>188</ele>
        <time>2019-05-12T09:34:42.000Z</time>
      </trkpt>
      <trkpt lat="48.77781" lon="2.1075">
        <ele>188</ele>
        <time>2019-05-12T09:34:43.000Z</time>
      </trkpt>
      <trkpt lat="48.77779" lon="2.1075">
        <ele>188</ele>
        <time>2019-05-12T09:34:44.000Z</time>
      </trkpt>
      <trkpt lat="48.77778" lon="2.10749">
        <ele>188</ele>
        <time>2019-05-12T09:34:45.000Z</time>
      </trkpt>
      <trkpt lat="48.77777" lon="2.10748">
        <ele>188</ele>
        <time>2019-05-12T09:34:47.000Z</time>
      </trkpt>
      <trkpt lat="48.77775" lon="2.10747">
        <ele>188</ele>
        <time>2019-05-12T09:34:48.000Z</time>
      </trkpt>
      <trkpt lat="48.77774" lon="2.10746">
        <ele>188</ele>
        <time>2019-05-12T09:35:04.000Z</time>
      </trkpt>
      <trkpt lat="48.77774" lon="2.10747">
        <ele>187</ele>
        <time>2019-05-12T09:35:20.000Z</time>
      </trkpt>
      <trkpt lat="48.77774" lon="2.10747">
        <ele>187</ele>
        <time>2019-05-12T09:35:36.000Z</time>
      </trkpt>
      <trkpt lat="48.77773" lon="2.10747">
        <ele>187</ele>
        <time>2019-05-12T09:35:52.000Z</time>
      </trkpt>
      <trkpt lat="48.77773" lon="2.10748">
        <ele>187</ele>
        <time>2019-05-12T09:35:52.000Z</time>
      </trkpt>
      <trkpt lat="48.77773" lon="2.10748">
        <ele>187</ele>
        <time>2019-05-12T09:35:52.000Z</time>
      </trkpt>
      <trkpt lat="48.77773" lon="2.10748">
        <ele>187</ele>
        <time>2019-05-12T09:35:52.000Z</time>
      </trkpt>
      <trkpt lat="48.77772" lon="2.10748">
        <ele>187</ele>
        <time>2019-05-12T09:35:53.000Z</time>
      </trkpt>
      <trkpt lat="48.77772" lon="2.10748">
        <ele>187</ele>
        <time>2019-05-12T09:35:53.000Z</time>
      </trkpt>
      <trkpt lat="48.77771" lon="2.10748">
        <ele>187</ele>
        <time>2019-05-12T09:35:54.000Z</time>
      </trkpt>
      <trkpt lat="48.77771" lon="2.10749">
        <ele>187</ele>
        <time>2019-05-12T09:35:54.000Z</time>
      </trkpt>
      <trkpt lat="48.7777" lon="2.10749">
        <ele>187</ele>
        <time>2019-05-12T09:35:55.000Z</time>
      </trkpt>
      <trkpt lat="48.7777" lon="2.10749">
        <ele>187</ele>
        <time>2019-05-12T09:35:55.000Z</time>
      </trkpt>
      <trkpt lat="48.77769" lon="2.10749">
        <ele>187</ele>
        <time>2019-05-12T09:35:56.000Z</time>
      </trkpt>
      <trkpt lat="48.77768" lon="2.1075">
        <ele>187</ele>
        <time>2019-05-12T09:35:56.000Z</time>
      </trkpt>
      <trkpt lat="48.77767" lon="2.1075">
        <ele>187</ele>
        <time>2019-05-12T09:35:57.000Z</time>
      </trkpt>
      <trkpt lat="48.77766" lon="2.1075">
        <ele>187</ele>
        <time>2019-05-12T09:35:57.000Z</time>
      </trkpt>
      <trkpt lat="48.77765" lon="2.10751">
        <ele>187</ele>
        <time>2019-05-12T09:35:58.000Z</time>
      </trkpt>
      <trkpt lat="48.77764" lon="2.10751">
        <ele>187</ele>
        <time>2019-05-12T09:35:59.000Z</time>
      </trkpt>
      <trkpt lat="48.77763" lon="2.10751">
        <ele>187</ele>
        <time>2019-05-12T09:36:00.000Z</time>
      </trkpt>
      <trkpt lat="48.77763" lon="2.10751">
        <ele>187</ele>
        <time>2019-05-12T09:36:05.000Z</time>
      </trkpt>
      <trkpt lat="48.77762" lon="2.10751">
        <ele>187</ele>
        <time>2019-05-12T09:36:10.000Z</time>
      </trkpt>
      <trkpt lat="48.77762" lon="2.10752">
        <ele>187</ele>
        <time>2019-05-12T09:36:15.000Z</time>
      </trkpt>
      <trkpt lat="48.77761" lon="2.10752">
        <ele>187</ele>
        <time>2019-05-12T09:36:21.000Z</time>
      </trkpt>
      <trkpt lat="48.7776" lon="2.10753">
        <ele>187</ele>
        <time>2019-05-12T09:36:22.000Z</time>
      </trkpt>
      <trkpt lat="48.77756" lon="2.10755">
        <ele>187</ele>
        <time>2019-05-12T09:36:24.000Z</time>
      </trkpt>
      <trkpt lat="48.7775" lon="2.10761">
        <ele>187</ele>
        <time>2019-05-12T09:36:31.000Z</time>
      </trkpt>
      <trkpt lat="48.77748" lon="2.10761">
        <ele>187</ele>
        <time>2019-05-12T09:36:35.000Z</time>
      </trkpt>
      <trkpt lat="48.77743" lon="2.10759">
        <ele>186</ele>
        <time>2019-05-12T09:36:42.000Z</time>
      </trkpt>
      <trkpt lat="48.77743" lon="2.10759">
        <ele>186</ele>
        <time>2019-05-12T09:36:44.000Z</time>
      </trkpt>
      <trkpt lat="48.77742" lon="2.10757">
        <ele>186</ele>
        <time>2019-05-12T09:36:46.000Z</time>
      </trkpt>
      <trkpt lat="48.77742" lon="2.10756">
        <ele>186</ele>
        <time>2019-05-12T09:36:48.000Z</time>
      </trkpt>
      <trkpt lat="48.77741" lon="2.10755">
        <ele>186</ele>
        <time>2019-05-12T09:36:50.000Z</time>
      </trkpt>
      <trkpt lat="48.77741" lon="2.10753">
        <ele>186</ele>
        <time>2019-05-12T09:36:58.000Z</time>
      </trkpt>
      <trkpt lat="48.77741" lon="2.10752">
        <ele>186</ele>
        <time>2019-05-12T09:37:06.000Z</time>
      </trkpt>
      <trkpt lat="48.7774" lon="2.10751">
        <ele>186</ele>
        <time>2019-05-12T09:37:14.000Z</time>
      </trkpt>
      <trkpt lat="48.77739" lon="2.10749">
        <ele>186</ele>
        <time>2019-05-12T09:37:22.000Z</time>
      </trkpt>
      <trkpt lat="48.77739" lon="2.10748">
        <ele>186</ele>
        <time>2019-05-12T09:37:22.000Z</time>
      </trkpt>
      <trkpt lat="48.77739" lon="2.10747">
        <ele>186</ele>
        <time>2019-05-12T09:37:22.000Z</time>
      </trkpt>
      <trkpt lat="48.77738" lon="2.10746">
        <ele>186</ele>
        <time>2019-05-12T09:37:22.000Z</time>
      </trkpt>
      <trkpt lat="48.77738" lon="2.10745">
        <ele>186</ele>
        <time>2019-05-12T09:37:23.000Z</time>
      </trkpt>
      <trkpt lat="48.77737" lon="2.10743">
        <ele>186</ele>
        <time>2019-05-12T09:37:23.000Z</time>
      </trkpt>
      <trkpt lat="48.77737" lon="2.10741">
        <ele>186</ele>
        <time>2019-05-12T09:37:24.000Z</time>
      </trkpt>
      <trkpt lat="48.77736" lon="2.10738">
        <ele>186</ele>
        <time>2019-05-12T09:37:24.000Z</time>
      </trkpt>
      <trkpt lat="48.77735" lon="2.10735">
        <ele>186</ele>
        <time>2019-05-12T09:37:25.000Z</time>
      </trkpt>
      <trkpt lat="48.77734" lon="2.10733">
        <ele>186</ele>
        <time>2019-05-12T09:37:25.000Z</time>
      </trkpt>
      <trkpt lat="48.77733" lon="2.10731">
        <ele>186</ele>
        <time>2019-05-12T09:37:26.000Z</time>
      </trkpt>
      <trkpt lat="48.77733" lon="2.10728">
        <ele>186</ele>
        <time>2019-05-12T09:37:26.000Z</time>
      </trkpt>
      <trkpt lat="48.77732" lon="2.10726">
        <ele>186</ele>
        <time>2019-05-12T09:37:27.000Z</time>
      </trkpt>
      <trkpt lat="48.77732" lon="2.10724">
        <ele>186</ele>
        <time>2019-05-12T09:37:27.000Z</time>
      </trkpt>
      <trkpt lat="48.77731" lon="2.10722">
        <ele>186</ele>
        <time>2019-05-12T09:37:28.000Z</time>
      </trkpt>
      <trkpt lat="48.77731" lon="2.10721">
        <ele>186</ele>
        <time>2019-05-12T09:37:28.000Z</time>
      </trkpt>
      <trkpt lat="48.7773" lon="2.10719">
        <ele>186</ele>
        <time>2019-05-12T09:37:29.000Z</time>
      </trkpt>
      <trkpt lat="48.77728" lon="2.10712">
        <ele>186</ele>
        <time>2019-05-12T09:37:32.000Z</time>
      </trkpt>
      <trkpt lat="48.77727" lon="2.10708">
        <ele>185</ele>
        <time>2019-05-12T09:37:34.000Z</time>
      </trkpt>
      <trkpt lat="48.77728" lon="2.10707">
        <ele>185</ele>
        <time>2019-05-12T09:37:54.000Z</time>
      </trkpt>
      <trkpt lat="48.77728" lon="2.10705">
        <ele>185</ele>
        <time>2019-05-12T09:38:15.000Z</time>
      </trkpt>
      <trkpt lat="48.77728" lon="2.10705">
        <ele>185</ele>
        <time>2019-05-12T09:38:15.000Z</time>
      </trkpt>
      <trkpt lat="48.77728" lon="2.10704">
        <ele>185</ele>
        <time>2019-05-12T09:38:15.000Z</time>
      </trkpt>
      <trkpt lat="48.77728" lon="2.10704">
        <ele>185</ele>
        <time>2019-05-12T09:38:15.000Z</time>
      </trkpt>
      <trkpt lat="48.77728" lon="2.10704">
        <ele>185</ele>
        <time>2019-05-12T09:38:16.000Z</time>
      </trkpt>
      <trkpt lat="48.77728" lon="2.10703">
        <ele>185</ele>
        <time>2019-05-12T09:38:17.000Z</time>
      </trkpt>
      <trkpt lat="48.77728" lon="2.10703">
        <ele>185</ele>
        <time>2019-05-12T09:38:18.000Z</time>
      </trkpt>
      <trkpt lat="48.77728" lon="2.10702">
        <ele>185</ele>
        <time>2019-05-12T09:38:19.000Z</time>
      </trkpt>
      <trkpt lat="48.77729" lon="2.10701">
        <ele>185</ele>
        <time>2019-05-12T09:38:20.000Z</time>
      </trkpt>
      <trkpt lat="48.77729" lon="2.10701">
        <ele>185</ele>
        <time>2019-05-12T09:38:21.000Z</time>
      </trkpt>
      <trkpt lat="48.77729" lon="2.10701">
        <ele>185</ele>
        <time>2019-05-12T09:38:23.000Z</time>
      </trkpt>
      <trkpt lat="48.77729" lon="2.10701">
        <ele>185</ele>
        <time>2019-05-12T09:38:25.000Z</time>
      </trkpt>
      <trkpt lat="48.77729" lon="2.10701">
        <ele>185</ele>
        <time>2019-05-12T09:38:27.000Z</time>
      </trkpt>
      <trkpt lat="48.77729" lon="2.10701">
        <ele>185</ele>
        <time>2019-05-12T09:38:27.000Z</time>
      </trkpt>
      <trkpt lat="48.77729" lon="2.10701">
        <ele>185</ele>
        <time>2019-05-12T09:38:27.000Z</time>
      </trkpt>
      <trkpt lat="48.77729" lon="2.107">
        <ele>185</ele>
        <time>2019-05-12T09:38:27.000Z</time>
      </trkpt>
      <trkpt lat="48.77729" lon="2.107">
        <ele>185</ele>
        <time>2019-05-12T09:38:28.000Z</time>
      </trkpt>
      <trkpt lat="48.77729" lon="2.107">
        <ele>185</ele>
        <time>2019-05-12T09:38:28.000Z</time>
      </trkpt>
      <trkpt lat="48.77729" lon="2.107">
        <ele>185</ele>
        <time>2019-05-12T09:38:29.000Z</time>
      </trkpt>
      <trkpt lat="48.77729" lon="2.10699">
        <ele>185</ele>
        <time>2019-05-12T09:38:29.000Z</time>
      </trkpt>
      <trkpt lat="48.77729" lon="2.10699">
        <ele>185</ele>
        <time>2019-05-12T09:38:30.000Z</time>
      </trkpt>
      <trkpt lat="48.7773" lon="2.10688">
        <ele>185</ele>
        <time>2019-05-12T09:38:32.000Z</time>
      </trkpt>
      <trkpt lat="48.7773" lon="2.10677">
        <ele>185</ele>
        <time>2019-05-12T09:38:36.000Z</time>
      </trkpt>
      <trkpt lat="48.77728" lon="2.10668">
        <ele>185</ele>
        <time>2019-05-12T09:38:48.000Z</time>
      </trkpt>
      <trkpt lat="48.77726" lon="2.10666">
        <ele>185</ele>
        <time>2019-05-12T09:38:57.000Z</time>
      </trkpt>
      <trkpt lat="48.77724" lon="2.10662">
        <ele>185</ele>
        <time>2019-05-12T09:39:00.000Z</time>
      </trkpt>
      <trkpt lat="48.77719" lon="2.10657">
        <ele>185</ele>
        <time>2019-05-12T09:39:04.000Z</time>
      </trkpt>
      <trkpt lat="48.77715" lon="2.1065">
        <ele>185</ele>
        <time>2019-05-12T09:39:06.000Z</time>
      </trkpt>
      <trkpt lat="48.7771" lon="2.1064">
        <ele>185</ele>
        <time>2019-05-12T09:39:09.000Z</time>
      </trkpt>
      <trkpt lat="48.77707" lon="2.10631">
        <ele>185</ele>
        <time>2019-05-12T09:39:16.000Z</time>
      </trkpt>
      <trkpt lat="48.77704" lon="2.10626">
        <ele>185</ele>
        <time>2019-05-12T09:39:22.000Z</time>
      </trkpt>
      <trkpt lat="48.777" lon="2.10618">
        <ele>185</ele>
        <time>2019-05-12T09:39:25.000Z</time>
      </trkpt>
      <trkpt lat="48.77694" lon="2.10608">
        <ele>185</ele>
        <time>2019-05-12T09:39:27.000Z</time>
      </trkpt>
      <trkpt lat="48.77687" lon="2.10602">
        <ele>185</ele>
        <time>2019-05-12T09:39:33.000Z</time>
      </trkpt>
      <trkpt lat="48.77683" lon="2.10596">
        <ele>185</ele>
        <time>2019-05-12T09:39:52.000Z</time>
      </trkpt>
      <trkpt lat="48.77683" lon="2.10595">
        <ele>185</ele>
        <time>2019-05-12T09:39:55.000Z</time>
      </trkpt>
      <trkpt lat="48.7768" lon="2.10586">
        <ele>185</ele>
        <time>2019-05-12T09:39:57.000Z</time>
      </trkpt>
      <trkpt lat="48.77677" lon="2.10566">
        <ele>185</ele>
        <time>2019-05-12T09:40:01.000Z</time>
      </trkpt>
      <trkpt lat="48.77678" lon="2.10558">
        <ele>185</ele>
        <time>2019-05-12T09:40:10.000Z</time>
      </trkpt>
      <trkpt lat="48.7768" lon="2.10551">
        <ele>185</ele>
        <time>2019-05-12T09:40:20.000Z</time>
      </trkpt>
      <trkpt lat="48.7768" lon="2.10549">
        <ele>185</ele>
        <time>2019-05-12T09:40:22.000Z</time>
      </trkpt>
      <trkpt lat="48.7768" lon="2.10549">
        <ele>185</ele>
        <time>2019-05-12T09:40:25.000Z</time>
      </trkpt>
      <trkpt lat="48.7768" lon="2.10549">
        <ele>185</ele>
        <time>2019-05-12T09:40:27.000Z</time>
      </trkpt>
      <trkpt lat="48.77679" lon="2.10549">
        <ele>185</ele>
        <time>2019-05-12T09:40:30.000Z</time>
      </trkpt>
      <trkpt lat="48.77679" lon="2.10549">
        <ele>185</ele>
        <time>2019-05-12T09:40:30.000Z</time>
      </trkpt>
      <trkpt lat="48.77679" lon="2.10549">
        <ele>185</ele>
        <time>2019-05-12T09:40:30.000Z</time>
      </trkpt>
      <trkpt lat="48.77679" lon="2.10548">
        <ele>185</ele>
        <time>2019-05-12T09:40:31.000Z</time>
      </trkpt>
      <trkpt lat="48.77679" lon="2.10548">
        <ele>185</ele>
        <time>2019-05-12T09:40:31.000Z</time>
      </trkpt>
      <trkpt lat="48.77679" lon="2.10546">
        <ele>185</ele>
        <time>2019-05-12T09:40:31.000Z</time>
      </trkpt>
      <trkpt lat="48.77679" lon="2.10543">
        <ele>185</ele>
        <time>2019-05-12T09:40:32.000Z</time>
      </trkpt>
      <trkpt lat="48.77679" lon="2.1054">
        <ele>185</ele>
        <time>2019-05-12T09:40:32.000Z</time>
      </trkpt>
      <trkpt lat="48.77678" lon="2.10536">
        <ele>185</ele>
        <time>2019-05-12T09:40:33.000Z</time>
      </trkpt>
      <trkpt lat="48.77678" lon="2.10534">
        <ele>185</ele>
        <time>2019-05-12T09:40:34.000Z</time>
      </trkpt>
      <trkpt lat="48.77679" lon="2.10531">
        <ele>185</ele>
        <time>2019-05-12T09:40:35.000Z</time>
      </trkpt>
      <trkpt lat="48.77679" lon="2.10528">
        <ele>185</ele>
        <time>2019-05-12T09:40:37.000Z</time>
      </trkpt>
      <trkpt lat="48.77679" lon="2.10525">
        <ele>185</ele>
        <time>2019-05-12T09:40:38.000Z</time>
      </trkpt>
      <trkpt lat="48.77679" lon="2.10522">
        <ele>185</ele>
        <time>2019-05-12T09:40:40.000Z</time>
      </trkpt>
      <trkpt lat="48.7768" lon="2.10518">
        <ele>185</ele>
        <time>2019-05-12T09:40:41.000Z</time>
      </trkpt>
      <trkpt lat="48.7768" lon="2.10514">
        <ele>185</ele>
        <time>2019-05-12T09:40:43.000Z</time>
      </trkpt>
      <trkpt lat="48.77681" lon="2.1051">
        <ele>185</ele>
        <time>2019-05-12T09:40:45.000Z</time>
      </trkpt>
      <trkpt lat="48.77681" lon="2.10499">
        <ele>185</ele>
        <time>2019-05-12T09:40:55.000Z</time>
      </trkpt>
      <trkpt lat="48.77683" lon="2.10495">
        <ele>185</ele>
        <time>2019-05-12T09:40:59.000Z</time>
      </trkpt>
      <trkpt lat="48.77684" lon="2.10491">
        <ele>185</ele>
        <time>2019-05-12T09:41:03.000Z</time>
      </trkpt>
      <trkpt lat="48.77686" lon="2.10488">
        <ele>185</ele>
        <time>2019-05-12T09:41:04.000Z</time>
      </trkpt>
      <trkpt lat="48.77688" lon="2.10485">
        <ele>185</ele>
        <time>2019-05-12T09:41:04.000Z</time>
      </trkpt>
      <trkpt lat="48.77689" lon="2.1048">
        <ele>185</ele>
        <time>2019-05-12T09:41:05.000Z</time>
      </trkpt>
      <trkpt lat="48.77691" lon="2.10476">
        <ele>185</ele>
        <time>2019-05-12T09:41:06.000Z</time>
      </trkpt>
      <trkpt lat="48.77691" lon="2.10469">
        <ele>185</ele>
        <time>2019-05-12T09:41:12.000Z</time>
      </trkpt>
      <trkpt lat="48.77691" lon="2.10463">
        <ele>185</ele>
        <time>2019-05-12T09:41:18.000Z</time>
      </trkpt>
      <trkpt lat="48.77691" lon="2.10459">
        <ele>185</ele>
        <time>2019-05-12T09:41:21.000Z</time>
      </trkpt>
      <trkpt lat="48.77691" lon="2.10455">
        <ele>185</ele>
        <time>2019-05-12T09:41:24.000Z</time>
      </trkpt>
      <trkpt lat="48.77691" lon="2.1045">
        <ele>185</ele>
        <time>2019-05-12T09:41:27.000Z</time>
      </trkpt>
      <trkpt lat="48.77691" lon="2.10446">
        <ele>185</ele>
        <time>2019-05-12T09:41:30.000Z</time>
      </trkpt>
      <trkpt lat="48.77691" lon="2.10444">
        <ele>185</ele>
        <time>2019-05-12T09:41:31.000Z</time>
      </trkpt>
      <trkpt lat="48.77692" lon="2.10443">
        <ele>185</ele>
        <time>2019-05-12T09:41:32.000Z</time>
      </trkpt>
      <trkpt lat="48.77692" lon="2.10443">
        <ele>185</ele>
        <time>2019-05-12T09:41:33.000Z</time>
      </trkpt>
      <trkpt lat="48.77692" lon="2.10443">
        <ele>185</ele>
        <time>2019-05-12T09:41:35.000Z</time>
      </trkpt>
      <trkpt lat="48.77692" lon="2.10441">
        <ele>185</ele>
        <time>2019-05-12T09:41:35.000Z</time>
      </trkpt>
      <trkpt lat="48.77692" lon="2.10438">
        <ele>185</ele>
        <time>2019-05-12T09:41:36.000Z</time>
      </trkpt>
      <trkpt lat="48.77692" lon="2.10434">
        <ele>185</ele>
        <time>2019-05-12T09:41:36.000Z</time>
      </trkpt>
      <trkpt lat="48.77693" lon="2.10431">
        <ele>185</ele>
        <time>2019-05-12T09:41:37.000Z</time>
      </trkpt>
      <trkpt lat="48.77693" lon="2.10427">
        <ele>185</ele>
        <time>2019-05-12T09:41:39.000Z</time>
      </trkpt>
      <trkpt lat="48.77693" lon="2.10422">
        <ele>185</ele>
        <time>2019-05-12T09:41:42.000Z</time>
      </trkpt>
      <trkpt lat="48.77694" lon="2.10417">
        <ele>185</ele>
        <time>2019-05-12T09:41:44.000Z</time>
      </trkpt>
      <trkpt lat="48.77694" lon="2.10413">
        <ele>185</ele>
        <time>2019-05-12T09:41:47.000Z</time>
      </trkpt>
      <trkpt lat="48.77696" lon="2.1041">
        <ele>185</ele>
        <time>2019-05-12T09:41:50.000Z</time>
      </trkpt>
      <trkpt lat="48.77697" lon="2.10409">
        <ele>185</ele>
        <time>2019-05-12T09:41:54.000Z</time>
      </trkpt>
      <trkpt lat="48.77698" lon="2.10408">
        <ele>185</ele>
        <time>2019-05-12T09:41:55.000Z</time>
      </trkpt>
      <trkpt lat="48.77699" lon="2.10405">
        <ele>185</ele>
        <time>2019-05-12T09:41:56.000Z</time>
      </trkpt>
      <trkpt lat="48.777" lon="2.10403">
        <ele>185</ele>
        <time>2019-05-12T09:41:58.000Z</time>
      </trkpt>
      <trkpt lat="48.77701" lon="2.104">
        <ele>185</ele>
        <time>2019-05-12T09:41:59.000Z</time>
      </trkpt>
      <trkpt lat="48.77702" lon="2.10399">
        <ele>185</ele>
        <time>2019-05-12T09:41:59.000Z</time>
      </trkpt>
      <trkpt lat="48.77702" lon="2.10398">
        <ele>185</ele>
        <time>2019-05-12T09:41:59.000Z</time>
      </trkpt>
      <trkpt lat="48.77703" lon="2.10397">
        <ele>185</ele>
        <time>2019-05-12T09:42:00.000Z</time>
      </trkpt>
      <trkpt lat="48.77703" lon="2.10397">
        <ele>185</ele>
        <time>2019-05-12T09:42:00.000Z</time>
      </trkpt>
      <trkpt lat="48.77703" lon="2.10389">
        <ele>185</ele>
        <time>2019-05-12T09:42:08.000Z</time>
      </trkpt>
      <trkpt lat="48.77703" lon="2.10379">
        <ele>185</ele>
        <time>2019-05-12T09:42:16.000Z</time>
      </trkpt>
      <trkpt lat="48.77703" lon="2.10377">
        <ele>185</ele>
        <time>2019-05-12T09:42:17.000Z</time>
      </trkpt>
      <trkpt lat="48.77703" lon="2.10377">
        <ele>185</ele>
        <time>2019-05-12T09:42:19.000Z</time>
      </trkpt>
      <trkpt lat="48.77703" lon="2.10377">
        <ele>185</ele>
        <time>2019-05-12T09:42:20.000Z</time>
      </trkpt>
      <trkpt lat="48.77703" lon="2.10378">
        <ele>185</ele>
        <time>2019-05-12T09:42:22.000Z</time>
      </trkpt>
      <trkpt lat="48.77703" lon="2.10378">
        <ele>185</ele>
        <time>2019-05-12T09:42:22.000Z</time>
      </trkpt>
      <trkpt lat="48.77703" lon="2.10378">
        <ele>185</ele>
        <time>2019-05-12T09:42:22.000Z</time>
      </trkpt>
      <trkpt lat="48.77703" lon="2.10378">
        <ele>185</ele>
        <time>2019-05-12T09:42:22.000Z</time>
      </trkpt>
      <trkpt lat="48.77703" lon="2.10378">
        <ele>185</ele>
        <time>2019-05-12T09:42:23.000Z</time>
      </trkpt>
      <trkpt lat="48.77703" lon="2.10377">
        <ele>185</ele>
        <time>2019-05-12T09:42:25.000Z</time>
      </trkpt>
      <trkpt lat="48.77703" lon="2.10377">
        <ele>185</ele>
        <time>2019-05-12T09:42:26.000Z</time>
      </trkpt>
      <trkpt lat="48.77703" lon="2.10377">
        <ele>185</ele>
        <time>2019-05-12T09:42:28.000Z</time>
      </trkpt>
      <trkpt lat="48.77703" lon="2.10376">
        <ele>185</ele>
        <time>2019-05-12T09:42:30.000Z</time>
      </trkpt>
      <trkpt lat="48.77703" lon="2.10375">
        <ele>185</ele>
        <time>2019-05-12T09:42:31.000Z</time>
      </trkpt>
      <trkpt lat="48.77704" lon="2.10373">
        <ele>185</ele>
        <time>2019-05-12T09:42:32.000Z</time>
      </trkpt>
      <trkpt lat="48.77704" lon="2.10371">
        <ele>185</ele>
        <time>2019-05-12T09:42:33.000Z</time>
      </trkpt>
      <trkpt lat="48.77704" lon="2.1037">
        <ele>185</ele>
        <time>2019-05-12T09:42:34.000Z</time>
      </trkpt>
      <trkpt lat="48.77705" lon="2.10368">
        <ele>185</ele>
        <time>2019-05-12T09:42:34.000Z</time>
      </trkpt>
      <trkpt lat="48.77705" lon="2.10366">
        <ele>185</ele>
        <time>2019-05-12T09:42:35.000Z</time>
      </trkpt>
      <trkpt lat="48.77705" lon="2.10365">
        <ele>185</ele>
        <time>2019-05-12T09:42:35.000Z</time>
      </trkpt>
      <trkpt lat="48.77705" lon="2.10364">
        <ele>185</ele>
        <time>2019-05-12T09:42:36.000Z</time>
      </trkpt>
      <trkpt lat="48.77707" lon="2.10357">
        <ele>185</ele>
        <time>2019-05-12T09:42:38.000Z</time>
      </trkpt>
      <trkpt lat="48.77707" lon="2.10349">
        <ele>185</ele>
        <time>2019-05-12T09:42:41.000Z</time>
      </trkpt>
      <trkpt lat="48.77709" lon="2.10342">
        <ele>185</ele>
        <time>2019-05-12T09:42:43.000Z</time>
      </trkpt>
      <trkpt lat="48.77711" lon="2.10337">
        <ele>185</ele>
        <time>2019-05-12T09:42:45.000Z</time>
      </trkpt>
      <trkpt lat="48.77714" lon="2.10328">
        <ele>185</ele>
        <time>2019-05-12T09:42:47.000Z</time>
      </trkpt>
      <trkpt lat="48.77718" lon="2.10312">
        <ele>185</ele>
        <time>2019-05-12T09:42:53.000Z</time>
      </trkpt>
      <trkpt lat="48.77721" lon="2.10297">
        <ele>185</ele>
        <time>2019-05-12T09:43:03.000Z</time>
      </trkpt>
      <trkpt lat="48.77721" lon="2.10293">
        <ele>184</ele>
        <time>2019-05-12T09:43:08.000Z</time>
      </trkpt>
      <trkpt lat="48.77721" lon="2.10283">
        <ele>184</ele>
        <time>2019-05-12T09:43:11.000Z</time>
      </trkpt>
      <trkpt lat="48.77721" lon="2.1028">
        <ele>184</ele>
        <time>2019-05-12T09:43:14.000Z</time>
      </trkpt>
      <trkpt lat="48.7772" lon="2.1026">
        <ele>185</ele>
        <time>2019-05-12T09:43:29.000Z</time>
      </trkpt>
      <trkpt lat="48.77721" lon="2.10253">
        <ele>185</ele>
        <time>2019-05-12T09:43:33.000Z</time>
      </trkpt>
      <trkpt lat="48.77723" lon="2.10248">
        <ele>185</ele>
        <time>2019-05-12T09:43:38.000Z</time>
      </trkpt>
      <trkpt lat="48.77723" lon="2.10245">
        <ele>185</ele>
        <time>2019-05-12T09:43:41.000Z</time>
      </trkpt>
      <trkpt lat="48.77724" lon="2.10242">
        <ele>185</ele>
        <time>2019-05-12T09:43:45.000Z</time>
      </trkpt>
      <trkpt lat="48.77724" lon="2.10239">
        <ele>185</ele>
        <time>2019-05-12T09:43:48.000Z</time>
      </trkpt>
      <trkpt lat="48.77725" lon="2.10235">
        <ele>185</ele>
        <time>2019-05-12T09:43:52.000Z</time>
      </trkpt>
      <trkpt lat="48.77725" lon="2.10231">
        <ele>185</ele>
        <time>2019-05-12T09:43:54.000Z</time>
      </trkpt>
      <trkpt lat="48.77726" lon="2.10226">
        <ele>185</ele>
        <time>2019-05-12T09:43:56.000Z</time>
      </trkpt>
      <trkpt lat="48.77727" lon="2.10221">
        <ele>185</ele>
        <time>2019-05-12T09:43:58.000Z</time>
      </trkpt>
      <trkpt lat="48.77728" lon="2.10216">
        <ele>185</ele>
        <time>2019-05-12T09:44:00.000Z</time>
      </trkpt>
      <trkpt lat="48.77728" lon="2.10214">
        <ele>185</ele>
        <time>2019-05-12T09:44:01.000Z</time>
      </trkpt>
      <trkpt lat="48.77728" lon="2.10213">
        <ele>185</ele>
        <time>2019-05-12T09:44:02.000Z</time>
      </trkpt>
      <trkpt lat="48.77728" lon="2.10213">
        <ele>185</ele>
        <time>2019-05-12T09:44:03.000Z</time>
      </trkpt>
      <trkpt lat="48.77728" lon="2.10213">
        <ele>185</ele>
        <time>2019-05-12T09:44:04.000Z</time>
      </trkpt>
      <trkpt lat="48.77727" lon="2.1021">
        <ele>185</ele>
        <time>2019-05-12T09:44:07.000Z</time>
      </trkpt>
      <trkpt lat="48.77727" lon="2.10207">
        <ele>185</ele>
        <time>2019-05-12T09:44:11.000Z</time>
      </trkpt>
      <trkpt lat="48.77727" lon="2.10204">
        <ele>185</ele>
        <time>2019-05-12T09:44:15.000Z</time>
      </trkpt>
      <trkpt lat="48.77726" lon="2.102">
        <ele>185</ele>
        <time>2019-05-12T09:44:19.000Z</time>
      </trkpt>
      <trkpt lat="48.77726" lon="2.10199">
        <ele>185</ele>
        <time>2019-05-12T09:44:19.000Z</time>
      </trkpt>
      <trkpt lat="48.77726" lon="2.10198">
        <ele>185</ele>
        <time>2019-05-12T09:44:19.000Z</time>
      </trkpt>
      <trkpt lat="48.77726" lon="2.10197">
        <ele>185</ele>
        <time>2019-05-12T09:44:19.000Z</time>
      </trkpt>
      <trkpt lat="48.77726" lon="2.10196">
        <ele>185</ele>
        <time>2019-05-12T09:44:20.000Z</time>
      </trkpt>
      <trkpt lat="48.77727" lon="2.10177">
        <ele>185</ele>
        <time>2019-05-12T09:44:32.000Z</time>
      </trkpt>
      <trkpt lat="48.77726" lon="2.10175">
        <ele>185</ele>
        <time>2019-05-12T09:44:34.000Z</time>
      </trkpt>
      <trkpt lat="48.77725" lon="2.10175">
        <ele>185</ele>
        <time>2019-05-12T09:44:37.000Z</time>
      </trkpt>
      <trkpt lat="48.77723" lon="2.10174">
        <ele>185</ele>
        <time>2019-05-12T09:44:39.000Z</time>
      </trkpt>
      <trkpt lat="48.77721" lon="2.10175">
        <ele>185</ele>
        <time>2019-05-12T09:44:42.000Z</time>
      </trkpt>
      <trkpt lat="48.77721" lon="2.10174">
        <ele>185</ele>
        <time>2019-05-12T09:44:42.000Z</time>
      </trkpt>
      <trkpt lat="48.7772" lon="2.10174">
        <ele>185</ele>
        <time>2019-05-12T09:44:43.000Z</time>
      </trkpt>
      <trkpt lat="48.7772" lon="2.10174">
        <ele>185</ele>
        <time>2019-05-12T09:44:43.000Z</time>
      </trkpt>
      <trkpt lat="48.7772" lon="2.10174">
        <ele>185</ele>
        <time>2019-05-12T09:44:44.000Z</time>
      </trkpt>
      <trkpt lat="48.7772" lon="2.10174">
        <ele>185</ele>
        <time>2019-05-12T09:44:49.000Z</time>
      </trkpt>
      <trkpt lat="48.7772" lon="2.10174">
        <ele>185</ele>
        <time>2019-05-12T09:44:54.000Z</time>
      </trkpt>
      <trkpt lat="48.7772" lon="2.10175">
        <ele>184</ele>
        <time>2019-05-12T09:44:59.000Z</time>
      </trkpt>
      <trkpt lat="48.7772" lon="2.10175">
        <ele>184</ele>
        <time>2019-05-12T09:45:04.000Z</time>
      </trkpt>
      <trkpt lat="48.7772" lon="2.10175">
        <ele>184</ele>
        <time>2019-05-12T09:45:04.000Z</time>
      </trkpt>
      <trkpt lat="48.7772" lon="2.10175">
        <ele>184</ele>
        <time>2019-05-12T09:45:04.000Z</time>
      </trkpt>
      <trkpt lat="48.77719" lon="2.10175">
        <ele>184</ele>
        <time>2019-05-12T09:45:04.000Z</time>
      </trkpt>
      <trkpt lat="48.77719" lon="2.10175">
        <ele>184</ele>
        <time>2019-05-12T09:45:05.000Z</time>
      </trkpt>
      <trkpt lat="48.77718" lon="2.10178">
        <ele>184</ele>
        <time>2019-05-12T09:45:08.000Z</time>
      </trkpt>
      <trkpt lat="48.77716" lon="2.10182">
        <ele>184</ele>
        <time>2019-05-12T09:45:11.000Z</time>
      </trkpt>
      <trkpt lat="48.77715" lon="2.10187">
        <ele>184</ele>
        <time>2019-05-12T09:45:14.000Z</time>
      </trkpt>
      <trkpt lat="48.77713" lon="2.10192">
        <ele>184</ele>
        <time>2019-05-12T09:45:17.000Z</time>
      </trkpt>
      <trkpt lat="48.77712" lon="2.10202">
        <ele>184</ele>
        <time>2019-05-12T09:45:24.000Z</time>
      </trkpt>
      <trkpt lat="48.77711" lon="2.10213">
        <ele>184</ele>
        <time>2019-05-12T09:45:31.000Z</time>
      </trkpt>
      <trkpt lat="48.77711" lon="2.10216">
        <ele>184</ele>
        <time>2019-05-12T09:45:32.000Z</time>
      </trkpt>
      <trkpt lat="48.77711" lon="2.10217">
        <ele>184</ele>
        <time>2019-05-12T09:45:33.000Z</time>
      </trkpt>
      <trkpt lat="48.77712" lon="2.10217">
        <ele>184</ele>
        <time>2019-05-12T09:45:34.000Z</time>
      </trkpt>
      <trkpt lat="48.77712" lon="2.10218">
        <ele>184</ele>
        <time>2019-05-12T09:45:36.000Z</time>
      </trkpt>
      <trkpt lat="48.77712" lon="2.10218">
        <ele>184</ele>
        <time>2019-05-12T09:45:36.000Z</time>
      </trkpt>
      <trkpt lat="48.77712" lon="2.10219">
        <ele>184</ele>
        <time>2019-05-12T09:45:37.000Z</time>
      </trkpt>
      <trkpt lat="48.77712" lon="2.10219">
        <ele>184</ele>
        <time>2019-05-12T09:45:38.000Z</time>
      </trkpt>
      <trkpt lat="48.77712" lon="2.10219">
        <ele>184</ele>
        <time>2019-05-12T09:45:39.000Z</time>
      </trkpt>
      <trkpt lat="48.77712" lon="2.10221">
        <ele>184</ele>
        <time>2019-05-12T09:45:39.000Z</time>
      </trkpt>
      <trkpt lat="48.77713" lon="2.10224">
        <ele>184</ele>
        <time>2019-05-12T09:45:40.000Z</time>
      </trkpt>
      <trkpt lat="48.77713" lon="2.10228">
        <ele>184</ele>
        <time>2019-05-12T09:45:40.000Z</time>
      </trkpt>
      <trkpt lat="48.77714" lon="2.10231">
        <ele>184</ele>
        <time>2019-05-12T09:45:41.000Z</time>
      </trkpt>
      <trkpt lat="48.77714" lon="2.10234">
        <ele>184</ele>
        <time>2019-05-12T09:45:41.000Z</time>
      </trkpt>
      <trkpt lat="48.77715" lon="2.10236">
        <ele>184</ele>
        <time>2019-05-12T09:45:42.000Z</time>
      </trkpt>
      <trkpt lat="48.77715" lon="2.10237">
        <ele>184</ele>
        <time>2019-05-12T09:45:42.000Z</time>
      </trkpt>
      <trkpt lat="48.77715" lon="2.10239">
        <ele>184</ele>
        <time>2019-05-12T09:45:43.000Z</time>
      </trkpt>
      <trkpt lat="48.77716" lon="2.10241">
        <ele>184</ele>
        <time>2019-05-12T09:45:43.000Z</time>
      </trkpt>
      <trkpt lat="48.77716" lon="2.10242">
        <ele>184</ele>
        <time>2019-05-12T09:45:44.000Z</time>
      </trkpt>
      <trkpt lat="48.77716" lon="2.10244">
        <ele>184</ele>
        <time>2019-05-12T09:45:45.000Z</time>
      </trkpt>
      <trkpt lat="48.77716" lon="2.10246">
        <ele>184</ele>
        <time>2019-05-12T09:45:46.000Z</time>
      </trkpt>
      <trkpt lat="48.77717" lon="2.10252">
        <ele>184</ele>
        <time>2019-05-12T09:45:48.000Z</time>
      </trkpt>
      <trkpt lat="48.77719" lon="2.10258">
        <ele>184</ele>
        <time>2019-05-12T09:45:51.000Z</time>
      </trkpt>
      <trkpt lat="48.7772" lon="2.1026">
        <ele>184</ele>
        <time>2019-05-12T09:45:56.000Z</time>
      </trkpt>
      <trkpt lat="48.7772" lon="2.10262">
        <ele>184</ele>
        <time>2019-05-12T09:45:59.000Z</time>
      </trkpt>
      <trkpt lat="48.77722" lon="2.10271">
        <ele>184</ele>
        <time>2019-05-12T09:46:01.000Z</time>
      </trkpt>
      <trkpt lat="48.77722" lon="2.10274">
        <ele>184</ele>
        <time>2019-05-12T09:46:02.000Z</time>
      </trkpt>
      <trkpt lat="48.77721" lon="2.10275">
        <ele>184</ele>
        <time>2019-05-12T09:46:04.000Z</time>
      </trkpt>
      <trkpt lat="48.7772" lon="2.10275">
        <ele>184</ele>
        <time>2019-05-12T09:46:06.000Z</time>
      </trkpt>
      <trkpt lat="48.77717" lon="2.10275">
        <ele>184</ele>
        <time>2019-05-12T09:46:07.000Z</time>
      </trkpt>
      <trkpt lat="48.77715" lon="2.10274">
        <ele>184</ele>
        <time>2019-05-12T09:46:09.000Z</time>
      </trkpt>
      <trkpt lat="48.77712" lon="2.10273">
        <ele>184</ele>
        <time>2019-05-12T09:46:11.000Z</time>
      </trkpt>
      <trkpt lat="48.77707" lon="2.10272">
        <ele>184</ele>
        <time>2019-05-12T09:46:12.000Z</time>
      </trkpt>
      <trkpt lat="48.77701" lon="2.1027">
        <ele>184</ele>
        <time>2019-05-12T09:46:14.000Z</time>
      </trkpt>
      <trkpt lat="48.77695" lon="2.10268">
        <ele>184</ele>
        <time>2019-05-12T09:46:16.000Z</time>
      </trkpt>
      <trkpt lat="48.77689" lon="2.10266">
        <ele>184</ele>
        <time>2019-05-12T09:46:18.000Z</time>
      </trkpt>
      <trkpt lat="48.77686" lon="2.10265">
        <ele>183</ele>
        <time>2019-05-12T09:46:23.000Z</time>
      </trkpt>
      <trkpt lat="48.77686" lon="2.10265">
        <ele>183</ele>
        <time>2019-05-12T09:46:29.000Z</time>
      </trkpt>
      <trkpt lat="48.77686" lon="2.10264">
        <ele>183</ele>
        <time>2019-05-12T09:46:34.000Z</time>
      </trkpt>
      <trkpt lat="48.77687" lon="2.10264">
        <ele>183</ele>
        <time>2019-05-12T09:46:40.000Z</time>
      </trkpt>
      <trkpt lat="48.77687" lon="2.10264">
        <ele>183</ele>
        <time>2019-05-12T09:46:40.000Z</time>
      </trkpt>
      <trkpt lat="48.77686" lon="2.10263">
        <ele>183</ele>
        <time>2019-05-12T09:46:40.000Z</time>
      </trkpt>
      <trkpt lat="48.77686" lon="2.10263">
        <ele>183</ele>
        <time>2019-05-12T09:46:41.000Z</time>
      </trkpt>
      <trkpt lat="48.77686" lon="2.10262">
        <ele>183</ele>
        <time>2019-05-12T09:46:41.000Z</time>
      </trkpt>
      <trkpt lat="48.77686" lon="2.10262">
        <ele>183</ele>
        <time>2019-05-12T09:46:41.000Z</time>
      </trkpt>
      <trkpt lat="48.77686" lon="2.10262">
        <ele>183</ele>
        <time>2019-05-12T09:46:42.000Z</time>
      </trkpt>
      <trkpt lat="48.77686" lon="2.10262">
        <ele>183</ele>
        <time>2019-05-12T09:46:42.000Z</time>
      </trkpt>
      <trkpt lat="48.77686" lon="2.10262">
        <ele>183</ele>
        <time>2019-05-12T09:46:43.000Z</time>
      </trkpt>
      <trkpt lat="48.77685" lon="2.10261">
        <ele>183</ele>
        <time>2019-05-12T09:46:43.000Z</time>
      </trkpt>
      <trkpt lat="48.77684" lon="2.10259">
        <ele>183</ele>
        <time>2019-05-12T09:46:44.000Z</time>
      </trkpt>
      <trkpt lat="48.77683" lon="2.10257">
        <ele>183</ele>
        <time>2019-05-12T09:46:45.000Z</time>
      </trkpt>
      <trkpt lat="48.77682" lon="2.10255">
        <ele>183</ele>
        <time>2019-05-12T09:46:46.000Z</time>
      </trkpt>
      <trkpt lat="48.7768" lon="2.1025">
        <ele>183</ele>
        <time>2019-05-12T09:46:49.000Z</time>
      </trkpt>
      <trkpt lat="48.77677" lon="2.10245">
        <ele>182</ele>
        <time>2019-05-12T09:46:51.000Z</time>
      </trkpt>
      <trkpt lat="48.77673" lon="2.10236">
        <ele>182</ele>
        <time>2019-05-12T09:46:53.000Z</time>
      </trkpt>
      <trkpt lat="48.7767" lon="2.10225">
        <ele>182</ele>
        <time>2019-05-12T09:46:58.000Z</time>
      </trkpt>
      <trkpt lat="48.77667" lon="2.10208">
        <ele>182</ele>
        <time>2019-05-12T09:47:05.000Z</time>
      </trkpt>
      <trkpt lat="48.77664" lon="2.10194">
        <ele>182</ele>
        <time>2019-05-12T09:47:16.000Z</time>
      </trkpt>
      <trkpt lat="48.77659" lon="2.1018">
        <ele>182</ele>
        <time>2019-05-12T09:47:25.000Z</time>
      </trkpt>
      <trkpt lat="48.77655" lon="2.10169">
        <ele>181</ele>
        <time>2019-05-12T09:47:34.000Z</time>
      </trkpt>
      <trkpt lat="48.77655" lon="2.10167">
        <ele>181</ele>
        <time>2019-05-12T09:47:38.000Z</time>
      </trkpt>
      <trkpt lat="48.77656" lon="2.1015">
        <ele>181</ele>
        <time>2019-05-12T09:47:44.000Z</time>
      </trkpt>
      <trkpt lat="48.77657" lon="2.1014">
        <ele>181</ele>
        <time>2019-05-12T09:47:51.000Z</time>
      </trkpt>
      <trkpt lat="48.77655" lon="2.10132">
        <ele>181</ele>
        <time>2019-05-12T09:47:54.000Z</time>
      </trkpt>
      <trkpt lat="48.77651" lon="2.10117">
        <ele>181</ele>
        <time>2019-05-12T09:47:57.000Z</time>
      </trkpt>
      <trkpt lat="48.77648" lon="2.10108">
        <ele>181</ele>
        <time>2019-05-12T09:48:01.000Z</time>
      </trkpt>
      <trkpt lat="48.77647" lon="2.10106">
        <ele>181</ele>
        <time>2019-05-12T09:48:03.000Z</time>
      </trkpt>
      <trkpt lat="48.77646" lon="2.10105">
        <ele>181</ele>
        <time>2019-05-12T09:48:05.000Z</time>
      </trkpt>
      <trkpt lat="48.77646" lon="2.10104">
        <ele>181</ele>
        <time>2019-05-12T09:48:11.000Z</time>
      </trkpt>
      <trkpt lat="48.77646" lon="2.10103">
        <ele>180</ele>
        <time>2019-05-12T09:48:17.000Z</time>
      </trkpt>
      <trkpt lat="48.77646" lon="2.10101">
        <ele>180</ele>
        <time>2019-05-12T09:48:23.000Z</time>
      </trkpt>
      <trkpt lat="48.77646" lon="2.101">
        <ele>180</ele>
        <time>2019-05-12T09:48:29.000Z</time>
      </trkpt>
      <trkpt lat="48.77646" lon="2.10099">
        <ele>180</ele>
        <time>2019-05-12T09:48:30.000Z</time>
      </trkpt>
      <trkpt lat="48.77646" lon="2.10098">
        <ele>180</ele>
        <time>2019-05-12T09:48:30.000Z</time>
      </trkpt>
      <trkpt lat="48.77646" lon="2.10097">
        <ele>180</ele>
        <time>2019-05-12T09:48:30.000Z</time>
      </trkpt>
      <trkpt lat="48.77646" lon="2.10096">
        <ele>180</ele>
        <time>2019-05-12T09:48:30.000Z</time>
      </trkpt>
      <trkpt lat="48.77646" lon="2.10094">
        <ele>180</ele>
        <time>2019-05-12T09:48:31.000Z</time>
      </trkpt>
      <trkpt lat="48.77646" lon="2.10092">
        <ele>180</ele>
        <time>2019-05-12T09:48:31.000Z</time>
      </trkpt>
      <trkpt lat="48.77646" lon="2.10089">
        <ele>180</ele>
        <time>2019-05-12T09:48:32.000Z</time>
      </trkpt>
      <trkpt lat="48.77646" lon="2.10086">
        <ele>180</ele>
        <time>2019-05-12T09:48:32.000Z</time>
      </trkpt>
      <trkpt lat="48.77646" lon="2.10084">
        <ele>180</ele>
        <time>2019-05-12T09:48:33.000Z</time>
      </trkpt>
      <trkpt lat="48.77646" lon="2.10082">
        <ele>180</ele>
        <time>2019-05-12T09:48:33.000Z</time>
      </trkpt>
      <trkpt lat="48.77646" lon="2.1008">
        <ele>180</ele>
        <time>2019-05-12T09:48:33.000Z</time>
      </trkpt>
      <trkpt lat="48.77646" lon="2.10078">
        <ele>180</ele>
        <time>2019-05-12T09:48:34.000Z</time>
      </trkpt>
      <trkpt lat="48.77645" lon="2.10075">
        <ele>180</ele>
        <time>2019-05-12T09:48:35.000Z</time>
      </trkpt>
      <trkpt lat="48.77645" lon="2.10073">
        <ele>180</ele>
        <time>2019-05-12T09:48:35.000Z</time>
      </trkpt>
      <trkpt lat="48.77645" lon="2.1007">
        <ele>180</ele>
        <time>2019-05-12T09:48:36.000Z</time>
      </trkpt>
      <trkpt lat="48.77645" lon="2.10067">
        <ele>180</ele>
        <time>2019-05-12T09:48:37.000Z</time>
      </trkpt>
      <trkpt lat="48.77645" lon="2.10066">
        <ele>180</ele>
        <time>2019-05-12T09:48:37.000Z</time>
      </trkpt>
      <trkpt lat="48.77645" lon="2.10065">
        <ele>180</ele>
        <time>2019-05-12T09:48:38.000Z</time>
      </trkpt>
      <trkpt lat="48.77645" lon="2.10064">
        <ele>179</ele>
        <time>2019-05-12T09:48:38.000Z</time>
      </trkpt>
      <trkpt lat="48.77645" lon="2.10063">
        <ele>179</ele>
        <time>2019-05-12T09:48:39.000Z</time>
      </trkpt>
      <trkpt lat="48.77647" lon="2.10052">
        <ele>179</ele>
        <time>2019-05-12T09:48:52.000Z</time>
      </trkpt>
      <trkpt lat="48.77648" lon="2.1005">
        <ele>179</ele>
        <time>2019-05-12T09:48:53.000Z</time>
      </trkpt>
      <trkpt lat="48.77649" lon="2.10049">
        <ele>179</ele>
        <time>2019-05-12T09:48:54.000Z</time>
      </trkpt>
      <trkpt lat="48.77651" lon="2.10047">
        <ele>179</ele>
        <time>2019-05-12T09:48:55.000Z</time>
      </trkpt>
      <trkpt lat="48.77652" lon="2.10046">
        <ele>179</ele>
        <time>2019-05-12T09:48:57.000Z</time>
      </trkpt>
      <trkpt lat="48.77654" lon="2.10045">
        <ele>179</ele>
        <time>2019-05-12T09:48:59.000Z</time>
      </trkpt>
      <trkpt lat="48.77655" lon="2.10043">
        <ele>178</ele>
        <time>2019-05-12T09:49:01.000Z</time>
      </trkpt>
      <trkpt lat="48.77656" lon="2.10042">
        <ele>178</ele>
        <time>2019-05-12T09:49:03.000Z</time>
      </trkpt>
      <trkpt lat="48.77657" lon="2.1004">
        <ele>178</ele>
        <time>2019-05-12T09:49:05.000Z</time>
      </trkpt>
      <trkpt lat="48.77659" lon="2.10039">
        <ele>178</ele>
        <time>2019-05-12T09:49:07.000Z</time>
      </trkpt>
      <trkpt lat="48.7766" lon="2.10038">
        <ele>178</ele>
        <time>2019-05-12T09:49:09.000Z</time>
      </trkpt>
      <trkpt lat="48.77661" lon="2.10037">
        <ele>178</ele>
        <time>2019-05-12T09:49:11.000Z</time>
      </trkpt>
      <trkpt lat="48.77662" lon="2.10036">
        <ele>178</ele>
        <time>2019-05-12T09:49:13.000Z</time>
      </trkpt>
      <trkpt lat="48.77663" lon="2.10035">
        <ele>178</ele>
        <time>2019-05-12T09:49:13.000Z</time>
      </trkpt>
      <trkpt lat="48.77663" lon="2.10035">
        <ele>178</ele>
        <time>2019-05-12T09:49:14.000Z</time>
      </trkpt>
      <trkpt lat="48.77664" lon="2.10035">
        <ele>178</ele>
        <time>2019-05-12T09:49:15.000Z</time>
      </trkpt>
      <trkpt lat="48.77664" lon="2.10034">
        <ele>178</ele>
        <time>2019-05-12T09:49:16.000Z</time>
      </trkpt>
      <trkpt lat="48.77664" lon="2.10034">
        <ele>178</ele>
        <time>2019-05-12T09:49:16.000Z</time>
      </trkpt>
      <trkpt lat="48.77664" lon="2.10034">
        <ele>178</ele>
        <time>2019-05-12T09:49:17.000Z</time>
      </trkpt>
      <trkpt lat="48.77665" lon="2.10034">
        <ele>178</ele>
        <time>2019-05-12T09:49:17.000Z</time>
      </trkpt>
      <trkpt lat="48.77665" lon="2.10034">
        <ele>178</ele>
        <time>2019-05-12T09:49:18.000Z</time>
      </trkpt>
      <trkpt lat="48.77665" lon="2.10033">
        <ele>178</ele>
        <time>2019-05-12T09:49:18.000Z</time>
      </trkpt>
      <trkpt lat="48.77667" lon="2.10033">
        <ele>178</ele>
        <time>2019-05-12T09:49:19.000Z</time>
      </trkpt>
      <trkpt lat="48.77668" lon="2.10032">
        <ele>178</ele>
        <time>2019-05-12T09:49:19.000Z</time>
      </trkpt>
      <trkpt lat="48.7767" lon="2.10031">
        <ele>178</ele>
        <time>2019-05-12T09:49:20.000Z</time>
      </trkpt>
      <trkpt lat="48.77678" lon="2.10027">
        <ele>177</ele>
        <time>2019-05-12T09:49:26.000Z</time>
      </trkpt>
      <trkpt lat="48.77686" lon="2.10027">
        <ele>177</ele>
        <time>2019-05-12T09:49:34.000Z</time>
      </trkpt>
      <trkpt lat="48.77693" lon="2.10025">
        <ele>176</ele>
        <time>2019-05-12T09:49:39.000Z</time>
      </trkpt>
      <trkpt lat="48.77699" lon="2.10023">
        <ele>176</ele>
        <time>2019-05-12T09:49:44.000Z</time>
      </trkpt>
      <trkpt lat="48.77705" lon="2.10024">
        <ele>176</ele>
        <time>2019-05-12T09:49:49.000Z</time>
      </trkpt>
      <trkpt lat="48.77712" lon="2.10025">
        <ele>176</ele>
        <time>2019-05-12T09:49:53.000Z</time>
      </trkpt>
      <trkpt lat="48.77716" lon="2.10024">
        <ele>175</ele>
        <time>2019-05-12T09:49:57.000Z</time>
      </trkpt>
      <trkpt lat="48.7772" lon="2.10023">
        <ele>175</ele>
        <time>2019-05-12T09:50:00.000Z</time>
      </trkpt>
      <trkpt lat="48.77727" lon="2.10022">
        <ele>175</ele>
        <time>2019-05-12T09:50:02.000Z</time>
      </trkpt>
      <trkpt lat="48.77735" lon="2.10022">
        <ele>175</ele>
        <time>2019-05-12T09:50:11.000Z</time>
      </trkpt>
      <trkpt lat="48.77743" lon="2.10024">
        <ele>174</ele>
        <time>2019-05-12T09:50:21.000Z</time>
      </trkpt>
      <trkpt lat="48.77751" lon="2.10025">
        <ele>174</ele>
        <time>2019-05-12T09:50:30.000Z</time>
      </trkpt>
      <trkpt lat="48.77754" lon="2.10026">
        <ele>174</ele>
        <time>2019-05-12T09:50:37.000Z</time>
      </trkpt>
      <trkpt lat="48.77758" lon="2.10027">
        <ele>173</ele>
        <time>2019-05-12T09:50:39.000Z</time>
      </trkpt>
      <trkpt lat="48.77765" lon="2.10028">
        <ele>173</ele>
        <time>2019-05-12T09:50:42.000Z</time>
      </trkpt>
      <trkpt lat="48.7777" lon="2.10029">
        <ele>173</ele>
        <time>2019-05-12T09:50:46.000Z</time>
      </trkpt>
      <trkpt lat="48.77778" lon="2.10031">
        <ele>173</ele>
        <time>2019-05-12T09:50:53.000Z</time>
      </trkpt>
      <trkpt lat="48.77781" lon="2.10029">
        <ele>173</ele>
        <time>2019-05-12T09:50:57.000Z</time>
      </trkpt>
      <trkpt lat="48.77784" lon="2.10027">
        <ele>172</ele>
        <time>2019-05-12T09:51:01.000Z</time>
      </trkpt>
      <trkpt lat="48.77786" lon="2.10026">
        <ele>172</ele>
        <time>2019-05-12T09:51:03.000Z</time>
      </trkpt>
      <trkpt lat="48.77787" lon="2.10026">
        <ele>172</ele>
        <time>2019-05-12T09:51:06.000Z</time>
      </trkpt>
      <trkpt lat="48.77789" lon="2.10025">
        <ele>172</ele>
        <time>2019-05-12T09:51:08.000Z</time>
      </trkpt>
      <trkpt lat="48.7779" lon="2.10024">
        <ele>172</ele>
        <time>2019-05-12T09:51:11.000Z</time>
      </trkpt>
      <trkpt lat="48.77792" lon="2.10025">
        <ele>172</ele>
        <time>2019-05-12T09:51:14.000Z</time>
      </trkpt>
      <trkpt lat="48.77793" lon="2.10026">
        <ele>172</ele>
        <time>2019-05-12T09:51:18.000Z</time>
      </trkpt>
      <trkpt lat="48.77794" lon="2.10027">
        <ele>171</ele>
        <time>2019-05-12T09:51:22.000Z</time>
      </trkpt>
      <trkpt lat="48.77796" lon="2.10028">
        <ele>171</ele>
        <time>2019-05-12T09:51:26.000Z</time>
      </trkpt>
      <trkpt lat="48.77797" lon="2.10027">
        <ele>171</ele>
        <time>2019-05-12T09:51:28.000Z</time>
      </trkpt>
      <trkpt lat="48.77797" lon="2.10025">
        <ele>171</ele>
        <time>2019-05-12T09:51:31.000Z</time>
      </trkpt>
      <trkpt lat="48.77798" lon="2.10022">
        <ele>171</ele>
        <time>2019-05-12T09:51:34.000Z</time>
      </trkpt>
      <trkpt lat="48.77798" lon="2.10019">
        <ele>171</ele>
        <time>2019-05-12T09:51:37.000Z</time>
      </trkpt>
      <trkpt lat="48.77802" lon="2.10014">
        <ele>171</ele>
        <time>2019-05-12T09:51:41.000Z</time>
      </trkpt>
      <trkpt lat="48.77806" lon="2.10009">
        <ele>171</ele>
        <time>2019-05-12T09:51:46.000Z</time>
      </trkpt>
      <trkpt lat="48.77808" lon="2.10003">
        <ele>171</ele>
        <time>2019-05-12T09:51:51.000Z</time>
      </trkpt>
      <trkpt lat="48.77808" lon="2.09997">
        <ele>171</ele>
        <time>2019-05-12T09:51:56.000Z</time>
      </trkpt>
      <trkpt lat="48.7781" lon="2.09993">
        <ele>171</ele>
        <time>2019-05-12T09:51:59.000Z</time>
      </trkpt>
      <trkpt lat="48.77811" lon="2.09988">
        <ele>171</ele>
        <time>2019-05-12T09:52:03.000Z</time>
      </trkpt>
      <trkpt lat="48.77813" lon="2.09982">
        <ele>171</ele>
        <time>2019-05-12T09:52:07.000Z</time>
      </trkpt>
      <trkpt lat="48.77815" lon="2.09976">
        <ele>171</ele>
        <time>2019-05-12T09:52:11.000Z</time>
      </trkpt>
      <trkpt lat="48.77815" lon="2.09974">
        <ele>171</ele>
        <time>2019-05-12T09:52:13.000Z</time>
      </trkpt>
      <trkpt lat="48.77816" lon="2.09974">
        <ele>171</ele>
        <time>2019-05-12T09:52:15.000Z</time>
      </trkpt>
      <trkpt lat="48.77815" lon="2.09974">
        <ele>171</ele>
        <time>2019-05-12T09:52:17.000Z</time>
      </trkpt>
      <trkpt lat="48.77815" lon="2.09975">
        <ele>171</ele>
        <time>2019-05-12T09:52:20.000Z</time>
      </trkpt>
      <trkpt lat="48.77815" lon="2.09974">
        <ele>171</ele>
        <time>2019-05-12T09:52:20.000Z</time>
      </trkpt>
      <trkpt lat="48.77816" lon="2.09973">
        <ele>170</ele>
        <time>2019-05-12T09:52:21.000Z</time>
      </trkpt>
      <trkpt lat="48.77816" lon="2.09971">
        <ele>170</ele>
        <time>2019-05-12T09:52:22.000Z</time>
      </trkpt>
      <trkpt lat="48.77816" lon="2.0997">
        <ele>170</ele>
        <time>2019-05-12T09:52:23.000Z</time>
      </trkpt>
      <trkpt lat="48.77818" lon="2.09966">
        <ele>170</ele>
        <time>2019-05-12T09:52:23.000Z</time>
      </trkpt>
      <trkpt lat="48.77819" lon="2.09961">
        <ele>170</ele>
        <time>2019-05-12T09:52:24.000Z</time>
      </trkpt>
      <trkpt lat="48.77821" lon="2.09955">
        <ele>170</ele>
        <time>2019-05-12T09:52:25.000Z</time>
      </trkpt>
      <trkpt lat="48.77823" lon="2.09949">
        <ele>170</ele>
        <time>2019-05-12T09:52:26.000Z</time>
      </trkpt>
      <trkpt lat="48.77824" lon="2.09946">
        <ele>170</ele>
        <time>2019-05-12T09:52:27.000Z</time>
      </trkpt>
      <trkpt lat="48.77824" lon="2.09945">
        <ele>170</ele>
        <time>2019-05-12T09:52:28.000Z</time>
      </trkpt>
      <trkpt lat="48.77825" lon="2.09944">
        <ele>170</ele>
        <time>2019-05-12T09:52:29.000Z</time>
      </trkpt>
      <trkpt lat="48.77825" lon="2.09944">
        <ele>170</ele>
        <time>2019-05-12T09:52:30.000Z</time>
      </trkpt>
      <trkpt lat="48.77826" lon="2.09942">
        <ele>170</ele>
        <time>2019-05-12T09:52:33.000Z</time>
      </trkpt>
      <trkpt lat="48.77828" lon="2.0993">
        <ele>170</ele>
        <time>2019-05-12T09:52:35.000Z</time>
      </trkpt>
      <trkpt lat="48.7783" lon="2.09916">
        <ele>170</ele>
        <time>2019-05-12T09:52:39.000Z</time>
      </trkpt>
      <trkpt lat="48.77834" lon="2.09902">
        <ele>170</ele>
        <time>2019-05-12T09:52:46.000Z</time>
      </trkpt>
      <trkpt lat="48.77839" lon="2.09892">
        <ele>170</ele>
        <time>2019-05-12T09:52:54.000Z</time>
      </trkpt>
      <trkpt lat="48.77845" lon="2.09879">
        <ele>170</ele>
        <time>2019-05-12T09:53:04.000Z</time>
      </trkpt>
      <trkpt lat="48.77851" lon="2.09873">
        <ele>170</ele>
        <time>2019-05-12T09:53:09.000Z</time>
      </trkpt>
      <trkpt lat="48.77858" lon="2.09872">
        <ele>170</ele>
        <time>2019-05-12T09:53:16.000Z</time>
      </trkpt>
      <trkpt lat="48.77868" lon="2.09872">
        <ele>170</ele>
        <time>2019-05-12T09:53:24.000Z</time>
      </trkpt>
      <trkpt lat="48.77871" lon="2.09873">
        <ele>170</ele>
        <time>2019-05-12T09:53:26.000Z</time>
      </trkpt>
      <trkpt lat="48.77873" lon="2.09873">
        <ele>170</ele>
        <time>2019-05-12T09:53:29.000Z</time>
      </trkpt>
      <trkpt lat="48.77876" lon="2.09874">
        <ele>170</ele>
        <time>2019-05-12T09:53:32.000Z</time>
      </trkpt>
      <trkpt lat="48.77878" lon="2.09874">
        <ele>170</ele>
        <time>2019-05-12T09:53:35.000Z</time>
      </trkpt>
      <trkpt lat="48.77882" lon="2.09876">
        <ele>170</ele>
        <time>2019-05-12T09:53:36.000Z</time>
      </trkpt>
      <trkpt lat="48.77885" lon="2.09877">
        <ele>170</ele>
        <time>2019-05-12T09:53:38.000Z</time>
      </trkpt>
      <trkpt lat="48.7789" lon="2.09879">
        <ele>170</ele>
        <time>2019-05-12T09:53:40.000Z</time>
      </trkpt>
      <trkpt lat="48.77894" lon="2.09881">
        <ele>170</ele>
        <time>2019-05-12T09:53:42.000Z</time>
      </trkpt>
      <trkpt lat="48.77897" lon="2.09883">
        <ele>170</ele>
        <time>2019-05-12T09:53:49.000Z</time>
      </trkpt>
      <trkpt lat="48.77899" lon="2.09884">
        <ele>170</ele>
        <time>2019-05-12T09:53:56.000Z</time>
      </trkpt>
      <trkpt lat="48.77901" lon="2.09886">
        <ele>170</ele>
        <time>2019-05-12T09:54:03.000Z</time>
      </trkpt>
      <trkpt lat="48.77903" lon="2.09887">
        <ele>170</ele>
        <time>2019-05-12T09:54:10.000Z</time>
      </trkpt>
      <trkpt lat="48.77904" lon="2.09888">
        <ele>170</ele>
        <time>2019-05-12T09:54:10.000Z</time>
      </trkpt>
      <trkpt lat="48.77905" lon="2.09888">
        <ele>170</ele>
        <time>2019-05-12T09:54:11.000Z</time>
      </trkpt>
      <trkpt lat="48.77905" lon="2.09888">
        <ele>170</ele>
        <time>2019-05-12T09:54:12.000Z</time>
      </trkpt>
      <trkpt lat="48.77905" lon="2.09888">
        <ele>170</ele>
        <time>2019-05-12T09:54:13.000Z</time>
      </trkpt>
      <trkpt lat="48.77905" lon="2.09889">
        <ele>170</ele>
        <time>2019-05-12T09:54:13.000Z</time>
      </trkpt>
      <trkpt lat="48.77906" lon="2.09889">
        <ele>170</ele>
        <time>2019-05-12T09:54:14.000Z</time>
      </trkpt>
      <trkpt lat="48.77907" lon="2.0989">
        <ele>170</ele>
        <time>2019-05-12T09:54:15.000Z</time>
      </trkpt>
      <trkpt lat="48.77908" lon="2.09891">
        <ele>170</ele>
        <time>2019-05-12T09:54:16.000Z</time>
      </trkpt>
      <trkpt lat="48.77911" lon="2.09894">
        <ele>170</ele>
        <time>2019-05-12T09:54:19.000Z</time>
      </trkpt>
      <trkpt lat="48.77918" lon="2.09897">
        <ele>170</ele>
        <time>2019-05-12T09:54:23.000Z</time>
      </trkpt>
      <trkpt lat="48.77919" lon="2.09897">
        <ele>170</ele>
        <time>2019-05-12T09:54:25.000Z</time>
      </trkpt>
      <trkpt lat="48.77919" lon="2.09897">
        <ele>170</ele>
        <time>2019-05-12T09:54:29.000Z</time>
      </trkpt>
      <trkpt lat="48.77921" lon="2.09898">
        <ele>170</ele>
        <time>2019-05-12T09:54:31.000Z</time>
      </trkpt>
      <trkpt lat="48.77932" lon="2.09902">
        <ele>170</ele>
        <time>2019-05-12T09:54:35.000Z</time>
      </trkpt>
      <trkpt lat="48.77939" lon="2.09904">
        <ele>170</ele>
        <time>2019-05-12T09:54:38.000Z</time>
      </trkpt>
      <trkpt lat="48.77945" lon="2.09907">
        <ele>170</ele>
        <time>2019-05-12T09:54:40.000Z</time>
      </trkpt>
      <trkpt lat="48.77954" lon="2.09908">
        <ele>170</ele>
        <time>2019-05-12T09:54:54.000Z</time>
      </trkpt>
      <trkpt lat="48.77965" lon="2.09906">
        <ele>170</ele>
        <time>2019-05-12T09:55:00.000Z</time>
      </trkpt>
      <trkpt lat="48.7798" lon="2.09906">
        <ele>169</ele>
        <time>2019-05-12T09:55:12.000Z</time>
      </trkpt>
      <trkpt lat="48.77981" lon="2.09906">
        <ele>169</ele>
        <time>2019-05-12T09:55:17.000Z</time>
      </trkpt>
      <trkpt lat="48.77984" lon="2.09906">
        <ele>169</ele>
        <time>2019-05-12T09:55:20.000Z</time>
      </trkpt>
      <trkpt lat="48.77993" lon="2.09906">
        <ele>169</ele>
        <time>2019-05-12T09:55:22.000Z</time>
      </trkpt>
      <trkpt lat="48.78004" lon="2.09906">
        <ele>169</ele>
        <time>2019-05-12T09:55:24.000Z</time>
      </trkpt>
      <trkpt lat="48.78019" lon="2.09902">
        <ele>169</ele>
        <time>2019-05-12T09:55:37.000Z</time>
      </trkpt>
      <trkpt lat="48.78024" lon="2.09897">
        <ele>169</ele>
        <time>2019-05-12T09:55:42.000Z</time>
      </trkpt>
      <trkpt lat="48.78029" lon="2.0989">
        <ele>169</ele>
        <time>2019-05-12T09:55:47.000Z</time>
      </trkpt>
      <trkpt lat="48.78032" lon="2.09888">
        <ele>169</ele>
        <time>2019-05-12T09:55:52.000Z</time>
      </trkpt>
      <trkpt lat="48.78034" lon="2.09885">
        <ele>169</ele>
        <time>2019-05-12T09:55:57.000Z</time>
      </trkpt>
      <trkpt lat="48.78037" lon="2.09882">
        <ele>169</ele>
        <time>2019-05-12T09:56:02.000Z</time>
      </trkpt>
      <trkpt lat="48.7804" lon="2.09879">
        <ele>169</ele>
        <time>2019-05-12T09:56:07.000Z</time>
      </trkpt>
      <trkpt lat="48.78042" lon="2.09876">
        <ele>169</ele>
        <time>2019-05-12T09:56:09.000Z</time>
      </trkpt>
      <trkpt lat="48.78045" lon="2.09873">
        <ele>169</ele>
        <time>2019-05-12T09:56:11.000Z</time>
      </trkpt>
      <trkpt lat="48.78047" lon="2.0987">
        <ele>169</ele>
        <time>2019-05-12T09:56:13.000Z</time>
      </trkpt>
      <trkpt lat="48.7805" lon="2.09867">
        <ele>169</ele>
        <time>2019-05-12T09:56:16.000Z</time>
      </trkpt>
      <trkpt lat="48.78054" lon="2.09858">
        <ele>169</ele>
        <time>2019-05-12T09:56:20.000Z</time>
      </trkpt>
      <trkpt lat="48.78057" lon="2.09849">
        <ele>169</ele>
        <time>2019-05-12T09:56:24.000Z</time>
      </trkpt>
      <trkpt lat="48.78058" lon="2.09845">
        <ele>169</ele>
        <time>2019-05-12T09:56:27.000Z</time>
      </trkpt>
      <trkpt lat="48.78059" lon="2.09842">
        <ele>169</ele>
        <time>2019-05-12T09:56:30.000Z</time>
      </trkpt>
      <trkpt lat="48.7806" lon="2.09839">
        <ele>169</ele>
        <time>2019-05-12T09:56:33.000Z</time>
      </trkpt>
      <trkpt lat="48.78061" lon="2.09837">
        <ele>169</ele>
        <time>2019-05-12T09:56:37.000Z</time>
      </trkpt>
      <trkpt lat="48.78062" lon="2.09834">
        <ele>169</ele>
        <time>2019-05-12T09:56:38.000Z</time>
      </trkpt>
      <trkpt lat="48.78062" lon="2.09831">
        <ele>169</ele>
        <time>2019-05-12T09:56:40.000Z</time>
      </trkpt>
      <trkpt lat="48.78063" lon="2.09827">
        <ele>169</ele>
        <time>2019-05-12T09:56:42.000Z</time>
      </trkpt>
      <trkpt lat="48.78063" lon="2.09824">
        <ele>169</ele>
        <time>2019-05-12T09:56:44.000Z</time>
      </trkpt>
      <trkpt lat="48.78063" lon="2.09821">
        <ele>169</ele>
        <time>2019-05-12T09:56:45.000Z</time>
      </trkpt>
      <trkpt lat="48.78063" lon="2.09818">
        <ele>169</ele>
        <time>2019-05-12T09:56:47.000Z</time>
      </trkpt>
      <trkpt lat="48.78063" lon="2.09815">
        <ele>169</ele>
        <time>2019-05-12T09:56:49.000Z</time>
      </trkpt>
      <trkpt lat="48.78063" lon="2.09812">
        <ele>169</ele>
        <time>2019-05-12T09:56:51.000Z</time>
      </trkpt>
      <trkpt lat="48.78063" lon="2.09808">
        <ele>169</ele>
        <time>2019-05-12T09:56:54.000Z</time>
      </trkpt>
      <trkpt lat="48.78064" lon="2.09804">
        <ele>169</ele>
        <time>2019-05-12T09:56:58.000Z</time>
      </trkpt>
      <trkpt lat="48.78064" lon="2.098">
        <ele>169</ele>
        <time>2019-05-12T09:57:02.000Z</time>
      </trkpt>
      <trkpt lat="48.78064" lon="2.09796">
        <ele>169</ele>
        <time>2019-05-12T09:57:06.000Z</time>
      </trkpt>
      <trkpt lat="48.78064" lon="2.09793">
        <ele>169</ele>
        <time>2019-05-12T09:57:10.000Z</time>
      </trkpt>
      <trkpt lat="48.78064" lon="2.0979">
        <ele>169</ele>
        <time>2019-05-12T09:57:14.000Z</time>
      </trkpt>
      <trkpt lat="48.78065" lon="2.09788">
        <ele>169</ele>
        <time>2019-05-12T09:57:18.000Z</time>
      </trkpt>
      <trkpt lat="48.78065" lon="2.09785">
        <ele>169</ele>
        <time>2019-05-12T09:57:22.000Z</time>
      </trkpt>
      <trkpt lat="48.78065" lon="2.09783">
        <ele>169</ele>
        <time>2019-05-12T09:57:26.000Z</time>
      </trkpt>
      <trkpt lat="48.78065" lon="2.09782">
        <ele>169</ele>
        <time>2019-05-12T09:57:29.000Z</time>
      </trkpt>
      <trkpt lat="48.78066" lon="2.09767">
        <ele>169</ele>
        <time>2019-05-12T09:57:31.000Z</time>
      </trkpt>
      <trkpt lat="48.78065" lon="2.09757">
        <ele>169</ele>
        <time>2019-05-12T09:57:34.000Z</time>
      </trkpt>
      <trkpt lat="48.78064" lon="2.09751">
        <ele>168</ele>
        <time>2019-05-12T09:57:36.000Z</time>
      </trkpt>
      <trkpt lat="48.78064" lon="2.09742">
        <ele>168</ele>
        <time>2019-05-12T09:57:38.000Z</time>
      </trkpt>
      <trkpt lat="48.78064" lon="2.09738">
        <ele>168</ele>
        <time>2019-05-12T09:57:39.000Z</time>
      </trkpt>
      <trkpt lat="48.78064" lon="2.09717">
        <ele>168</ele>
        <time>2019-05-12T09:57:47.000Z</time>
      </trkpt>
      <trkpt lat="48.78063" lon="2.09709">
        <ele>168</ele>
        <time>2019-05-12T09:57:54.000Z</time>
      </trkpt>
      <trkpt lat="48.7806" lon="2.09702">
        <ele>168</ele>
        <time>2019-05-12T09:58:01.000Z</time>
      </trkpt>
      <trkpt lat="48.7806" lon="2.097">
        <ele>168</ele>
        <time>2019-05-12T09:58:01.000Z</time>
      </trkpt>
      <trkpt lat="48.78059" lon="2.09698">
        <ele>168</ele>
        <time>2019-05-12T09:58:02.000Z</time>
      </trkpt>
      <trkpt lat="48.78059" lon="2.09697">
        <ele>168</ele>
        <time>2019-05-12T09:58:03.000Z</time>
      </trkpt>
      <trkpt lat="48.78059" lon="2.09695">
        <ele>168</ele>
        <time>2019-05-12T09:58:04.000Z</time>
      </trkpt>
      <trkpt lat="48.78058" lon="2.09694">
        <ele>168</ele>
        <time>2019-05-12T09:58:05.000Z</time>
      </trkpt>
      <trkpt lat="48.78058" lon="2.09693">
        <ele>168</ele>
        <time>2019-05-12T09:58:06.000Z</time>
      </trkpt>
      <trkpt lat="48.78057" lon="2.09692">
        <ele>168</ele>
        <time>2019-05-12T09:58:07.000Z</time>
      </trkpt>
      <trkpt lat="48.78057" lon="2.09691">
        <ele>168</ele>
        <time>2019-05-12T09:58:09.000Z</time>
      </trkpt>
      <trkpt lat="48.78056" lon="2.0969">
        <ele>168</ele>
        <time>2019-05-12T09:58:09.000Z</time>
      </trkpt>
      <trkpt lat="48.78056" lon="2.09689">
        <ele>168</ele>
        <time>2019-05-12T09:58:10.000Z</time>
      </trkpt>
      <trkpt lat="48.78056" lon="2.09688">
        <ele>168</ele>
        <time>2019-05-12T09:58:11.000Z</time>
      </trkpt>
      <trkpt lat="48.78056" lon="2.09688">
        <ele>168</ele>
        <time>2019-05-12T09:58:12.000Z</time>
      </trkpt>
      <trkpt lat="48.78055" lon="2.09686">
        <ele>168</ele>
        <time>2019-05-12T09:58:12.000Z</time>
      </trkpt>
      <trkpt lat="48.78054" lon="2.09684">
        <ele>168</ele>
        <time>2019-05-12T09:58:13.000Z</time>
      </trkpt>
      <trkpt lat="48.78053" lon="2.09682">
        <ele>168</ele>
        <time>2019-05-12T09:58:13.000Z</time>
      </trkpt>
      <trkpt lat="48.78052" lon="2.09679">
        <ele>168</ele>
        <time>2019-05-12T09:58:14.000Z</time>
      </trkpt>
      <trkpt lat="48.78051" lon="2.09677">
        <ele>168</ele>
        <time>2019-05-12T09:58:14.000Z</time>
      </trkpt>
      <trkpt lat="48.78049" lon="2.09674">
        <ele>168</ele>
        <time>2019-05-12T09:58:15.000Z</time>
      </trkpt>
      <trkpt lat="48.78048" lon="2.0967">
        <ele>168</ele>
        <time>2019-05-12T09:58:16.000Z</time>
      </trkpt>
      <trkpt lat="48.78046" lon="2.09667">
        <ele>168</ele>
        <time>2019-05-12T09:58:17.000Z</time>
      </trkpt>
      <trkpt lat="48.78039" lon="2.09637">
        <ele>168</ele>
        <time>2019-05-12T09:59:04.000Z</time>
      </trkpt>
      <trkpt lat="48.78033" lon="2.09604">
        <ele>168</ele>
        <time>2019-05-12T09:59:07.000Z</time>
      </trkpt>
      <trkpt lat="48.78031" lon="2.09592">
        <ele>168</ele>
        <time>2019-05-12T09:59:09.000Z</time>
      </trkpt>
      <trkpt lat="48.7803" lon="2.09588">
        <ele>168</ele>
        <time>2019-05-12T09:59:12.000Z</time>
      </trkpt>
      <trkpt lat="48.78029" lon="2.09584">
        <ele>168</ele>
        <time>2019-05-12T09:59:14.000Z</time>
      </trkpt>
      <trkpt lat="48.78027" lon="2.09575">
        <ele>168</ele>
        <time>2019-05-12T09:59:16.000Z</time>
      </trkpt>
      <trkpt lat="48.78027" lon="2.09569">
        <ele>168</ele>
        <time>2019-05-12T09:59:20.000Z</time>
      </trkpt>
      <trkpt lat="48.78028" lon="2.09564">
        <ele>168</ele>
        <time>2019-05-12T09:59:24.000Z</time>
      </trkpt>
      <trkpt lat="48.78029" lon="2.09562">
        <ele>168</ele>
        <time>2019-05-12T09:59:26.000Z</time>
      </trkpt>
      <trkpt lat="48.7803" lon="2.0956">
        <ele>168</ele>
        <time>2019-05-12T09:59:28.000Z</time>
      </trkpt>
      <trkpt lat="48.7803" lon="2.09558">
        <ele>168</ele>
        <time>2019-05-12T09:59:30.000Z</time>
      </trkpt>
      <trkpt lat="48.78032" lon="2.09556">
        <ele>168</ele>
        <time>2019-05-12T09:59:31.000Z</time>
      </trkpt>
      <trkpt lat="48.78033" lon="2.09553">
        <ele>168</ele>
        <time>2019-05-12T09:59:33.000Z</time>
      </trkpt>
      <trkpt lat="48.78033" lon="2.0955">
        <ele>168</ele>
        <time>2019-05-12T09:59:35.000Z</time>
      </trkpt>
      <trkpt lat="48.78035" lon="2.09547">
        <ele>168</ele>
        <time>2019-05-12T09:59:37.000Z</time>
      </trkpt>
      <trkpt lat="48.78036" lon="2.09544">
        <ele>168</ele>
        <time>2019-05-12T09:59:38.000Z</time>
      </trkpt>
      <trkpt lat="48.78037" lon="2.09542">
        <ele>168</ele>
        <time>2019-05-12T09:59:40.000Z</time>
      </trkpt>
      <trkpt lat="48.78038" lon="2.0954">
        <ele>168</ele>
        <time>2019-05-12T09:59:42.000Z</time>
      </trkpt>
      <trkpt lat="48.78038" lon="2.09539">
        <ele>168</ele>
        <time>2019-05-12T09:59:44.000Z</time>
      </trkpt>
      <trkpt lat="48.78039" lon="2.09537">
        <ele>168</ele>
        <time>2019-05-12T09:59:46.000Z</time>
      </trkpt>
      <trkpt lat="48.78039" lon="2.09536">
        <ele>168</ele>
        <time>2019-05-12T09:59:51.000Z</time>
      </trkpt>
      <trkpt lat="48.78039" lon="2.09535">
        <ele>168</ele>
        <time>2019-05-12T09:59:55.000Z</time>
      </trkpt>
      <trkpt lat="48.78038" lon="2.09534">
        <ele>168</ele>
        <time>2019-05-12T09:59:59.000Z</time>
      </trkpt>
      <trkpt lat="48.78038" lon="2.09533">
        <ele>168</ele>
        <time>2019-05-12T10:00:03.000Z</time>
      </trkpt>
      <trkpt lat="48.78038" lon="2.09532">
        <ele>168</ele>
        <time>2019-05-12T10:00:04.000Z</time>
      </trkpt>
      <trkpt lat="48.78038" lon="2.09531">
        <ele>168</ele>
        <time>2019-05-12T10:00:04.000Z</time>
      </trkpt>
      <trkpt lat="48.78038" lon="2.09531">
        <ele>168</ele>
        <time>2019-05-12T10:00:04.000Z</time>
      </trkpt>
      <trkpt lat="48.78038" lon="2.0953">
        <ele>168</ele>
        <time>2019-05-12T10:00:04.000Z</time>
      </trkpt>
      <trkpt lat="48.78037" lon="2.09529">
        <ele>168</ele>
        <time>2019-05-12T10:00:05.000Z</time>
      </trkpt>
      <trkpt lat="48.78037" lon="2.09526">
        <ele>168</ele>
        <time>2019-05-12T10:00:06.000Z</time>
      </trkpt>
      <trkpt lat="48.78036" lon="2.09524">
        <ele>168</ele>
        <time>2019-05-12T10:00:07.000Z</time>
      </trkpt>
      <trkpt lat="48.78035" lon="2.09521">
        <ele>168</ele>
        <time>2019-05-12T10:00:07.000Z</time>
      </trkpt>
      <trkpt lat="48.78034" lon="2.09519">
        <ele>168</ele>
        <time>2019-05-12T10:00:09.000Z</time>
      </trkpt>
      <trkpt lat="48.78033" lon="2.09516">
        <ele>168</ele>
        <time>2019-05-12T10:00:10.000Z</time>
      </trkpt>
      <trkpt lat="48.78031" lon="2.09513">
        <ele>168</ele>
        <time>2019-05-12T10:00:11.000Z</time>
      </trkpt>
      <trkpt lat="48.7803" lon="2.0951">
        <ele>168</ele>
        <time>2019-05-12T10:00:12.000Z</time>
      </trkpt>
      <trkpt lat="48.78027" lon="2.09507">
        <ele>168</ele>
        <time>2019-05-12T10:00:20.000Z</time>
      </trkpt>
      <trkpt lat="48.78025" lon="2.09506">
        <ele>168</ele>
        <time>2019-05-12T10:00:27.000Z</time>
      </trkpt>
      <trkpt lat="48.78025" lon="2.09503">
        <ele>168</ele>
        <time>2019-05-12T10:00:31.000Z</time>
      </trkpt>
      <trkpt lat="48.78026" lon="2.09501">
        <ele>167</ele>
        <time>2019-05-12T10:00:35.000Z</time>
      </trkpt>
      <trkpt lat="48.78027" lon="2.09498">
        <ele>167</ele>
        <time>2019-05-12T10:00:39.000Z</time>
      </trkpt>
      <trkpt lat="48.78029" lon="2.09495">
        <ele>167</ele>
        <time>2019-05-12T10:00:42.000Z</time>
      </trkpt>
      <trkpt lat="48.78029" lon="2.09493">
        <ele>167</ele>
        <time>2019-05-12T10:00:43.000Z</time>
      </trkpt>
      <trkpt lat="48.78029" lon="2.09493">
        <ele>167</ele>
        <time>2019-05-12T10:00:43.000Z</time>
      </trkpt>
      <trkpt lat="48.7803" lon="2.09493">
        <ele>167</ele>
        <time>2019-05-12T10:00:43.000Z</time>
      </trkpt>
      <trkpt lat="48.7803" lon="2.09493">
        <ele>167</ele>
        <time>2019-05-12T10:00:43.000Z</time>
      </trkpt>
      <trkpt lat="48.7803" lon="2.09489">
        <ele>167</ele>
        <time>2019-05-12T10:00:47.000Z</time>
      </trkpt>
      <trkpt lat="48.7803" lon="2.09483">
        <ele>167</ele>
        <time>2019-05-12T10:00:51.000Z</time>
      </trkpt>
      <trkpt lat="48.7803" lon="2.09477">
        <ele>167</ele>
        <time>2019-05-12T10:00:55.000Z</time>
      </trkpt>
      <trkpt lat="48.78031" lon="2.0947">
        <ele>167</ele>
        <time>2019-05-12T10:00:58.000Z</time>
      </trkpt>
      <trkpt lat="48.78031" lon="2.09464">
        <ele>167</ele>
        <time>2019-05-12T10:01:01.000Z</time>
      </trkpt>
      <trkpt lat="48.78032" lon="2.09458">
        <ele>167</ele>
        <time>2019-05-12T10:01:04.000Z</time>
      </trkpt>
      <trkpt lat="48.78032" lon="2.09452">
        <ele>167</ele>
        <time>2019-05-12T10:01:07.000Z</time>
      </trkpt>
      <trkpt lat="48.78033" lon="2.09447">
        <ele>167</ele>
        <time>2019-05-12T10:01:10.000Z</time>
      </trkpt>
      <trkpt lat="48.78033" lon="2.09441">
        <ele>167</ele>
        <time>2019-05-12T10:01:14.000Z</time>
      </trkpt>
      <trkpt lat="48.78032" lon="2.09436">
        <ele>167</ele>
        <time>2019-05-12T10:01:17.000Z</time>
      </trkpt>
      <trkpt lat="48.78032" lon="2.09432">
        <ele>167</ele>
        <time>2019-05-12T10:01:20.000Z</time>
      </trkpt>
      <trkpt lat="48.78031" lon="2.09427">
        <ele>167</ele>
        <time>2019-05-12T10:01:23.000Z</time>
      </trkpt>
      <trkpt lat="48.78031" lon="2.09422">
        <ele>167</ele>
        <time>2019-05-12T10:01:27.000Z</time>
      </trkpt>
      <trkpt lat="48.78031" lon="2.09417">
        <ele>167</ele>
        <time>2019-05-12T10:01:30.000Z</time>
      </trkpt>
      <trkpt lat="48.78031" lon="2.09411">
        <ele>167</ele>
        <time>2019-05-12T10:01:34.000Z</time>
      </trkpt>
      <trkpt lat="48.78032" lon="2.09406">
        <ele>167</ele>
        <time>2019-05-12T10:01:37.000Z</time>
      </trkpt>
      <trkpt lat="48.7803" lon="2.094">
        <ele>167</ele>
        <time>2019-05-12T10:01:43.000Z</time>
      </trkpt>
      <trkpt lat="48.78027" lon="2.0938">
        <ele>167</ele>
        <time>2019-05-12T10:01:52.000Z</time>
      </trkpt>
      <trkpt lat="48.78027" lon="2.09356">
        <ele>167</ele>
        <time>2019-05-12T10:02:04.000Z</time>
      </trkpt>
      <trkpt lat="48.78027" lon="2.09338">
        <ele>167</ele>
        <time>2019-05-12T10:02:15.000Z</time>
      </trkpt>
      <trkpt lat="48.78028" lon="2.09331">
        <ele>167</ele>
        <time>2019-05-12T10:02:21.000Z</time>
      </trkpt>
      <trkpt lat="48.78028" lon="2.09329">
        <ele>167</ele>
        <time>2019-05-12T10:02:23.000Z</time>
      </trkpt>
      <trkpt lat="48.78029" lon="2.09314">
        <ele>167</ele>
        <time>2019-05-12T10:02:40.000Z</time>
      </trkpt>
      <trkpt lat="48.78029" lon="2.09308">
        <ele>167</ele>
        <time>2019-05-12T10:02:41.000Z</time>
      </trkpt>
      <trkpt lat="48.78032" lon="2.09292">
        <ele>167</ele>
        <time>2019-05-12T10:02:54.000Z</time>
      </trkpt>
      <trkpt lat="48.78037" lon="2.09274">
        <ele>167</ele>
        <time>2019-05-12T10:03:06.000Z</time>
      </trkpt>
      <trkpt lat="48.78039" lon="2.09256">
        <ele>167</ele>
        <time>2019-05-12T10:03:15.000Z</time>
      </trkpt>
      <trkpt lat="48.78043" lon="2.0924">
        <ele>167</ele>
        <time>2019-05-12T10:03:23.000Z</time>
      </trkpt>
      <trkpt lat="48.78051" lon="2.09219">
        <ele>167</ele>
        <time>2019-05-12T10:03:35.000Z</time>
      </trkpt>
      <trkpt lat="48.78056" lon="2.09199">
        <ele>167</ele>
        <time>2019-05-12T10:03:44.000Z</time>
      </trkpt>
      <trkpt lat="48.78066" lon="2.09184">
        <ele>167</ele>
        <time>2019-05-12T10:03:56.000Z</time>
      </trkpt>
      <trkpt lat="48.78075" lon="2.09167">
        <ele>167</ele>
        <time>2019-05-12T10:04:10.000Z</time>
      </trkpt>
      <trkpt lat="48.78084" lon="2.09151">
        <ele>167</ele>
        <time>2019-05-12T10:04:22.000Z</time>
      </trkpt>
      <trkpt lat="48.7809" lon="2.09141">
        <ele>167</ele>
        <time>2019-05-12T10:04:32.000Z</time>
      </trkpt>
      <trkpt lat="48.78095" lon="2.09132">
        <ele>167</ele>
        <time>2019-05-12T10:06:36.000Z</time>
      </trkpt>
      <trkpt lat="48.78096" lon="2.09129">
        <ele>167</ele>
        <time>2019-05-12T10:06:37.000Z</time>
      </trkpt>
      <trkpt lat="48.78108" lon="2.09118">
        <ele>167</ele>
        <time>2019-05-12T10:06:52.000Z</time>
      </trkpt>
      <trkpt lat="48.7812" lon="2.09115">
        <ele>166</ele>
        <time>2019-05-12T10:07:02.000Z</time>
      </trkpt>
      <trkpt lat="48.78131" lon="2.09112">
        <ele>166</ele>
        <time>2019-05-12T10:07:15.000Z</time>
      </trkpt>
      <trkpt lat="48.78148" lon="2.09111">
        <ele>166</ele>
        <time>2019-05-12T10:07:22.000Z</time>
      </trkpt>
      <trkpt lat="48.78154" lon="2.09107">
        <ele>166</ele>
        <time>2019-05-12T10:07:30.000Z</time>
      </trkpt>
      <trkpt lat="48.7816" lon="2.091">
        <ele>166</ele>
        <time>2019-05-12T10:07:37.000Z</time>
      </trkpt>
      <trkpt lat="48.78164" lon="2.09097">
        <ele>166</ele>
        <time>2019-05-12T10:07:40.000Z</time>
      </trkpt>
      <trkpt lat="48.78167" lon="2.09094">
        <ele>166</ele>
        <time>2019-05-12T10:07:43.000Z</time>
      </trkpt>
      <trkpt lat="48.7817" lon="2.09091">
        <ele>166</ele>
        <time>2019-05-12T10:07:46.000Z</time>
      </trkpt>
      <trkpt lat="48.78173" lon="2.09088">
        <ele>166</ele>
        <time>2019-05-12T10:07:49.000Z</time>
      </trkpt>
      <trkpt lat="48.78176" lon="2.09085">
        <ele>166</ele>
        <time>2019-05-12T10:07:53.000Z</time>
      </trkpt>
      <trkpt lat="48.78179" lon="2.09082">
        <ele>166</ele>
        <time>2019-05-12T10:07:57.000Z</time>
      </trkpt>
      <trkpt lat="48.78182" lon="2.09079">
        <ele>166</ele>
        <time>2019-05-12T10:08:01.000Z</time>
      </trkpt>
      <trkpt lat="48.78185" lon="2.09076">
        <ele>166</ele>
        <time>2019-05-12T10:08:04.000Z</time>
      </trkpt>
      <trkpt lat="48.78188" lon="2.09073">
        <ele>166</ele>
        <time>2019-05-12T10:08:08.000Z</time>
      </trkpt>
      <trkpt lat="48.78191" lon="2.0907">
        <ele>167</ele>
        <time>2019-05-12T10:08:12.000Z</time>
      </trkpt>
      <trkpt lat="48.78194" lon="2.09067">
        <ele>167</ele>
        <time>2019-05-12T10:08:16.000Z</time>
      </trkpt>
      <trkpt lat="48.78196" lon="2.09064">
        <ele>167</ele>
        <time>2019-05-12T10:08:19.000Z</time>
      </trkpt>
      <trkpt lat="48.78198" lon="2.09062">
        <ele>167</ele>
        <time>2019-05-12T10:08:21.000Z</time>
      </trkpt>
      <trkpt lat="48.782" lon="2.09059">
        <ele>167</ele>
        <time>2019-05-12T10:08:22.000Z</time>
      </trkpt>
      <trkpt lat="48.78201" lon="2.09057">
        <ele>167</ele>
        <time>2019-05-12T10:08:24.000Z</time>
      </trkpt>
      <trkpt lat="48.78203" lon="2.09055">
        <ele>167</ele>
        <time>2019-05-12T10:08:25.000Z</time>
      </trkpt>
      <trkpt lat="48.78204" lon="2.09053">
        <ele>167</ele>
        <time>2019-05-12T10:08:27.000Z</time>
      </trkpt>
      <trkpt lat="48.78205" lon="2.09052">
        <ele>167</ele>
        <time>2019-05-12T10:08:28.000Z</time>
      </trkpt>
      <trkpt lat="48.78205" lon="2.0905">
        <ele>167</ele>
        <time>2019-05-12T10:08:30.000Z</time>
      </trkpt>
      <trkpt lat="48.78206" lon="2.09049">
        <ele>167</ele>
        <time>2019-05-12T10:08:31.000Z</time>
      </trkpt>
      <trkpt lat="48.78209" lon="2.09042">
        <ele>167</ele>
        <time>2019-05-12T10:08:33.000Z</time>
      </trkpt>
      <trkpt lat="48.78212" lon="2.09032">
        <ele>167</ele>
        <time>2019-05-12T10:08:35.000Z</time>
      </trkpt>
      <trkpt lat="48.78214" lon="2.09022">
        <ele>167</ele>
        <time>2019-05-12T10:08:39.000Z</time>
      </trkpt>
      <trkpt lat="48.78214" lon="2.09021">
        <ele>167</ele>
        <time>2019-05-12T10:08:56.000Z</time>
      </trkpt>
      <trkpt lat="48.78213" lon="2.09021">
        <ele>166</ele>
        <time>2019-05-12T10:09:13.000Z</time>
      </trkpt>
      <trkpt lat="48.78213" lon="2.0902">
        <ele>166</ele>
        <time>2019-05-12T10:09:14.000Z</time>
      </trkpt>
      <trkpt lat="48.78213" lon="2.0902">
        <ele>166</ele>
        <time>2019-05-12T10:09:14.000Z</time>
      </trkpt>
      <trkpt lat="48.78213" lon="2.0902">
        <ele>166</ele>
        <time>2019-05-12T10:09:14.000Z</time>
      </trkpt>
      <trkpt lat="48.78213" lon="2.0902">
        <ele>166</ele>
        <time>2019-05-12T10:09:14.000Z</time>
      </trkpt>
      <trkpt lat="48.78215" lon="2.09013">
        <ele>166</ele>
        <time>2019-05-12T10:09:19.000Z</time>
      </trkpt>
      <trkpt lat="48.78217" lon="2.09003">
        <ele>166</ele>
        <time>2019-05-12T10:09:23.000Z</time>
      </trkpt>
      <trkpt lat="48.78217" lon="2.09001">
        <ele>166</ele>
        <time>2019-05-12T10:09:24.000Z</time>
      </trkpt>
      <trkpt lat="48.78216" lon="2.08999">
        <ele>166</ele>
        <time>2019-05-12T10:09:25.000Z</time>
      </trkpt>
      <trkpt lat="48.78215" lon="2.08997">
        <ele>166</ele>
        <time>2019-05-12T10:09:26.000Z</time>
      </trkpt>
      <trkpt lat="48.78214" lon="2.08995">
        <ele>166</ele>
        <time>2019-05-12T10:09:27.000Z</time>
      </trkpt>
      <trkpt lat="48.78211" lon="2.08993">
        <ele>166</ele>
        <time>2019-05-12T10:09:31.000Z</time>
      </trkpt>
      <trkpt lat="48.78207" lon="2.08991">
        <ele>166</ele>
        <time>2019-05-12T10:09:35.000Z</time>
      </trkpt>
      <trkpt lat="48.78206" lon="2.0899">
        <ele>166</ele>
        <time>2019-05-12T10:09:36.000Z</time>
      </trkpt>
      <trkpt lat="48.78205" lon="2.0899">
        <ele>166</ele>
        <time>2019-05-12T10:09:36.000Z</time>
      </trkpt>
      <trkpt lat="48.78204" lon="2.08989">
        <ele>166</ele>
        <time>2019-05-12T10:09:37.000Z</time>
      </trkpt>
      <trkpt lat="48.78204" lon="2.08989">
        <ele>166</ele>
        <time>2019-05-12T10:09:37.000Z</time>
      </trkpt>
      <trkpt lat="48.78202" lon="2.08988">
        <ele>166</ele>
        <time>2019-05-12T10:09:38.000Z</time>
      </trkpt>
      <trkpt lat="48.78201" lon="2.08987">
        <ele>166</ele>
        <time>2019-05-12T10:09:38.000Z</time>
      </trkpt>
      <trkpt lat="48.78199" lon="2.08986">
        <ele>166</ele>
        <time>2019-05-12T10:09:39.000Z</time>
      </trkpt>
      <trkpt lat="48.78198" lon="2.08985">
        <ele>166</ele>
        <time>2019-05-12T10:09:39.000Z</time>
      </trkpt>
      <trkpt lat="48.78197" lon="2.08985">
        <ele>166</ele>
        <time>2019-05-12T10:09:40.000Z</time>
      </trkpt>
      <trkpt lat="48.78196" lon="2.08984">
        <ele>166</ele>
        <time>2019-05-12T10:09:41.000Z</time>
      </trkpt>
      <trkpt lat="48.78196" lon="2.08984">
        <ele>166</ele>
        <time>2019-05-12T10:09:42.000Z</time>
      </trkpt>
      <trkpt lat="48.78195" lon="2.08984">
        <ele>166</ele>
        <time>2019-05-12T10:09:43.000Z</time>
      </trkpt>
      <trkpt lat="48.78191" lon="2.08971">
        <ele>164</ele>
        <time>2019-05-12T10:23:24.000Z</time>
      </trkpt>
      <trkpt lat="48.78182" lon="2.08957">
        <ele>164</ele>
        <time>2019-05-12T10:24:51.000Z</time>
      </trkpt>
      <trkpt lat="48.78182" lon="2.08957">
        <ele>164</ele>
        <time>2019-05-12T10:24:52.000Z</time>
      </trkpt>
      <trkpt lat="48.78169" lon="2.08945">
        <ele>164</ele>
        <time>2019-05-12T10:25:06.000Z</time>
      </trkpt>
      <trkpt lat="48.78156" lon="2.08935">
        <ele>164</ele>
        <time>2019-05-12T10:25:22.000Z</time>
      </trkpt>
      <trkpt lat="48.78148" lon="2.08929">
        <ele>164</ele>
        <time>2019-05-12T10:25:28.000Z</time>
      </trkpt>
      <trkpt lat="48.7814" lon="2.08923">
        <ele>164</ele>
        <time>2019-05-12T10:25:35.000Z</time>
      </trkpt>
      <trkpt lat="48.78133" lon="2.08918">
        <ele>164</ele>
        <time>2019-05-12T10:25:43.000Z</time>
      </trkpt>
      <trkpt lat="48.78127" lon="2.08911">
        <ele>165</ele>
        <time>2019-05-12T10:25:49.000Z</time>
      </trkpt>
      <trkpt lat="48.7812" lon="2.08904">
        <ele>165</ele>
        <time>2019-05-12T10:25:58.000Z</time>
      </trkpt>
      <trkpt lat="48.78117" lon="2.08903">
        <ele>165</ele>
        <time>2019-05-12T10:26:06.000Z</time>
      </trkpt>
      <trkpt lat="48.78117" lon="2.08903">
        <ele>165</ele>
        <time>2019-05-12T10:26:10.000Z</time>
      </trkpt>
      <trkpt lat="48.78118" lon="2.08904">
        <ele>165</ele>
        <time>2019-05-12T10:26:14.000Z</time>
      </trkpt>
      <trkpt lat="48.78119" lon="2.08906">
        <ele>165</ele>
        <time>2019-05-12T10:26:18.000Z</time>
      </trkpt>
      <trkpt lat="48.7812" lon="2.08907">
        <ele>165</ele>
        <time>2019-05-12T10:26:22.000Z</time>
      </trkpt>
      <trkpt lat="48.7812" lon="2.08908">
        <ele>165</ele>
        <time>2019-05-12T10:26:23.000Z</time>
      </trkpt>
      <trkpt lat="48.7812" lon="2.08908">
        <ele>165</ele>
        <time>2019-05-12T10:26:23.000Z</time>
      </trkpt>
      <trkpt lat="48.78121" lon="2.08909">
        <ele>165</ele>
        <time>2019-05-12T10:26:23.000Z</time>
      </trkpt>
      <trkpt lat="48.78121" lon="2.08909">
        <ele>165</ele>
        <time>2019-05-12T10:26:23.000Z</time>
      </trkpt>
      <trkpt lat="48.78122" lon="2.08911">
        <ele>165</ele>
        <time>2019-05-12T10:26:24.000Z</time>
      </trkpt>
      <trkpt lat="48.78124" lon="2.08912">
        <ele>165</ele>
        <time>2019-05-12T10:26:24.000Z</time>
      </trkpt>
      <trkpt lat="48.78125" lon="2.08914">
        <ele>165</ele>
        <time>2019-05-12T10:26:25.000Z</time>
      </trkpt>
      <trkpt lat="48.78126" lon="2.08915">
        <ele>165</ele>
        <time>2019-05-12T10:26:25.000Z</time>
      </trkpt>
      <trkpt lat="48.78129" lon="2.08919">
        <ele>165</ele>
        <time>2019-05-12T10:26:29.000Z</time>
      </trkpt>
      <trkpt lat="48.78132" lon="2.08923">
        <ele>165</ele>
        <time>2019-05-12T10:26:33.000Z</time>
      </trkpt>
      <trkpt lat="48.78136" lon="2.08927">
        <ele>165</ele>
        <time>2019-05-12T10:26:37.000Z</time>
      </trkpt>
      <trkpt lat="48.7814" lon="2.08932">
        <ele>165</ele>
        <time>2019-05-12T10:26:41.000Z</time>
      </trkpt>
      <trkpt lat="48.78143" lon="2.08936">
        <ele>165</ele>
        <time>2019-05-12T10:26:46.000Z</time>
      </trkpt>
      <trkpt lat="48.78146" lon="2.08939">
        <ele>165</ele>
        <time>2019-05-12T10:26:50.000Z</time>
      </trkpt>
      <trkpt lat="48.78149" lon="2.08943">
        <ele>165</ele>
        <time>2019-05-12T10:26:55.000Z</time>
      </trkpt>
      <trkpt lat="48.78152" lon="2.08946">
        <ele>165</ele>
        <time>2019-05-12T10:26:59.000Z</time>
      </trkpt>
      <trkpt lat="48.78154" lon="2.08949">
        <ele>165</ele>
        <time>2019-05-12T10:27:03.000Z</time>
      </trkpt>
      <trkpt lat="48.78157" lon="2.08952">
        <ele>165</ele>
        <time>2019-05-12T10:27:07.000Z</time>
      </trkpt>
      <trkpt lat="48.78159" lon="2.08954">
        <ele>165</ele>
        <time>2019-05-12T10:27:11.000Z</time>
      </trkpt>
      <trkpt lat="48.78162" lon="2.08957">
        <ele>165</ele>
        <time>2019-05-12T10:27:14.000Z</time>
      </trkpt>
      <trkpt lat="48.7817" lon="2.08965">
        <ele>165</ele>
        <time>2019-05-12T10:27:22.000Z</time>
      </trkpt>
      <trkpt lat="48.7818" lon="2.08972">
        <ele>166</ele>
        <time>2019-05-12T10:27:28.000Z</time>
      </trkpt>
      <trkpt lat="48.78191" lon="2.0898">
        <ele>166</ele>
        <time>2019-05-12T10:27:36.000Z</time>
      </trkpt>
      <trkpt lat="48.78205" lon="2.08989">
        <ele>166</ele>
        <time>2019-05-12T10:27:51.000Z</time>
      </trkpt>
      <trkpt lat="48.78219" lon="2.08998">
        <ele>166</ele>
        <time>2019-05-12T10:28:24.000Z</time>
      </trkpt>
      <trkpt lat="48.78221" lon="2.08995">
        <ele>166</ele>
        <time>2019-05-12T10:28:28.000Z</time>
      </trkpt>
      <trkpt lat="48.78223" lon="2.08991">
        <ele>166</ele>
        <time>2019-05-12T10:28:32.000Z</time>
      </trkpt>
      <trkpt lat="48.78225" lon="2.08986">
        <ele>166</ele>
        <time>2019-05-12T10:28:36.000Z</time>
      </trkpt>
      <trkpt lat="48.78227" lon="2.08979">
        <ele>166</ele>
        <time>2019-05-12T10:28:39.000Z</time>
      </trkpt>
      <trkpt lat="48.78228" lon="2.08969">
        <ele>166</ele>
        <time>2019-05-12T10:28:47.000Z</time>
      </trkpt>
      <trkpt lat="48.78228" lon="2.08957">
        <ele>166</ele>
        <time>2019-05-12T10:28:54.000Z</time>
      </trkpt>
      <trkpt lat="48.78229" lon="2.08952">
        <ele>166</ele>
        <time>2019-05-12T10:28:58.000Z</time>
      </trkpt>
      <trkpt lat="48.78229" lon="2.08947">
        <ele>166</ele>
        <time>2019-05-12T10:29:01.000Z</time>
      </trkpt>
      <trkpt lat="48.7823" lon="2.08943">
        <ele>166</ele>
        <time>2019-05-12T10:29:04.000Z</time>
      </trkpt>
      <trkpt lat="48.7823" lon="2.08938">
        <ele>166</ele>
        <time>2019-05-12T10:29:07.000Z</time>
      </trkpt>
      <trkpt lat="48.7823" lon="2.08933">
        <ele>166</ele>
        <time>2019-05-12T10:29:10.000Z</time>
      </trkpt>
      <trkpt lat="48.7823" lon="2.08929">
        <ele>166</ele>
        <time>2019-05-12T10:29:12.000Z</time>
      </trkpt>
      <trkpt lat="48.7823" lon="2.08925">
        <ele>166</ele>
        <time>2019-05-12T10:29:15.000Z</time>
      </trkpt>
      <trkpt lat="48.7823" lon="2.0892">
        <ele>166</ele>
        <time>2019-05-12T10:29:17.000Z</time>
      </trkpt>
      <trkpt lat="48.78231" lon="2.08916">
        <ele>166</ele>
        <time>2019-05-12T10:29:19.000Z</time>
      </trkpt>
      <trkpt lat="48.78231" lon="2.08912">
        <ele>166</ele>
        <time>2019-05-12T10:29:21.000Z</time>
      </trkpt>
      <trkpt lat="48.78231" lon="2.08909">
        <ele>166</ele>
        <time>2019-05-12T10:29:23.000Z</time>
      </trkpt>
      <trkpt lat="48.78232" lon="2.08905">
        <ele>166</ele>
        <time>2019-05-12T10:29:25.000Z</time>
      </trkpt>
      <trkpt lat="48.78233" lon="2.089">
        <ele>166</ele>
        <time>2019-05-12T10:29:28.000Z</time>
      </trkpt>
      <trkpt lat="48.78233" lon="2.08895">
        <ele>166</ele>
        <time>2019-05-12T10:29:30.000Z</time>
      </trkpt>
      <trkpt lat="48.78235" lon="2.08889">
        <ele>166</ele>
        <time>2019-05-12T10:29:33.000Z</time>
      </trkpt>
      <trkpt lat="48.78236" lon="2.08884">
        <ele>166</ele>
        <time>2019-05-12T10:29:35.000Z</time>
      </trkpt>
      <trkpt lat="48.78237" lon="2.08879">
        <ele>166</ele>
        <time>2019-05-12T10:29:38.000Z</time>
      </trkpt>
      <trkpt lat="48.78238" lon="2.08874">
        <ele>166</ele>
        <time>2019-05-12T10:29:41.000Z</time>
      </trkpt>
      <trkpt lat="48.78238" lon="2.08869">
        <ele>166</ele>
        <time>2019-05-12T10:29:44.000Z</time>
      </trkpt>
      <trkpt lat="48.78239" lon="2.08863">
        <ele>166</ele>
        <time>2019-05-12T10:29:46.000Z</time>
      </trkpt>
      <trkpt lat="48.78239" lon="2.08843">
        <ele>166</ele>
        <time>2019-05-12T10:29:55.000Z</time>
      </trkpt>
      <trkpt lat="48.7824" lon="2.08818">
        <ele>166</ele>
        <time>2019-05-12T10:30:10.000Z</time>
      </trkpt>
      <trkpt lat="48.78241" lon="2.08799">
        <ele>166</ele>
        <time>2019-05-12T10:30:24.000Z</time>
      </trkpt>
      <trkpt lat="48.78241" lon="2.08782">
        <ele>166</ele>
        <time>2019-05-12T10:30:30.000Z</time>
      </trkpt>
      <trkpt lat="48.78242" lon="2.08765">
        <ele>166</ele>
        <time>2019-05-12T10:30:37.000Z</time>
      </trkpt>
      <trkpt lat="48.78243" lon="2.08744">
        <ele>166</ele>
        <time>2019-05-12T10:30:47.000Z</time>
      </trkpt>
      <trkpt lat="48.7825" lon="2.08725">
        <ele>166</ele>
        <time>2019-05-12T10:30:59.000Z</time>
      </trkpt>
      <trkpt lat="48.78256" lon="2.0871">
        <ele>166</ele>
        <time>2019-05-12T10:31:12.000Z</time>
      </trkpt>
      <trkpt lat="48.78258" lon="2.08696">
        <ele>166</ele>
        <time>2019-05-12T10:31:15.000Z</time>
      </trkpt>
      <trkpt lat="48.78259" lon="2.0869">
        <ele>166</ele>
        <time>2019-05-12T10:31:18.000Z</time>
      </trkpt>
      <trkpt lat="48.7826" lon="2.08667">
        <ele>166</ele>
        <time>2019-05-12T10:31:31.000Z</time>
      </trkpt>
      <trkpt lat="48.78261" lon="2.08641">
        <ele>167</ele>
        <time>2019-05-12T10:31:43.000Z</time>
      </trkpt>
      <trkpt lat="48.78267" lon="2.08622">
        <ele>167</ele>
        <time>2019-05-12T10:31:55.000Z</time>
      </trkpt>
      <trkpt lat="48.78272" lon="2.08614">
        <ele>167</ele>
        <time>2019-05-12T10:32:04.000Z</time>
      </trkpt>
      <trkpt lat="48.78278" lon="2.08609">
        <ele>167</ele>
        <time>2019-05-12T10:32:12.000Z</time>
      </trkpt>
      <trkpt lat="48.78281" lon="2.08607">
        <ele>167</ele>
        <time>2019-05-12T10:32:16.000Z</time>
      </trkpt>
      <trkpt lat="48.78283" lon="2.08605">
        <ele>167</ele>
        <time>2019-05-12T10:32:19.000Z</time>
      </trkpt>
      <trkpt lat="48.78285" lon="2.08603">
        <ele>167</ele>
        <time>2019-05-12T10:32:22.000Z</time>
      </trkpt>
      <trkpt lat="48.78288" lon="2.08601">
        <ele>167</ele>
        <time>2019-05-12T10:32:25.000Z</time>
      </trkpt>
      <trkpt lat="48.7829" lon="2.08599">
        <ele>167</ele>
        <time>2019-05-12T10:32:28.000Z</time>
      </trkpt>
      <trkpt lat="48.78293" lon="2.08597">
        <ele>167</ele>
        <time>2019-05-12T10:32:30.000Z</time>
      </trkpt>
      <trkpt lat="48.78295" lon="2.08595">
        <ele>167</ele>
        <time>2019-05-12T10:32:33.000Z</time>
      </trkpt>
      <trkpt lat="48.78297" lon="2.08593">
        <ele>167</ele>
        <time>2019-05-12T10:32:35.000Z</time>
      </trkpt>
      <trkpt lat="48.783" lon="2.08591">
        <ele>167</ele>
        <time>2019-05-12T10:32:37.000Z</time>
      </trkpt>
      <trkpt lat="48.78302" lon="2.08588">
        <ele>167</ele>
        <time>2019-05-12T10:32:38.000Z</time>
      </trkpt>
      <trkpt lat="48.78305" lon="2.08586">
        <ele>167</ele>
        <time>2019-05-12T10:32:39.000Z</time>
      </trkpt>
      <trkpt lat="48.78307" lon="2.08583">
        <ele>167</ele>
        <time>2019-05-12T10:32:40.000Z</time>
      </trkpt>
      <trkpt lat="48.78309" lon="2.08581">
        <ele>167</ele>
        <time>2019-05-12T10:32:42.000Z</time>
      </trkpt>
      <trkpt lat="48.7831" lon="2.0858">
        <ele>167</ele>
        <time>2019-05-12T10:32:43.000Z</time>
      </trkpt>
      <trkpt lat="48.78311" lon="2.08578">
        <ele>167</ele>
        <time>2019-05-12T10:32:45.000Z</time>
      </trkpt>
      <trkpt lat="48.78312" lon="2.08577">
        <ele>167</ele>
        <time>2019-05-12T10:32:46.000Z</time>
      </trkpt>
      <trkpt lat="48.78313" lon="2.08575">
        <ele>167</ele>
        <time>2019-05-12T10:32:48.000Z</time>
      </trkpt>
      <trkpt lat="48.78315" lon="2.08573">
        <ele>167</ele>
        <time>2019-05-12T10:32:49.000Z</time>
      </trkpt>
      <trkpt lat="48.78317" lon="2.08571">
        <ele>167</ele>
        <time>2019-05-12T10:32:50.000Z</time>
      </trkpt>
      <trkpt lat="48.78319" lon="2.08569">
        <ele>167</ele>
        <time>2019-05-12T10:32:51.000Z</time>
      </trkpt>
      <trkpt lat="48.78334" lon="2.0856">
        <ele>168</ele>
        <time>2019-05-12T10:33:03.000Z</time>
      </trkpt>
      <trkpt lat="48.78347" lon="2.08547">
        <ele>168</ele>
        <time>2019-05-12T10:33:19.000Z</time>
      </trkpt>
      <trkpt lat="48.78352" lon="2.08538">
        <ele>168</ele>
        <time>2019-05-12T10:33:26.000Z</time>
      </trkpt>
      <trkpt lat="48.78356" lon="2.08527">
        <ele>168</ele>
        <time>2019-05-12T10:33:32.000Z</time>
      </trkpt>
      <trkpt lat="48.78357" lon="2.08522">
        <ele>169</ele>
        <time>2019-05-12T10:33:34.000Z</time>
      </trkpt>
      <trkpt lat="48.78358" lon="2.08517">
        <ele>169</ele>
        <time>2019-05-12T10:33:36.000Z</time>
      </trkpt>
      <trkpt lat="48.78359" lon="2.08513">
        <ele>169</ele>
        <time>2019-05-12T10:33:38.000Z</time>
      </trkpt>
      <trkpt lat="48.7836" lon="2.08508">
        <ele>169</ele>
        <time>2019-05-12T10:33:40.000Z</time>
      </trkpt>
      <trkpt lat="48.78361" lon="2.08503">
        <ele>169</ele>
        <time>2019-05-12T10:33:44.000Z</time>
      </trkpt>
      <trkpt lat="48.78362" lon="2.08499">
        <ele>169</ele>
        <time>2019-05-12T10:33:47.000Z</time>
      </trkpt>
      <trkpt lat="48.78363" lon="2.08494">
        <ele>169</ele>
        <time>2019-05-12T10:33:50.000Z</time>
      </trkpt>
      <trkpt lat="48.78364" lon="2.08489">
        <ele>169</ele>
        <time>2019-05-12T10:33:53.000Z</time>
      </trkpt>
      <trkpt lat="48.78366" lon="2.08484">
        <ele>169</ele>
        <time>2019-05-12T10:33:57.000Z</time>
      </trkpt>
      <trkpt lat="48.78367" lon="2.0848">
        <ele>169</ele>
        <time>2019-05-12T10:34:01.000Z</time>
      </trkpt>
      <trkpt lat="48.78368" lon="2.08476">
        <ele>169</ele>
        <time>2019-05-12T10:34:05.000Z</time>
      </trkpt>
      <trkpt lat="48.7837" lon="2.08472">
        <ele>169</ele>
        <time>2019-05-12T10:34:08.000Z</time>
      </trkpt>
      <trkpt lat="48.78372" lon="2.08469">
        <ele>169</ele>
        <time>2019-05-12T10:34:11.000Z</time>
      </trkpt>
      <trkpt lat="48.78375" lon="2.08465">
        <ele>169</ele>
        <time>2019-05-12T10:34:14.000Z</time>
      </trkpt>
      <trkpt lat="48.78377" lon="2.08462">
        <ele>169</ele>
        <time>2019-05-12T10:34:17.000Z</time>
      </trkpt>
      <trkpt lat="48.7838" lon="2.08458">
        <ele>169</ele>
        <time>2019-05-12T10:34:19.000Z</time>
      </trkpt>
      <trkpt lat="48.78381" lon="2.08456">
        <ele>170</ele>
        <time>2019-05-12T10:34:22.000Z</time>
      </trkpt>
      <trkpt lat="48.78383" lon="2.08454">
        <ele>170</ele>
        <time>2019-05-12T10:34:25.000Z</time>
      </trkpt>
      <trkpt lat="48.78384" lon="2.08452">
        <ele>170</ele>
        <time>2019-05-12T10:34:28.000Z</time>
      </trkpt>
      <trkpt lat="48.78386" lon="2.08451">
        <ele>170</ele>
        <time>2019-05-12T10:34:30.000Z</time>
      </trkpt>
      <trkpt lat="48.78397" lon="2.08438">
        <ele>170</ele>
        <time>2019-05-12T10:34:37.000Z</time>
      </trkpt>
      <trkpt lat="48.78406" lon="2.08423">
        <ele>170</ele>
        <time>2019-05-12T10:34:52.000Z</time>
      </trkpt>
      <trkpt lat="48.78407" lon="2.08419">
        <ele>170</ele>
        <time>2019-05-12T10:35:20.000Z</time>
      </trkpt>
      <trkpt lat="48.78407" lon="2.08417">
        <ele>170</ele>
        <time>2019-05-12T10:35:47.000Z</time>
      </trkpt>
      <trkpt lat="48.78407" lon="2.08416">
        <ele>170</ele>
        <time>2019-05-12T10:35:48.000Z</time>
      </trkpt>
      <trkpt lat="48.78407" lon="2.08415">
        <ele>170</ele>
        <time>2019-05-12T10:35:48.000Z</time>
      </trkpt>
      <trkpt lat="48.78408" lon="2.08415">
        <ele>170</ele>
        <time>2019-05-12T10:35:48.000Z</time>
      </trkpt>
      <trkpt lat="48.78408" lon="2.08414">
        <ele>170</ele>
        <time>2019-05-12T10:35:48.000Z</time>
      </trkpt>
      <trkpt lat="48.78408" lon="2.08413">
        <ele>170</ele>
        <time>2019-05-12T10:35:50.000Z</time>
      </trkpt>
      <trkpt lat="48.78408" lon="2.08413">
        <ele>170</ele>
        <time>2019-05-12T10:35:51.000Z</time>
      </trkpt>
      <trkpt lat="48.78408" lon="2.08412">
        <ele>170</ele>
        <time>2019-05-12T10:35:53.000Z</time>
      </trkpt>
      <trkpt lat="48.78408" lon="2.08411">
        <ele>170</ele>
        <time>2019-05-12T10:35:54.000Z</time>
      </trkpt>
      <trkpt lat="48.7841" lon="2.08408">
        <ele>170</ele>
        <time>2019-05-12T10:35:57.000Z</time>
      </trkpt>
      <trkpt lat="48.78412" lon="2.08404">
        <ele>170</ele>
        <time>2019-05-12T10:36:00.000Z</time>
      </trkpt>
      <trkpt lat="48.78414" lon="2.084">
        <ele>170</ele>
        <time>2019-05-12T10:36:03.000Z</time>
      </trkpt>
      <trkpt lat="48.78416" lon="2.08395">
        <ele>170</ele>
        <time>2019-05-12T10:36:06.000Z</time>
      </trkpt>
      <trkpt lat="48.78418" lon="2.08393">
        <ele>170</ele>
        <time>2019-05-12T10:36:08.000Z</time>
      </trkpt>
      <trkpt lat="48.7842" lon="2.08391">
        <ele>170</ele>
        <time>2019-05-12T10:36:10.000Z</time>
      </trkpt>
      <trkpt lat="48.78421" lon="2.0839">
        <ele>170</ele>
        <time>2019-05-12T10:36:12.000Z</time>
      </trkpt>
      <trkpt lat="48.78423" lon="2.08389">
        <ele>170</ele>
        <time>2019-05-12T10:36:14.000Z</time>
      </trkpt>
      <trkpt lat="48.78425" lon="2.08387">
        <ele>170</ele>
        <time>2019-05-12T10:36:17.000Z</time>
      </trkpt>
      <trkpt lat="48.78427" lon="2.08385">
        <ele>170</ele>
        <time>2019-05-12T10:36:20.000Z</time>
      </trkpt>
      <trkpt lat="48.78429" lon="2.08382">
        <ele>170</ele>
        <time>2019-05-12T10:36:23.000Z</time>
      </trkpt>
      <trkpt lat="48.78431" lon="2.08379">
        <ele>170</ele>
        <time>2019-05-12T10:36:25.000Z</time>
      </trkpt>
      <trkpt lat="48.78443" lon="2.08368">
        <ele>170</ele>
        <time>2019-05-12T10:36:34.000Z</time>
      </trkpt>
      <trkpt lat="48.78457" lon="2.08358">
        <ele>170</ele>
        <time>2019-05-12T10:36:48.000Z</time>
      </trkpt>
      <trkpt lat="48.78464" lon="2.08354">
        <ele>170</ele>
        <time>2019-05-12T10:36:59.000Z</time>
      </trkpt>
      <trkpt lat="48.78465" lon="2.08354">
        <ele>170</ele>
        <time>2019-05-12T10:37:01.000Z</time>
      </trkpt>
      <trkpt lat="48.78465" lon="2.08354">
        <ele>170</ele>
        <time>2019-05-12T10:37:03.000Z</time>
      </trkpt>
      <trkpt lat="48.78464" lon="2.08354">
        <ele>171</ele>
        <time>2019-05-12T10:37:05.000Z</time>
      </trkpt>
      <trkpt lat="48.78463" lon="2.08354">
        <ele>171</ele>
        <time>2019-05-12T10:37:07.000Z</time>
      </trkpt>
      <trkpt lat="48.78464" lon="2.08354">
        <ele>171</ele>
        <time>2019-05-12T10:37:12.000Z</time>
      </trkpt>
      <trkpt lat="48.78464" lon="2.08354">
        <ele>171</ele>
        <time>2019-05-12T10:37:17.000Z</time>
      </trkpt>
      <trkpt lat="48.78464" lon="2.08354">
        <ele>171</ele>
        <time>2019-05-12T10:37:22.000Z</time>
      </trkpt>
      <trkpt lat="48.78464" lon="2.08353">
        <ele>171</ele>
        <time>2019-05-12T10:37:26.000Z</time>
      </trkpt>
      <trkpt lat="48.78465" lon="2.08353">
        <ele>171</ele>
        <time>2019-05-12T10:37:27.000Z</time>
      </trkpt>
      <trkpt lat="48.78465" lon="2.08353">
        <ele>171</ele>
        <time>2019-05-12T10:37:27.000Z</time>
      </trkpt>
      <trkpt lat="48.78465" lon="2.08353">
        <ele>171</ele>
        <time>2019-05-12T10:37:27.000Z</time>
      </trkpt>
      <trkpt lat="48.78465" lon="2.08353">
        <ele>171</ele>
        <time>2019-05-12T10:37:27.000Z</time>
      </trkpt>
      <trkpt lat="48.78466" lon="2.08352">
        <ele>171</ele>
        <time>2019-05-12T10:37:28.000Z</time>
      </trkpt>
      <trkpt lat="48.78466" lon="2.08351">
        <ele>171</ele>
        <time>2019-05-12T10:37:29.000Z</time>
      </trkpt>
      <trkpt lat="48.78468" lon="2.0835">
        <ele>171</ele>
        <time>2019-05-12T10:37:30.000Z</time>
      </trkpt>
      <trkpt lat="48.78469" lon="2.08349">
        <ele>171</ele>
        <time>2019-05-12T10:37:31.000Z</time>
      </trkpt>
      <trkpt lat="48.78471" lon="2.08347">
        <ele>171</ele>
        <time>2019-05-12T10:37:32.000Z</time>
      </trkpt>
      <trkpt lat="48.78475" lon="2.08345">
        <ele>171</ele>
        <time>2019-05-12T10:37:33.000Z</time>
      </trkpt>
      <trkpt lat="48.78478" lon="2.08343">
        <ele>171</ele>
        <time>2019-05-12T10:37:34.000Z</time>
      </trkpt>
      <trkpt lat="48.78482" lon="2.0834">
        <ele>171</ele>
        <time>2019-05-12T10:37:35.000Z</time>
      </trkpt>
      <trkpt lat="48.78484" lon="2.08339">
        <ele>171</ele>
        <time>2019-05-12T10:37:37.000Z</time>
      </trkpt>
      <trkpt lat="48.78486" lon="2.08338">
        <ele>171</ele>
        <time>2019-05-12T10:37:39.000Z</time>
      </trkpt>
      <trkpt lat="48.78487" lon="2.08338">
        <ele>171</ele>
        <time>2019-05-12T10:37:41.000Z</time>
      </trkpt>
      <trkpt lat="48.78487" lon="2.08338">
        <ele>171</ele>
        <time>2019-05-12T10:37:42.000Z</time>
      </trkpt>
      <trkpt lat="48.78489" lon="2.08337">
        <ele>171</ele>
        <time>2019-05-12T10:37:47.000Z</time>
      </trkpt>
      <trkpt lat="48.7849" lon="2.08337">
        <ele>171</ele>
        <time>2019-05-12T10:37:52.000Z</time>
      </trkpt>
      <trkpt lat="48.78491" lon="2.08337">
        <ele>171</ele>
        <time>2019-05-12T10:37:57.000Z</time>
      </trkpt>
      <trkpt lat="48.78492" lon="2.08337">
        <ele>171</ele>
        <time>2019-05-12T10:38:01.000Z</time>
      </trkpt>
      <trkpt lat="48.78494" lon="2.08337">
        <ele>171</ele>
        <time>2019-05-12T10:38:02.000Z</time>
      </trkpt>
      <trkpt lat="48.78503" lon="2.08335">
        <ele>171</ele>
        <time>2019-05-12T10:38:16.000Z</time>
      </trkpt>
      <trkpt lat="48.78513" lon="2.08329">
        <ele>171</ele>
        <time>2019-05-12T10:38:24.000Z</time>
      </trkpt>
      <trkpt lat="48.78519" lon="2.08326">
        <ele>171</ele>
        <time>2019-05-12T10:38:33.000Z</time>
      </trkpt>
      <trkpt lat="48.78521" lon="2.08325">
        <ele>171</ele>
        <time>2019-05-12T10:38:35.000Z</time>
      </trkpt>
      <trkpt lat="48.78533" lon="2.08321">
        <ele>171</ele>
        <time>2019-05-12T10:38:38.000Z</time>
      </trkpt>
      <trkpt lat="48.78545" lon="2.08318">
        <ele>171</ele>
        <time>2019-05-12T10:38:45.000Z</time>
      </trkpt>
      <trkpt lat="48.78547" lon="2.08317">
        <ele>171</ele>
        <time>2019-05-12T10:39:06.000Z</time>
      </trkpt>
      <trkpt lat="48.78547" lon="2.08316">
        <ele>171</ele>
        <time>2019-05-12T10:39:07.000Z</time>
      </trkpt>
      <trkpt lat="48.78552" lon="2.08312">
        <ele>171</ele>
        <time>2019-05-12T10:39:09.000Z</time>
      </trkpt>
      <trkpt lat="48.78559" lon="2.08304">
        <ele>171</ele>
        <time>2019-05-12T10:39:12.000Z</time>
      </trkpt>
      <trkpt lat="48.78567" lon="2.08294">
        <ele>170</ele>
        <time>2019-05-12T10:39:16.000Z</time>
      </trkpt>
      <trkpt lat="48.78572" lon="2.08292">
        <ele>170</ele>
        <time>2019-05-12T10:39:21.000Z</time>
      </trkpt>
      <trkpt lat="48.78579" lon="2.0829">
        <ele>170</ele>
        <time>2019-05-12T10:39:25.000Z</time>
      </trkpt>
      <trkpt lat="48.7858" lon="2.0829">
        <ele>170</ele>
        <time>2019-05-12T10:39:27.000Z</time>
      </trkpt>
      <trkpt lat="48.78581" lon="2.08289">
        <ele>170</ele>
        <time>2019-05-12T10:39:29.000Z</time>
      </trkpt>
      <trkpt lat="48.78582" lon="2.08289">
        <ele>170</ele>
        <time>2019-05-12T10:39:31.000Z</time>
      </trkpt>
      <trkpt lat="48.78582" lon="2.08289">
        <ele>170</ele>
        <time>2019-05-12T10:39:32.000Z</time>
      </trkpt>
      <trkpt lat="48.78583" lon="2.08289">
        <ele>170</ele>
        <time>2019-05-12T10:39:33.000Z</time>
      </trkpt>
      <trkpt lat="48.78584" lon="2.08289">
        <ele>170</ele>
        <time>2019-05-12T10:39:34.000Z</time>
      </trkpt>
      <trkpt lat="48.78584" lon="2.08289">
        <ele>170</ele>
        <time>2019-05-12T10:39:35.000Z</time>
      </trkpt>
      <trkpt lat="48.78584" lon="2.08289">
        <ele>170</ele>
        <time>2019-05-12T10:39:35.000Z</time>
      </trkpt>
      <trkpt lat="48.78585" lon="2.08289">
        <ele>170</ele>
        <time>2019-05-12T10:39:36.000Z</time>
      </trkpt>
      <trkpt lat="48.78585" lon="2.08289">
        <ele>170</ele>
        <time>2019-05-12T10:39:36.000Z</time>
      </trkpt>
      <trkpt lat="48.78585" lon="2.08289">
        <ele>170</ele>
        <time>2019-05-12T10:39:37.000Z</time>
      </trkpt>
      <trkpt lat="48.78586" lon="2.08289">
        <ele>170</ele>
        <time>2019-05-12T10:39:37.000Z</time>
      </trkpt>
      <trkpt lat="48.78587" lon="2.08288">
        <ele>170</ele>
        <time>2019-05-12T10:39:38.000Z</time>
      </trkpt>
      <trkpt lat="48.78589" lon="2.08287">
        <ele>170</ele>
        <time>2019-05-12T10:39:38.000Z</time>
      </trkpt>
      <trkpt lat="48.78592" lon="2.08286">
        <ele>170</ele>
        <time>2019-05-12T10:39:39.000Z</time>
      </trkpt>
      <trkpt lat="48.78594" lon="2.08285">
        <ele>170</ele>
        <time>2019-05-12T10:39:39.000Z</time>
      </trkpt>
      <trkpt lat="48.78597" lon="2.08284">
        <ele>170</ele>
        <time>2019-05-12T10:39:41.000Z</time>
      </trkpt>
      <trkpt lat="48.78601" lon="2.08282">
        <ele>170</ele>
        <time>2019-05-12T10:39:42.000Z</time>
      </trkpt>
      <trkpt lat="48.78605" lon="2.0828">
        <ele>170</ele>
        <time>2019-05-12T10:39:44.000Z</time>
      </trkpt>
      <trkpt lat="48.78608" lon="2.08278">
        <ele>170</ele>
        <time>2019-05-12T10:39:45.000Z</time>
      </trkpt>
      <trkpt lat="48.78612" lon="2.08275">
        <ele>170</ele>
        <time>2019-05-12T10:39:50.000Z</time>
      </trkpt>
      <trkpt lat="48.78621" lon="2.08273">
        <ele>170</ele>
        <time>2019-05-12T10:39:53.000Z</time>
      </trkpt>
      <trkpt lat="48.78626" lon="2.08273">
        <ele>170</ele>
        <time>2019-05-12T10:39:57.000Z</time>
      </trkpt>
      <trkpt lat="48.78627" lon="2.08273">
        <ele>170</ele>
        <time>2019-05-12T10:40:39.000Z</time>
      </trkpt>
      <trkpt lat="48.78629" lon="2.08272">
        <ele>170</ele>
        <time>2019-05-12T10:40:40.000Z</time>
      </trkpt>
      <trkpt lat="48.78634" lon="2.0827">
        <ele>170</ele>
        <time>2019-05-12T10:40:42.000Z</time>
      </trkpt>
      <trkpt lat="48.78643" lon="2.08268">
        <ele>170</ele>
        <time>2019-05-12T10:40:47.000Z</time>
      </trkpt>
      <trkpt lat="48.78643" lon="2.08268">
        <ele>170</ele>
        <time>2019-05-12T10:40:49.000Z</time>
      </trkpt>
      <trkpt lat="48.78645" lon="2.08268">
        <ele>170</ele>
        <time>2019-05-12T10:41:05.000Z</time>
      </trkpt>
      <trkpt lat="48.78647" lon="2.08268">
        <ele>170</ele>
        <time>2019-05-12T10:41:06.000Z</time>
      </trkpt>
      <trkpt lat="48.7866" lon="2.08259">
        <ele>170</ele>
        <time>2019-05-12T10:41:20.000Z</time>
      </trkpt>
      <trkpt lat="48.78661" lon="2.08258">
        <ele>170</ele>
        <time>2019-05-12T10:41:58.000Z</time>
      </trkpt>
      <trkpt lat="48.78661" lon="2.08256">
        <ele>171</ele>
        <time>2019-05-12T10:42:35.000Z</time>
      </trkpt>
      <trkpt lat="48.7866" lon="2.08255">
        <ele>171</ele>
        <time>2019-05-12T10:43:12.000Z</time>
      </trkpt>
      <trkpt lat="48.78659" lon="2.08253">
        <ele>172</ele>
        <time>2019-05-12T10:43:49.000Z</time>
      </trkpt>
      <trkpt lat="48.78658" lon="2.08252">
        <ele>172</ele>
        <time>2019-05-12T10:43:50.000Z</time>
      </trkpt>
      <trkpt lat="48.78658" lon="2.08251">
        <ele>172</ele>
        <time>2019-05-12T10:43:50.000Z</time>
      </trkpt>
      <trkpt lat="48.78658" lon="2.0825">
        <ele>172</ele>
        <time>2019-05-12T10:43:50.000Z</time>
      </trkpt>
      <trkpt lat="48.78658" lon="2.08249">
        <ele>172</ele>
        <time>2019-05-12T10:43:50.000Z</time>
      </trkpt>
      <trkpt lat="48.78658" lon="2.08248">
        <ele>172</ele>
        <time>2019-05-12T10:43:51.000Z</time>
      </trkpt>
      <trkpt lat="48.78658" lon="2.08246">
        <ele>172</ele>
        <time>2019-05-12T10:43:52.000Z</time>
      </trkpt>
      <trkpt lat="48.78657" lon="2.08245">
        <ele>172</ele>
        <time>2019-05-12T10:43:53.000Z</time>
      </trkpt>
      <trkpt lat="48.78657" lon="2.08243">
        <ele>172</ele>
        <time>2019-05-12T10:43:54.000Z</time>
      </trkpt>
      <trkpt lat="48.78659" lon="2.08236">
        <ele>172</ele>
        <time>2019-05-12T10:43:59.000Z</time>
      </trkpt>
      <trkpt lat="48.78662" lon="2.08228">
        <ele>172</ele>
        <time>2019-05-12T10:44:04.000Z</time>
      </trkpt>
      <trkpt lat="48.78663" lon="2.08226">
        <ele>172</ele>
        <time>2019-05-12T10:44:07.000Z</time>
      </trkpt>
      <trkpt lat="48.78663" lon="2.08227">
        <ele>172</ele>
        <time>2019-05-12T10:44:09.000Z</time>
      </trkpt>
      <trkpt lat="48.78664" lon="2.08227">
        <ele>172</ele>
        <time>2019-05-12T10:44:10.000Z</time>
      </trkpt>
      <trkpt lat="48.78664" lon="2.08227">
        <ele>172</ele>
        <time>2019-05-12T10:44:11.000Z</time>
      </trkpt>
      <trkpt lat="48.78664" lon="2.08227">
        <ele>172</ele>
        <time>2019-05-12T10:44:12.000Z</time>
      </trkpt>
      <trkpt lat="48.78664" lon="2.08227">
        <ele>172</ele>
        <time>2019-05-12T10:44:12.000Z</time>
      </trkpt>
      <trkpt lat="48.78667" lon="2.08226">
        <ele>172</ele>
        <time>2019-05-12T10:44:44.000Z</time>
      </trkpt>
      <trkpt lat="48.7867" lon="2.08225">
        <ele>173</ele>
        <time>2019-05-12T10:45:16.000Z</time>
      </trkpt>
      <trkpt lat="48.78674" lon="2.08224">
        <ele>173</ele>
        <time>2019-05-12T10:45:48.000Z</time>
      </trkpt>
      <trkpt lat="48.78679" lon="2.08223">
        <ele>173</ele>
        <time>2019-05-12T10:46:19.000Z</time>
      </trkpt>
      <trkpt lat="48.78681" lon="2.08222">
        <ele>173</ele>
        <time>2019-05-12T10:46:20.000Z</time>
      </trkpt>
      <trkpt lat="48.78684" lon="2.08222">
        <ele>173</ele>
        <time>2019-05-12T10:46:20.000Z</time>
      </trkpt>
      <trkpt lat="48.78685" lon="2.08221">
        <ele>173</ele>
        <time>2019-05-12T10:46:20.000Z</time>
      </trkpt>
      <trkpt lat="48.78687" lon="2.08221">
        <ele>173</ele>
        <time>2019-05-12T10:46:20.000Z</time>
      </trkpt>
      <trkpt lat="48.78689" lon="2.0822">
        <ele>173</ele>
        <time>2019-05-12T10:46:21.000Z</time>
      </trkpt>
      <trkpt lat="48.78691" lon="2.0822">
        <ele>173</ele>
        <time>2019-05-12T10:46:22.000Z</time>
      </trkpt>
      <trkpt lat="48.78693" lon="2.08219">
        <ele>173</ele>
        <time>2019-05-12T10:46:23.000Z</time>
      </trkpt>
      <trkpt lat="48.78696" lon="2.08219">
        <ele>173</ele>
        <time>2019-05-12T10:46:23.000Z</time>
      </trkpt>
      <trkpt lat="48.78698" lon="2.08219">
        <ele>173</ele>
        <time>2019-05-12T10:46:24.000Z</time>
      </trkpt>
      <trkpt lat="48.78699" lon="2.08218">
        <ele>173</ele>
        <time>2019-05-12T10:46:24.000Z</time>
      </trkpt>
      <trkpt lat="48.78701" lon="2.08218">
        <ele>173</ele>
        <time>2019-05-12T10:46:25.000Z</time>
      </trkpt>
      <trkpt lat="48.78702" lon="2.08218">
        <ele>173</ele>
        <time>2019-05-12T10:46:25.000Z</time>
      </trkpt>
      <trkpt lat="48.78706" lon="2.08218">
        <ele>173</ele>
        <time>2019-05-12T10:46:27.000Z</time>
      </trkpt>
      <trkpt lat="48.7871" lon="2.08218">
        <ele>174</ele>
        <time>2019-05-12T10:46:33.000Z</time>
      </trkpt>
      <trkpt lat="48.78715" lon="2.08219">
        <ele>174</ele>
        <time>2019-05-12T10:46:37.000Z</time>
      </trkpt>
      <trkpt lat="48.78728" lon="2.08224">
        <ele>174</ele>
        <time>2019-05-12T10:46:42.000Z</time>
      </trkpt>
      <trkpt lat="48.7874" lon="2.08227">
        <ele>174</ele>
        <time>2019-05-12T10:46:49.000Z</time>
      </trkpt>
      <trkpt lat="48.78746" lon="2.08223">
        <ele>174</ele>
        <time>2019-05-12T10:46:58.000Z</time>
      </trkpt>
      <trkpt lat="48.78753" lon="2.08216">
        <ele>174</ele>
        <time>2019-05-12T10:47:06.000Z</time>
      </trkpt>
      <trkpt lat="48.78756" lon="2.08215">
        <ele>174</ele>
        <time>2019-05-12T10:47:08.000Z</time>
      </trkpt>
      <trkpt lat="48.78758" lon="2.08215">
        <ele>174</ele>
        <time>2019-05-12T10:47:10.000Z</time>
      </trkpt>
      <trkpt lat="48.78761" lon="2.08215">
        <ele>174</ele>
        <time>2019-05-12T10:47:12.000Z</time>
      </trkpt>
      <trkpt lat="48.78763" lon="2.08215">
        <ele>174</ele>
        <time>2019-05-12T10:47:14.000Z</time>
      </trkpt>
      <trkpt lat="48.78765" lon="2.08214">
        <ele>174</ele>
        <time>2019-05-12T10:47:16.000Z</time>
      </trkpt>
      <trkpt lat="48.78767" lon="2.08213">
        <ele>174</ele>
        <time>2019-05-12T10:47:18.000Z</time>
      </trkpt>
      <trkpt lat="48.7877" lon="2.08212">
        <ele>174</ele>
        <time>2019-05-12T10:47:20.000Z</time>
      </trkpt>
      <trkpt lat="48.78772" lon="2.08211">
        <ele>174</ele>
        <time>2019-05-12T10:47:21.000Z</time>
      </trkpt>
      <trkpt lat="48.78775" lon="2.08209">
        <ele>174</ele>
        <time>2019-05-12T10:47:25.000Z</time>
      </trkpt>
      <trkpt lat="48.78779" lon="2.08207">
        <ele>174</ele>
        <time>2019-05-12T10:47:28.000Z</time>
      </trkpt>
      <trkpt lat="48.78782" lon="2.08204">
        <ele>174</ele>
        <time>2019-05-12T10:47:32.000Z</time>
      </trkpt>
      <trkpt lat="48.78786" lon="2.08202">
        <ele>174</ele>
        <time>2019-05-12T10:47:35.000Z</time>
      </trkpt>
      <trkpt lat="48.78791" lon="2.08193">
        <ele>174</ele>
        <time>2019-05-12T10:47:47.000Z</time>
      </trkpt>
      <trkpt lat="48.78795" lon="2.08182">
        <ele>174</ele>
        <time>2019-05-12T10:47:59.000Z</time>
      </trkpt>
      <trkpt lat="48.78795" lon="2.08178">
        <ele>174</ele>
        <time>2019-05-12T10:48:02.000Z</time>
      </trkpt>
      <trkpt lat="48.78793" lon="2.08175">
        <ele>174</ele>
        <time>2019-05-12T10:48:05.000Z</time>
      </trkpt>
      <trkpt lat="48.7879" lon="2.08172">
        <ele>174</ele>
        <time>2019-05-12T10:48:08.000Z</time>
      </trkpt>
      <trkpt lat="48.78787" lon="2.0817">
        <ele>174</ele>
        <time>2019-05-12T10:48:10.000Z</time>
      </trkpt>
      <trkpt lat="48.78784" lon="2.08167">
        <ele>174</ele>
        <time>2019-05-12T10:48:13.000Z</time>
      </trkpt>
      <trkpt lat="48.78781" lon="2.08165">
        <ele>174</ele>
        <time>2019-05-12T10:48:16.000Z</time>
      </trkpt>
      <trkpt lat="48.78778" lon="2.08163">
        <ele>175</ele>
        <time>2019-05-12T10:48:19.000Z</time>
      </trkpt>
      <trkpt lat="48.78775" lon="2.0816">
        <ele>175</ele>
        <time>2019-05-12T10:48:21.000Z</time>
      </trkpt>
      <trkpt lat="48.78772" lon="2.08158">
        <ele>175</ele>
        <time>2019-05-12T10:48:26.000Z</time>
      </trkpt>
      <trkpt lat="48.78769" lon="2.08155">
        <ele>175</ele>
        <time>2019-05-12T10:48:30.000Z</time>
      </trkpt>
      <trkpt lat="48.78766" lon="2.08153">
        <ele>175</ele>
        <time>2019-05-12T10:48:34.000Z</time>
      </trkpt>
      <trkpt lat="48.78763" lon="2.0815">
        <ele>175</ele>
        <time>2019-05-12T10:48:38.000Z</time>
      </trkpt>
      <trkpt lat="48.7876" lon="2.08148">
        <ele>175</ele>
        <time>2019-05-12T10:48:41.000Z</time>
      </trkpt>
      <trkpt lat="48.78758" lon="2.08145">
        <ele>175</ele>
        <time>2019-05-12T10:48:43.000Z</time>
      </trkpt>
      <trkpt lat="48.78755" lon="2.08143">
        <ele>175</ele>
        <time>2019-05-12T10:48:45.000Z</time>
      </trkpt>
      <trkpt lat="48.78752" lon="2.0814">
        <ele>175</ele>
        <time>2019-05-12T10:48:47.000Z</time>
      </trkpt>
      <trkpt lat="48.78749" lon="2.08139">
        <ele>175</ele>
        <time>2019-05-12T10:48:50.000Z</time>
      </trkpt>
      <trkpt lat="48.78746" lon="2.08137">
        <ele>175</ele>
        <time>2019-05-12T10:48:52.000Z</time>
      </trkpt>
      <trkpt lat="48.78743" lon="2.08136">
        <ele>175</ele>
        <time>2019-05-12T10:48:55.000Z</time>
      </trkpt>
      <trkpt lat="48.7874" lon="2.08135">
        <ele>175</ele>
        <time>2019-05-12T10:48:57.000Z</time>
      </trkpt>
      <trkpt lat="48.78738" lon="2.08134">
        <ele>175</ele>
        <time>2019-05-12T10:48:59.000Z</time>
      </trkpt>
      <trkpt lat="48.78736" lon="2.08134">
        <ele>175</ele>
        <time>2019-05-12T10:49:01.000Z</time>
      </trkpt>
      <trkpt lat="48.78735" lon="2.08133">
        <ele>175</ele>
        <time>2019-05-12T10:49:03.000Z</time>
      </trkpt>
      <trkpt lat="48.78733" lon="2.08132">
        <ele>175</ele>
        <time>2019-05-12T10:49:05.000Z</time>
      </trkpt>
      <trkpt lat="48.78727" lon="2.08129">
        <ele>175</ele>
        <time>2019-05-12T10:49:09.000Z</time>
      </trkpt>
      <trkpt lat="48.78717" lon="2.08124">
        <ele>175</ele>
        <time>2019-05-12T10:49:14.000Z</time>
      </trkpt>
      <trkpt lat="48.78704" lon="2.08119">
        <ele>175</ele>
        <time>2019-05-12T10:49:21.000Z</time>
      </trkpt>
      <trkpt lat="48.78691" lon="2.08117">
        <ele>175</ele>
        <time>2019-05-12T10:49:33.000Z</time>
      </trkpt>
      <trkpt lat="48.7868" lon="2.08117">
        <ele>175</ele>
        <time>2019-05-12T10:49:44.000Z</time>
      </trkpt>
      <trkpt lat="48.78667" lon="2.08119">
        <ele>175</ele>
        <time>2019-05-12T10:49:54.000Z</time>
      </trkpt>
      <trkpt lat="48.78666" lon="2.0812">
        <ele>175</ele>
        <time>2019-05-12T10:49:59.000Z</time>
      </trkpt>
      <trkpt lat="48.78666" lon="2.0812">
        <ele>175</ele>
        <time>2019-05-12T10:50:09.000Z</time>
      </trkpt>
      <trkpt lat="48.78666" lon="2.0812">
        <ele>175</ele>
        <time>2019-05-12T10:50:19.000Z</time>
      </trkpt>
      <trkpt lat="48.78666" lon="2.0812">
        <ele>176</ele>
        <time>2019-05-12T10:50:29.000Z</time>
      </trkpt>
      <trkpt lat="48.78665" lon="2.0812">
        <ele>176</ele>
        <time>2019-05-12T10:50:39.000Z</time>
      </trkpt>
      <trkpt lat="48.78665" lon="2.0812">
        <ele>176</ele>
        <time>2019-05-12T10:50:40.000Z</time>
      </trkpt>
      <trkpt lat="48.78665" lon="2.08119">
        <ele>176</ele>
        <time>2019-05-12T10:50:40.000Z</time>
      </trkpt>
      <trkpt lat="48.78665" lon="2.08119">
        <ele>176</ele>
        <time>2019-05-12T10:50:40.000Z</time>
      </trkpt>
      <trkpt lat="48.78664" lon="2.08119">
        <ele>176</ele>
        <time>2019-05-12T10:50:40.000Z</time>
      </trkpt>
      <trkpt lat="48.78663" lon="2.08119">
        <ele>176</ele>
        <time>2019-05-12T10:50:42.000Z</time>
      </trkpt>
      <trkpt lat="48.7866" lon="2.08119">
        <ele>176</ele>
        <time>2019-05-12T10:50:44.000Z</time>
      </trkpt>
      <trkpt lat="48.78657" lon="2.08119">
        <ele>176</ele>
        <time>2019-05-12T10:50:46.000Z</time>
      </trkpt>
      <trkpt lat="48.78654" lon="2.08119">
        <ele>176</ele>
        <time>2019-05-12T10:50:48.000Z</time>
      </trkpt>
      <trkpt lat="48.78651" lon="2.0812">
        <ele>176</ele>
        <time>2019-05-12T10:50:50.000Z</time>
      </trkpt>
      <trkpt lat="48.78648" lon="2.0812">
        <ele>176</ele>
        <time>2019-05-12T10:50:52.000Z</time>
      </trkpt>
      <trkpt lat="48.78645" lon="2.08121">
        <ele>176</ele>
        <time>2019-05-12T10:50:54.000Z</time>
      </trkpt>
      <trkpt lat="48.78642" lon="2.08122">
        <ele>176</ele>
        <time>2019-05-12T10:50:56.000Z</time>
      </trkpt>
      <trkpt lat="48.78639" lon="2.08124">
        <ele>176</ele>
        <time>2019-05-12T10:50:59.000Z</time>
      </trkpt>
      <trkpt lat="48.78636" lon="2.08126">
        <ele>176</ele>
        <time>2019-05-12T10:51:01.000Z</time>
      </trkpt>
      <trkpt lat="48.78634" lon="2.08128">
        <ele>176</ele>
        <time>2019-05-12T10:51:03.000Z</time>
      </trkpt>
      <trkpt lat="48.78631" lon="2.0813">
        <ele>176</ele>
        <time>2019-05-12T10:51:05.000Z</time>
      </trkpt>
      <trkpt lat="48.78629" lon="2.08132">
        <ele>176</ele>
        <time>2019-05-12T10:51:08.000Z</time>
      </trkpt>
      <trkpt lat="48.78626" lon="2.08133">
        <ele>176</ele>
        <time>2019-05-12T10:51:10.000Z</time>
      </trkpt>
      <trkpt lat="48.78623" lon="2.08135">
        <ele>176</ele>
        <time>2019-05-12T10:51:13.000Z</time>
      </trkpt>
      <trkpt lat="48.78621" lon="2.08137">
        <ele>176</ele>
        <time>2019-05-12T10:51:15.000Z</time>
      </trkpt>
      <trkpt lat="48.78612" lon="2.08142">
        <ele>176</ele>
        <time>2019-05-12T10:51:28.000Z</time>
      </trkpt>
      <trkpt lat="48.78603" lon="2.08143">
        <ele>177</ele>
        <time>2019-05-12T10:51:36.000Z</time>
      </trkpt>
      <trkpt lat="48.7859" lon="2.08144">
        <ele>177</ele>
        <time>2019-05-12T10:51:45.000Z</time>
      </trkpt>
      <trkpt lat="48.78587" lon="2.08141">
        <ele>177</ele>
        <time>2019-05-12T10:51:50.000Z</time>
      </trkpt>
      <trkpt lat="48.78584" lon="2.08138">
        <ele>177</ele>
        <time>2019-05-12T10:51:54.000Z</time>
      </trkpt>
      <trkpt lat="48.78582" lon="2.08134">
        <ele>177</ele>
        <time>2019-05-12T10:51:59.000Z</time>
      </trkpt>
      <trkpt lat="48.78579" lon="2.0813">
        <ele>177</ele>
        <time>2019-05-12T10:52:03.000Z</time>
      </trkpt>
      <trkpt lat="48.78577" lon="2.08127">
        <ele>177</ele>
        <time>2019-05-12T10:52:07.000Z</time>
      </trkpt>
      <trkpt lat="48.78575" lon="2.08123">
        <ele>177</ele>
        <time>2019-05-12T10:52:11.000Z</time>
      </trkpt>
      <trkpt lat="48.78573" lon="2.0812">
        <ele>177</ele>
        <time>2019-05-12T10:52:15.000Z</time>
      </trkpt>
      <trkpt lat="48.78571" lon="2.08117">
        <ele>177</ele>
        <time>2019-05-12T10:52:18.000Z</time>
      </trkpt>
      <trkpt lat="48.78568" lon="2.08114">
        <ele>177</ele>
        <time>2019-05-12T10:52:21.000Z</time>
      </trkpt>
      <trkpt lat="48.78565" lon="2.08111">
        <ele>177</ele>
        <time>2019-05-12T10:52:24.000Z</time>
      </trkpt>
      <trkpt lat="48.78562" lon="2.08109">
        <ele>177</ele>
        <time>2019-05-12T10:52:27.000Z</time>
      </trkpt>
      <trkpt lat="48.78559" lon="2.08106">
        <ele>177</ele>
        <time>2019-05-12T10:52:30.000Z</time>
      </trkpt>
      <trkpt lat="48.78555" lon="2.08099">
        <ele>177</ele>
        <time>2019-05-12T10:52:37.000Z</time>
      </trkpt>
      <trkpt lat="48.78552" lon="2.08092">
        <ele>177</ele>
        <time>2019-05-12T10:52:44.000Z</time>
      </trkpt>
      <trkpt lat="48.7855" lon="2.08089">
        <ele>177</ele>
        <time>2019-05-12T10:52:47.000Z</time>
      </trkpt>
      <trkpt lat="48.78548" lon="2.08086">
        <ele>177</ele>
        <time>2019-05-12T10:52:49.000Z</time>
      </trkpt>
      <trkpt lat="48.78547" lon="2.08083">
        <ele>177</ele>
        <time>2019-05-12T10:52:51.000Z</time>
      </trkpt>
      <trkpt lat="48.78545" lon="2.08081">
        <ele>177</ele>
        <time>2019-05-12T10:52:53.000Z</time>
      </trkpt>
      <trkpt lat="48.78544" lon="2.08079">
        <ele>177</ele>
        <time>2019-05-12T10:52:55.000Z</time>
      </trkpt>
      <trkpt lat="48.78544" lon="2.08078">
        <ele>177</ele>
        <time>2019-05-12T10:52:56.000Z</time>
      </trkpt>
      <trkpt lat="48.78543" lon="2.08078">
        <ele>177</ele>
        <time>2019-05-12T10:52:58.000Z</time>
      </trkpt>
      <trkpt lat="48.78543" lon="2.08077">
        <ele>177</ele>
        <time>2019-05-12T10:52:59.000Z</time>
      </trkpt>
      <trkpt lat="48.78542" lon="2.08075">
        <ele>177</ele>
        <time>2019-05-12T10:53:00.000Z</time>
      </trkpt>
      <trkpt lat="48.7854" lon="2.08073">
        <ele>177</ele>
        <time>2019-05-12T10:53:00.000Z</time>
      </trkpt>
      <trkpt lat="48.78539" lon="2.08071">
        <ele>177</ele>
        <time>2019-05-12T10:53:00.000Z</time>
      </trkpt>
      <trkpt lat="48.78537" lon="2.08069">
        <ele>177</ele>
        <time>2019-05-12T10:53:00.000Z</time>
      </trkpt>
      <trkpt lat="48.78536" lon="2.08066">
        <ele>177</ele>
        <time>2019-05-12T10:53:02.000Z</time>
      </trkpt>
      <trkpt lat="48.78535" lon="2.08064">
        <ele>177</ele>
        <time>2019-05-12T10:53:03.000Z</time>
      </trkpt>
      <trkpt lat="48.78533" lon="2.08061">
        <ele>177</ele>
        <time>2019-05-12T10:53:04.000Z</time>
      </trkpt>
      <trkpt lat="48.78532" lon="2.08059">
        <ele>177</ele>
        <time>2019-05-12T10:53:05.000Z</time>
      </trkpt>
      <trkpt lat="48.78531" lon="2.08057">
        <ele>177</ele>
        <time>2019-05-12T10:53:06.000Z</time>
      </trkpt>
      <trkpt lat="48.78531" lon="2.08056">
        <ele>177</ele>
        <time>2019-05-12T10:53:06.000Z</time>
      </trkpt>
      <trkpt lat="48.7853" lon="2.08055">
        <ele>177</ele>
        <time>2019-05-12T10:53:06.000Z</time>
      </trkpt>
      <trkpt lat="48.78529" lon="2.08054">
        <ele>177</ele>
        <time>2019-05-12T10:53:06.000Z</time>
      </trkpt>
      <trkpt lat="48.78522" lon="2.0804">
        <ele>177</ele>
        <time>2019-05-12T10:53:14.000Z</time>
      </trkpt>
      <trkpt lat="48.78517" lon="2.08032">
        <ele>177</ele>
        <time>2019-05-12T10:53:23.000Z</time>
      </trkpt>
      <trkpt lat="48.78516" lon="2.08029">
        <ele>177</ele>
        <time>2019-05-12T10:53:27.000Z</time>
      </trkpt>
      <trkpt lat="48.78515" lon="2.08027">
        <ele>177</ele>
        <time>2019-05-12T10:53:28.000Z</time>
      </trkpt>
      <trkpt lat="48.78514" lon="2.08025">
        <ele>177</ele>
        <time>2019-05-12T10:53:29.000Z</time>
      </trkpt>
      <trkpt lat="48.78514" lon="2.08025">
        <ele>177</ele>
        <time>2019-05-12T10:53:36.000Z</time>
      </trkpt>
      <trkpt lat="48.78513" lon="2.08025">
        <ele>177</ele>
        <time>2019-05-12T10:53:37.000Z</time>
      </trkpt>
      <trkpt lat="48.78513" lon="2.08025">
        <ele>177</ele>
        <time>2019-05-12T10:53:39.000Z</time>
      </trkpt>
      <trkpt lat="48.78512" lon="2.08022">
        <ele>177</ele>
        <time>2019-05-12T10:53:43.000Z</time>
      </trkpt>
      <trkpt lat="48.78511" lon="2.0802">
        <ele>177</ele>
        <time>2019-05-12T10:53:44.000Z</time>
      </trkpt>
      <trkpt lat="48.78508" lon="2.08015">
        <ele>177</ele>
        <time>2019-05-12T10:53:47.000Z</time>
      </trkpt>
      <trkpt lat="48.78504" lon="2.08009">
        <ele>177</ele>
        <time>2019-05-12T10:53:49.000Z</time>
      </trkpt>
      <trkpt lat="48.78502" lon="2.08002">
        <ele>177</ele>
        <time>2019-05-12T10:53:53.000Z</time>
      </trkpt>
      <trkpt lat="48.785" lon="2.07998">
        <ele>177</ele>
        <time>2019-05-12T10:53:54.000Z</time>
      </trkpt>
      <trkpt lat="48.78498" lon="2.07995">
        <ele>177</ele>
        <time>2019-05-12T10:53:55.000Z</time>
      </trkpt>
      <trkpt lat="48.78497" lon="2.07993">
        <ele>177</ele>
        <time>2019-05-12T10:53:56.000Z</time>
      </trkpt>
      <trkpt lat="48.78496" lon="2.07991">
        <ele>177</ele>
        <time>2019-05-12T10:53:57.000Z</time>
      </trkpt>
      <trkpt lat="48.78479" lon="2.07956">
        <ele>177</ele>
        <time>2019-05-12T10:54:06.000Z</time>
      </trkpt>
      <trkpt lat="48.78471" lon="2.07939">
        <ele>177</ele>
        <time>2019-05-12T10:54:09.000Z</time>
      </trkpt>
      <trkpt lat="48.78468" lon="2.07933">
        <ele>177</ele>
        <time>2019-05-12T10:54:14.000Z</time>
      </trkpt>
      <trkpt lat="48.78458" lon="2.07917">
        <ele>177</ele>
        <time>2019-05-12T10:54:28.000Z</time>
      </trkpt>
      <trkpt lat="48.78454" lon="2.07901">
        <ele>178</ele>
        <time>2019-05-12T10:54:47.000Z</time>
      </trkpt>
      <trkpt lat="48.7845" lon="2.07893">
        <ele>178</ele>
        <time>2019-05-12T10:54:59.000Z</time>
      </trkpt>
      <trkpt lat="48.78448" lon="2.07888">
        <ele>178</ele>
        <time>2019-05-12T10:55:03.000Z</time>
      </trkpt>
      <trkpt lat="48.78444" lon="2.07876">
        <ele>178</ele>
        <time>2019-05-12T10:55:05.000Z</time>
      </trkpt>
      <trkpt lat="48.78439" lon="2.07865">
        <ele>178</ele>
        <time>2019-05-12T10:55:12.000Z</time>
      </trkpt>
      <trkpt lat="48.78436" lon="2.07854">
        <ele>178</ele>
        <time>2019-05-12T10:55:23.000Z</time>
      </trkpt>
      <trkpt lat="48.78433" lon="2.07842">
        <ele>178</ele>
        <time>2019-05-12T10:55:32.000Z</time>
      </trkpt>
      <trkpt lat="48.7843" lon="2.07829">
        <ele>178</ele>
        <time>2019-05-12T10:55:36.000Z</time>
      </trkpt>
      <trkpt lat="48.78425" lon="2.07811">
        <ele>178</ele>
        <time>2019-05-12T10:55:41.000Z</time>
      </trkpt>
      <trkpt lat="48.78418" lon="2.07798">
        <ele>178</ele>
        <time>2019-05-12T10:55:48.000Z</time>
      </trkpt>
      <trkpt lat="48.78413" lon="2.07784">
        <ele>178</ele>
        <time>2019-05-12T10:56:03.000Z</time>
      </trkpt>
      <trkpt lat="48.7841" lon="2.07772">
        <ele>178</ele>
        <time>2019-05-12T10:56:07.000Z</time>
      </trkpt>
      <trkpt lat="48.78406" lon="2.07764">
        <ele>178</ele>
        <time>2019-05-12T10:56:16.000Z</time>
      </trkpt>
      <trkpt lat="48.78406" lon="2.07762">
        <ele>178</ele>
        <time>2019-05-12T10:56:40.000Z</time>
      </trkpt>
      <trkpt lat="48.78405" lon="2.07761">
        <ele>178</ele>
        <time>2019-05-12T10:56:41.000Z</time>
      </trkpt>
      <trkpt lat="48.784" lon="2.07746">
        <ele>178</ele>
        <time>2019-05-12T10:56:59.000Z</time>
      </trkpt>
      <trkpt lat="48.78394" lon="2.07732">
        <ele>178</ele>
        <time>2019-05-12T10:57:04.000Z</time>
      </trkpt>
      <trkpt lat="48.78389" lon="2.07723">
        <ele>178</ele>
        <time>2019-05-12T10:57:07.000Z</time>
      </trkpt>
      <trkpt lat="48.78381" lon="2.07712">
        <ele>178</ele>
        <time>2019-05-12T10:57:13.000Z</time>
      </trkpt>
      <trkpt lat="48.78376" lon="2.07707">
        <ele>178</ele>
        <time>2019-05-12T10:57:20.000Z</time>
      </trkpt>
      <trkpt lat="48.78373" lon="2.07704">
        <ele>178</ele>
        <time>2019-05-12T10:57:23.000Z</time>
      </trkpt>
      <trkpt lat="48.7837" lon="2.07702">
        <ele>178</ele>
        <time>2019-05-12T10:57:26.000Z</time>
      </trkpt>
      <trkpt lat="48.78362" lon="2.07696">
        <ele>178</ele>
        <time>2019-05-12T10:57:28.000Z</time>
      </trkpt>
      <trkpt lat="48.78354" lon="2.07692">
        <ele>178</ele>
        <time>2019-05-12T10:57:31.000Z</time>
      </trkpt>
      <trkpt lat="48.78347" lon="2.07691">
        <ele>178</ele>
        <time>2019-05-12T10:57:34.000Z</time>
      </trkpt>
      <trkpt lat="48.78334" lon="2.07678">
        <ele>179</ele>
        <time>2019-05-12T10:57:51.000Z</time>
      </trkpt>
      <trkpt lat="48.78331" lon="2.07672">
        <ele>179</ele>
        <time>2019-05-12T10:57:59.000Z</time>
      </trkpt>
      <trkpt lat="48.78329" lon="2.07666">
        <ele>179</ele>
        <time>2019-05-12T10:58:07.000Z</time>
      </trkpt>
      <trkpt lat="48.78328" lon="2.07664">
        <ele>179</ele>
        <time>2019-05-12T10:58:08.000Z</time>
      </trkpt>
      <trkpt lat="48.78328" lon="2.07663">
        <ele>179</ele>
        <time>2019-05-12T10:58:09.000Z</time>
      </trkpt>
      <trkpt lat="48.78327" lon="2.07662">
        <ele>179</ele>
        <time>2019-05-12T10:58:10.000Z</time>
      </trkpt>
      <trkpt lat="48.78326" lon="2.07661">
        <ele>179</ele>
        <time>2019-05-12T10:58:10.000Z</time>
      </trkpt>
      <trkpt lat="48.78325" lon="2.07659">
        <ele>179</ele>
        <time>2019-05-12T10:58:12.000Z</time>
      </trkpt>
      <trkpt lat="48.78324" lon="2.07657">
        <ele>179</ele>
        <time>2019-05-12T10:58:13.000Z</time>
      </trkpt>
      <trkpt lat="48.78322" lon="2.07654">
        <ele>179</ele>
        <time>2019-05-12T10:58:15.000Z</time>
      </trkpt>
      <trkpt lat="48.78321" lon="2.07651">
        <ele>179</ele>
        <time>2019-05-12T10:58:16.000Z</time>
      </trkpt>
      <trkpt lat="48.78319" lon="2.07648">
        <ele>179</ele>
        <time>2019-05-12T10:58:17.000Z</time>
      </trkpt>
      <trkpt lat="48.78317" lon="2.07645">
        <ele>179</ele>
        <time>2019-05-12T10:58:18.000Z</time>
      </trkpt>
      <trkpt lat="48.78315" lon="2.07642">
        <ele>179</ele>
        <time>2019-05-12T10:58:19.000Z</time>
      </trkpt>
      <trkpt lat="48.78313" lon="2.07638">
        <ele>179</ele>
        <time>2019-05-12T10:58:20.000Z</time>
      </trkpt>
      <trkpt lat="48.78312" lon="2.07635">
        <ele>179</ele>
        <time>2019-05-12T10:58:22.000Z</time>
      </trkpt>
      <trkpt lat="48.7831" lon="2.07633">
        <ele>179</ele>
        <time>2019-05-12T10:58:24.000Z</time>
      </trkpt>
      <trkpt lat="48.78308" lon="2.07631">
        <ele>179</ele>
        <time>2019-05-12T10:58:25.000Z</time>
      </trkpt>
      <trkpt lat="48.78306" lon="2.07628">
        <ele>179</ele>
        <time>2019-05-12T10:58:27.000Z</time>
      </trkpt>
      <trkpt lat="48.78305" lon="2.07627">
        <ele>179</ele>
        <time>2019-05-12T10:58:27.000Z</time>
      </trkpt>
      <trkpt lat="48.78305" lon="2.07626">
        <ele>179</ele>
        <time>2019-05-12T10:58:28.000Z</time>
      </trkpt>
      <trkpt lat="48.78304" lon="2.07626">
        <ele>179</ele>
        <time>2019-05-12T10:58:28.000Z</time>
      </trkpt>
      <trkpt lat="48.78304" lon="2.07626">
        <ele>179</ele>
        <time>2019-05-12T10:58:28.000Z</time>
      </trkpt>
      <trkpt lat="48.78297" lon="2.0762">
        <ele>179</ele>
        <time>2019-05-12T10:58:30.000Z</time>
      </trkpt>
      <trkpt lat="48.7829" lon="2.07613">
        <ele>179</ele>
        <time>2019-05-12T10:58:36.000Z</time>
      </trkpt>
      <trkpt lat="48.78277" lon="2.07604">
        <ele>179</ele>
        <time>2019-05-12T10:58:52.000Z</time>
      </trkpt>
      <trkpt lat="48.78265" lon="2.07595">
        <ele>180</ele>
        <time>2019-05-12T10:59:03.000Z</time>
      </trkpt>
      <trkpt lat="48.78254" lon="2.07586">
        <ele>180</ele>
        <time>2019-05-12T10:59:13.000Z</time>
      </trkpt>
      <trkpt lat="48.78246" lon="2.07577">
        <ele>180</ele>
        <time>2019-05-12T10:59:23.000Z</time>
      </trkpt>
      <trkpt lat="48.7824" lon="2.07569">
        <ele>180</ele>
        <time>2019-05-12T10:59:30.000Z</time>
      </trkpt>
      <trkpt lat="48.7823" lon="2.07557">
        <ele>180</ele>
        <time>2019-05-12T10:59:38.000Z</time>
      </trkpt>
      <trkpt lat="48.78218" lon="2.07539">
        <ele>180</ele>
        <time>2019-05-12T10:59:50.000Z</time>
      </trkpt>
      <trkpt lat="48.78217" lon="2.07536">
        <ele>180</ele>
        <time>2019-05-12T10:59:54.000Z</time>
      </trkpt>
      <trkpt lat="48.78215" lon="2.0753">
        <ele>180</ele>
        <time>2019-05-12T11:00:47.000Z</time>
      </trkpt>
      <trkpt lat="48.78214" lon="2.07528">
        <ele>180</ele>
        <time>2019-05-12T11:00:48.000Z</time>
      </trkpt>
      <trkpt lat="48.78206" lon="2.07506">
        <ele>180</ele>
        <time>2019-05-12T11:01:00.000Z</time>
      </trkpt>
      <trkpt lat="48.78201" lon="2.07486">
        <ele>180</ele>
        <time>2019-05-12T11:01:13.000Z</time>
      </trkpt>
      <trkpt lat="48.78202" lon="2.07473">
        <ele>180</ele>
        <time>2019-05-12T11:01:21.000Z</time>
      </trkpt>
      <trkpt lat="48.78203" lon="2.07469">
        <ele>180</ele>
        <time>2019-05-12T11:01:35.000Z</time>
      </trkpt>
      <trkpt lat="48.78204" lon="2.07467">
        <ele>180</ele>
        <time>2019-05-12T11:01:36.000Z</time>
      </trkpt>
      <trkpt lat="48.78205" lon="2.07463">
        <ele>180</ele>
        <time>2019-05-12T11:01:40.000Z</time>
      </trkpt>
      <trkpt lat="48.78206" lon="2.0746">
        <ele>180</ele>
        <time>2019-05-12T11:03:16.000Z</time>
      </trkpt>
      <trkpt lat="48.78206" lon="2.07458">
        <ele>180</ele>
        <time>2019-05-12T11:03:17.000Z</time>
      </trkpt>
      <trkpt lat="48.78212" lon="2.07443">
        <ele>180</ele>
        <time>2019-05-12T11:03:31.000Z</time>
      </trkpt>
      <trkpt lat="48.78212" lon="2.07442">
        <ele>180</ele>
        <time>2019-05-12T11:03:46.000Z</time>
      </trkpt>
      <trkpt lat="48.78212" lon="2.07441">
        <ele>180</ele>
        <time>2019-05-12T11:03:47.000Z</time>
      </trkpt>
      <trkpt lat="48.78211" lon="2.07429">
        <ele>180</ele>
        <time>2019-05-12T11:03:56.000Z</time>
      </trkpt>
      <trkpt lat="48.78209" lon="2.07408">
        <ele>180</ele>
        <time>2019-05-12T11:04:04.000Z</time>
      </trkpt>
      <trkpt lat="48.78207" lon="2.07401">
        <ele>180</ele>
        <time>2019-05-12T11:04:11.000Z</time>
      </trkpt>
      <trkpt lat="48.78205" lon="2.07399">
        <ele>181</ele>
        <time>2019-05-12T11:04:35.000Z</time>
      </trkpt>
      <trkpt lat="48.78204" lon="2.07397">
        <ele>181</ele>
        <time>2019-05-12T11:04:36.000Z</time>
      </trkpt>
      <trkpt lat="48.78198" lon="2.07379">
        <ele>181</ele>
        <time>2019-05-12T11:04:46.000Z</time>
      </trkpt>
      <trkpt lat="48.78196" lon="2.07372">
        <ele>181</ele>
        <time>2019-05-12T11:04:52.000Z</time>
      </trkpt>
      <trkpt lat="48.78195" lon="2.07364">
        <ele>181</ele>
        <time>2019-05-12T11:04:59.000Z</time>
      </trkpt>
      <trkpt lat="48.78194" lon="2.0736">
        <ele>181</ele>
        <time>2019-05-12T11:05:00.000Z</time>
      </trkpt>
      <trkpt lat="48.78192" lon="2.07343">
        <ele>181</ele>
        <time>2019-05-12T11:05:12.000Z</time>
      </trkpt>
      <trkpt lat="48.78191" lon="2.07335">
        <ele>181</ele>
        <time>2019-05-12T11:05:22.000Z</time>
      </trkpt>
      <trkpt lat="48.78191" lon="2.07321">
        <ele>181</ele>
        <time>2019-05-12T11:05:27.000Z</time>
      </trkpt>
      <trkpt lat="48.7819" lon="2.07318">
        <ele>181</ele>
        <time>2019-05-12T11:05:30.000Z</time>
      </trkpt>
      <trkpt lat="48.7819" lon="2.07311">
        <ele>181</ele>
        <time>2019-05-12T11:05:53.000Z</time>
      </trkpt>
      <trkpt lat="48.7819" lon="2.07306">
        <ele>181</ele>
        <time>2019-05-12T11:05:54.000Z</time>
      </trkpt>
      <trkpt lat="48.78189" lon="2.07303">
        <ele>181</ele>
        <time>2019-05-12T11:05:57.000Z</time>
      </trkpt>
      <trkpt lat="48.78189" lon="2.07301">
        <ele>181</ele>
        <time>2019-05-12T11:05:59.000Z</time>
      </trkpt>
      <trkpt lat="48.78187" lon="2.07287">
        <ele>181</ele>
        <time>2019-05-12T11:06:01.000Z</time>
      </trkpt>
      <trkpt lat="48.78187" lon="2.07266">
        <ele>180</ele>
        <time>2019-05-12T11:06:08.000Z</time>
      </trkpt>
      <trkpt lat="48.78186" lon="2.07246">
        <ele>180</ele>
        <time>2019-05-12T11:06:21.000Z</time>
      </trkpt>
      <trkpt lat="48.78187" lon="2.07228">
        <ele>180</ele>
        <time>2019-05-12T11:06:34.000Z</time>
      </trkpt>
      <trkpt lat="48.78189" lon="2.07212">
        <ele>180</ele>
        <time>2019-05-12T11:06:42.000Z</time>
      </trkpt>
      <trkpt lat="48.78191" lon="2.07189">
        <ele>180</ele>
        <time>2019-05-12T11:06:50.000Z</time>
      </trkpt>
      <trkpt lat="48.78189" lon="2.07168">
        <ele>180</ele>
        <time>2019-05-12T11:07:07.000Z</time>
      </trkpt>
      <trkpt lat="48.7819" lon="2.07156">
        <ele>180</ele>
        <time>2019-05-12T11:07:16.000Z</time>
      </trkpt>
      <trkpt lat="48.7819" lon="2.07149">
        <ele>180</ele>
        <time>2019-05-12T11:07:23.000Z</time>
      </trkpt>
      <trkpt lat="48.78189" lon="2.07143">
        <ele>180</ele>
        <time>2019-05-12T11:07:25.000Z</time>
      </trkpt>
      <trkpt lat="48.78188" lon="2.07132">
        <ele>180</ele>
        <time>2019-05-12T11:07:27.000Z</time>
      </trkpt>
      <trkpt lat="48.78187" lon="2.07129">
        <ele>180</ele>
        <time>2019-05-12T11:07:31.000Z</time>
      </trkpt>
      <trkpt lat="48.78186" lon="2.07116">
        <ele>180</ele>
        <time>2019-05-12T11:07:40.000Z</time>
      </trkpt>
      <trkpt lat="48.78186" lon="2.07101">
        <ele>180</ele>
        <time>2019-05-12T11:07:49.000Z</time>
      </trkpt>
      <trkpt lat="48.78186" lon="2.07079">
        <ele>180</ele>
        <time>2019-05-12T11:08:02.000Z</time>
      </trkpt>
      <trkpt lat="48.78182" lon="2.07062">
        <ele>180</ele>
        <time>2019-05-12T11:08:19.000Z</time>
      </trkpt>
      <trkpt lat="48.78177" lon="2.0705">
        <ele>180</ele>
        <time>2019-05-12T11:08:26.000Z</time>
      </trkpt>
      <trkpt lat="48.7817" lon="2.07029">
        <ele>180</ele>
        <time>2019-05-12T11:08:38.000Z</time>
      </trkpt>
      <trkpt lat="48.78165" lon="2.0702">
        <ele>180</ele>
        <time>2019-05-12T11:08:51.000Z</time>
      </trkpt>
      <trkpt lat="48.78161" lon="2.07011">
        <ele>180</ele>
        <time>2019-05-12T11:08:55.000Z</time>
      </trkpt>
      <trkpt lat="48.78156" lon="2.06997">
        <ele>180</ele>
        <time>2019-05-12T11:08:58.000Z</time>
      </trkpt>
      <trkpt lat="48.78152" lon="2.06987">
        <ele>180</ele>
        <time>2019-05-12T11:09:00.000Z</time>
      </trkpt>
      <trkpt lat="48.78144" lon="2.06973">
        <ele>180</ele>
        <time>2019-05-12T11:09:03.000Z</time>
      </trkpt>
      <trkpt lat="48.78133" lon="2.06961">
        <ele>180</ele>
        <time>2019-05-12T11:09:09.000Z</time>
      </trkpt>
      <trkpt lat="48.78121" lon="2.06945">
        <ele>180</ele>
        <time>2019-05-12T11:09:25.000Z</time>
      </trkpt>
      <trkpt lat="48.78119" lon="2.06937">
        <ele>180</ele>
        <time>2019-05-12T11:09:36.000Z</time>
      </trkpt>
      <trkpt lat="48.78116" lon="2.06931">
        <ele>180</ele>
        <time>2019-05-12T11:09:39.000Z</time>
      </trkpt>
      <trkpt lat="48.78116" lon="2.06928">
        <ele>180</ele>
        <time>2019-05-12T11:09:40.000Z</time>
      </trkpt>
      <trkpt lat="48.78113" lon="2.06922">
        <ele>180</ele>
        <time>2019-05-12T11:09:52.000Z</time>
      </trkpt>
      <trkpt lat="48.78111" lon="2.06919">
        <ele>181</ele>
        <time>2019-05-12T11:09:56.000Z</time>
      </trkpt>
      <trkpt lat="48.78109" lon="2.06916">
        <ele>181</ele>
        <time>2019-05-12T11:09:59.000Z</time>
      </trkpt>
      <trkpt lat="48.78103" lon="2.06906">
        <ele>181</ele>
        <time>2019-05-12T11:10:02.000Z</time>
      </trkpt>
      <trkpt lat="48.78099" lon="2.069">
        <ele>181</ele>
        <time>2019-05-12T11:10:06.000Z</time>
      </trkpt>
      <trkpt lat="48.78096" lon="2.06896">
        <ele>181</ele>
        <time>2019-05-12T11:10:11.000Z</time>
      </trkpt>
      <trkpt lat="48.78086" lon="2.06881">
        <ele>181</ele>
        <time>2019-05-12T11:10:16.000Z</time>
      </trkpt>
      <trkpt lat="48.78085" lon="2.0688">
        <ele>181</ele>
        <time>2019-05-12T11:10:19.000Z</time>
      </trkpt>
      <trkpt lat="48.78082" lon="2.06877">
        <ele>181</ele>
        <time>2019-05-12T11:10:23.000Z</time>
      </trkpt>
      <trkpt lat="48.7808" lon="2.06875">
        <ele>181</ele>
        <time>2019-05-12T11:10:24.000Z</time>
      </trkpt>
      <trkpt lat="48.78073" lon="2.0687">
        <ele>181</ele>
        <time>2019-05-12T11:10:26.000Z</time>
      </trkpt>
      <trkpt lat="48.78068" lon="2.06867">
        <ele>181</ele>
        <time>2019-05-12T11:10:31.000Z</time>
      </trkpt>
      <trkpt lat="48.78064" lon="2.06865">
        <ele>181</ele>
        <time>2019-05-12T11:10:36.000Z</time>
      </trkpt>
      <trkpt lat="48.78064" lon="2.06864">
        <ele>181</ele>
        <time>2019-05-12T11:10:45.000Z</time>
      </trkpt>
      <trkpt lat="48.78065" lon="2.06861">
        <ele>181</ele>
        <time>2019-05-12T11:10:55.000Z</time>
      </trkpt>
      <trkpt lat="48.78066" lon="2.06859">
        <ele>181</ele>
        <time>2019-05-12T11:11:04.000Z</time>
      </trkpt>
      <trkpt lat="48.78067" lon="2.06856">
        <ele>181</ele>
        <time>2019-05-12T11:11:13.000Z</time>
      </trkpt>
      <trkpt lat="48.78067" lon="2.06855">
        <ele>181</ele>
        <time>2019-05-12T11:11:13.000Z</time>
      </trkpt>
      <trkpt lat="48.78067" lon="2.06854">
        <ele>181</ele>
        <time>2019-05-12T11:11:13.000Z</time>
      </trkpt>
      <trkpt lat="48.78067" lon="2.06854">
        <ele>181</ele>
        <time>2019-05-12T11:11:13.000Z</time>
      </trkpt>
      <trkpt lat="48.78067" lon="2.06853">
        <ele>181</ele>
        <time>2019-05-12T11:11:14.000Z</time>
      </trkpt>
      <trkpt lat="48.78065" lon="2.06844">
        <ele>181</ele>
        <time>2019-05-12T11:11:23.000Z</time>
      </trkpt>
      <trkpt lat="48.78062" lon="2.06832">
        <ele>181</ele>
        <time>2019-05-12T11:11:33.000Z</time>
      </trkpt>
      <trkpt lat="48.78059" lon="2.06829">
        <ele>181</ele>
        <time>2019-05-12T11:11:36.000Z</time>
      </trkpt>
      <trkpt lat="48.78055" lon="2.06828">
        <ele>181</ele>
        <time>2019-05-12T11:11:39.000Z</time>
      </trkpt>
      <trkpt lat="48.78051" lon="2.06827">
        <ele>181</ele>
        <time>2019-05-12T11:11:42.000Z</time>
      </trkpt>
      <trkpt lat="48.78046" lon="2.06827">
        <ele>181</ele>
        <time>2019-05-12T11:11:45.000Z</time>
      </trkpt>
      <trkpt lat="48.78042" lon="2.06826">
        <ele>181</ele>
        <time>2019-05-12T11:11:48.000Z</time>
      </trkpt>
      <trkpt lat="48.78038" lon="2.06825">
        <ele>181</ele>
        <time>2019-05-12T11:11:51.000Z</time>
      </trkpt>
      <trkpt lat="48.78034" lon="2.06824">
        <ele>181</ele>
        <time>2019-05-12T11:11:54.000Z</time>
      </trkpt>
      <trkpt lat="48.7803" lon="2.06823">
        <ele>182</ele>
        <time>2019-05-12T11:11:58.000Z</time>
      </trkpt>
      <trkpt lat="48.78024" lon="2.06818">
        <ele>182</ele>
        <time>2019-05-12T11:12:02.000Z</time>
      </trkpt>
      <trkpt lat="48.78017" lon="2.06811">
        <ele>182</ele>
        <time>2019-05-12T11:12:06.000Z</time>
      </trkpt>
      <trkpt lat="48.78017" lon="2.06809">
        <ele>182</ele>
        <time>2019-05-12T11:12:08.000Z</time>
      </trkpt>
      <trkpt lat="48.78017" lon="2.06808">
        <ele>182</ele>
        <time>2019-05-12T11:12:09.000Z</time>
      </trkpt>
      <trkpt lat="48.78017" lon="2.06807">
        <ele>182</ele>
        <time>2019-05-12T11:12:10.000Z</time>
      </trkpt>
      <trkpt lat="48.78019" lon="2.06807">
        <ele>182</ele>
        <time>2019-05-12T11:12:11.000Z</time>
      </trkpt>
      <trkpt lat="48.78019" lon="2.06805">
        <ele>182</ele>
        <time>2019-05-12T11:12:11.000Z</time>
      </trkpt>
      <trkpt lat="48.78019" lon="2.06804">
        <ele>182</ele>
        <time>2019-05-12T11:12:12.000Z</time>
      </trkpt>
      <trkpt lat="48.78019" lon="2.06803">
        <ele>182</ele>
        <time>2019-05-12T11:12:13.000Z</time>
      </trkpt>
      <trkpt lat="48.78019" lon="2.06801">
        <ele>182</ele>
        <time>2019-05-12T11:12:13.000Z</time>
      </trkpt>
      <trkpt lat="48.78019" lon="2.06799">
        <ele>182</ele>
        <time>2019-05-12T11:12:14.000Z</time>
      </trkpt>
      <trkpt lat="48.78019" lon="2.06796">
        <ele>182</ele>
        <time>2019-05-12T11:12:14.000Z</time>
      </trkpt>
      <trkpt lat="48.78019" lon="2.06792">
        <ele>182</ele>
        <time>2019-05-12T11:12:15.000Z</time>
      </trkpt>
      <trkpt lat="48.78019" lon="2.06789">
        <ele>182</ele>
        <time>2019-05-12T11:12:15.000Z</time>
      </trkpt>
      <trkpt lat="48.78019" lon="2.06786">
        <ele>182</ele>
        <time>2019-05-12T11:12:17.000Z</time>
      </trkpt>
      <trkpt lat="48.78017" lon="2.06784">
        <ele>182</ele>
        <time>2019-05-12T11:12:19.000Z</time>
      </trkpt>
      <trkpt lat="48.78016" lon="2.06782">
        <ele>182</ele>
        <time>2019-05-12T11:12:20.000Z</time>
      </trkpt>
      <trkpt lat="48.78014" lon="2.0678">
        <ele>182</ele>
        <time>2019-05-12T11:12:22.000Z</time>
      </trkpt>
      <trkpt lat="48.78013" lon="2.06778">
        <ele>182</ele>
        <time>2019-05-12T11:12:23.000Z</time>
      </trkpt>
      <trkpt lat="48.78012" lon="2.06777">
        <ele>182</ele>
        <time>2019-05-12T11:12:25.000Z</time>
      </trkpt>
      <trkpt lat="48.78011" lon="2.06775">
        <ele>182</ele>
        <time>2019-05-12T11:12:26.000Z</time>
      </trkpt>
      <trkpt lat="48.78009" lon="2.06774">
        <ele>182</ele>
        <time>2019-05-12T11:12:27.000Z</time>
      </trkpt>
      <trkpt lat="48.78009" lon="2.06772">
        <ele>182</ele>
        <time>2019-05-12T11:12:29.000Z</time>
      </trkpt>
      <trkpt lat="48.78008" lon="2.06771">
        <ele>182</ele>
        <time>2019-05-12T11:12:31.000Z</time>
      </trkpt>
      <trkpt lat="48.78006" lon="2.06769">
        <ele>182</ele>
        <time>2019-05-12T11:12:33.000Z</time>
      </trkpt>
      <trkpt lat="48.78006" lon="2.06768">
        <ele>182</ele>
        <time>2019-05-12T11:12:35.000Z</time>
      </trkpt>
      <trkpt lat="48.78004" lon="2.06767">
        <ele>182</ele>
        <time>2019-05-12T11:12:36.000Z</time>
      </trkpt>
      <trkpt lat="48.78003" lon="2.06766">
        <ele>182</ele>
        <time>2019-05-12T11:12:37.000Z</time>
      </trkpt>
      <trkpt lat="48.78001" lon="2.06765">
        <ele>182</ele>
        <time>2019-05-12T11:12:38.000Z</time>
      </trkpt>
      <trkpt lat="48.77999" lon="2.06764">
        <ele>182</ele>
        <time>2019-05-12T11:12:40.000Z</time>
      </trkpt>
      <trkpt lat="48.77998" lon="2.06761">
        <ele>182</ele>
        <time>2019-05-12T11:12:46.000Z</time>
      </trkpt>
      <trkpt lat="48.77997" lon="2.06759">
        <ele>182</ele>
        <time>2019-05-12T11:12:52.000Z</time>
      </trkpt>
      <trkpt lat="48.77996" lon="2.06758">
        <ele>182</ele>
        <time>2019-05-12T11:12:59.000Z</time>
      </trkpt>
      <trkpt lat="48.77995" lon="2.06757">
        <ele>182</ele>
        <time>2019-05-12T11:13:06.000Z</time>
      </trkpt>
      <trkpt lat="48.77995" lon="2.06757">
        <ele>182</ele>
        <time>2019-05-12T11:13:13.000Z</time>
      </trkpt>
      <trkpt lat="48.77994" lon="2.06756">
        <ele>182</ele>
        <time>2019-05-12T11:13:20.000Z</time>
      </trkpt>
      <trkpt lat="48.77993" lon="2.06756">
        <ele>182</ele>
        <time>2019-05-12T11:13:21.000Z</time>
      </trkpt>
      <trkpt lat="48.77993" lon="2.06756">
        <ele>182</ele>
        <time>2019-05-12T11:13:21.000Z</time>
      </trkpt>
      <trkpt lat="48.77992" lon="2.06755">
        <ele>182</ele>
        <time>2019-05-12T11:13:21.000Z</time>
      </trkpt>
      <trkpt lat="48.77992" lon="2.06755">
        <ele>182</ele>
        <time>2019-05-12T11:13:21.000Z</time>
      </trkpt>
      <trkpt lat="48.77989" lon="2.06753">
        <ele>182</ele>
        <time>2019-05-12T11:13:24.000Z</time>
      </trkpt>
      <trkpt lat="48.77986" lon="2.06751">
        <ele>182</ele>
        <time>2019-05-12T11:13:26.000Z</time>
      </trkpt>
      <trkpt lat="48.77982" lon="2.06748">
        <ele>182</ele>
        <time>2019-05-12T11:13:28.000Z</time>
      </trkpt>
      <trkpt lat="48.77977" lon="2.06746">
        <ele>183</ele>
        <time>2019-05-12T11:13:31.000Z</time>
      </trkpt>
      <trkpt lat="48.77974" lon="2.06742">
        <ele>183</ele>
        <time>2019-05-12T11:13:33.000Z</time>
      </trkpt>
      <trkpt lat="48.77972" lon="2.06739">
        <ele>183</ele>
        <time>2019-05-12T11:13:36.000Z</time>
      </trkpt>
      <trkpt lat="48.77969" lon="2.06735">
        <ele>183</ele>
        <time>2019-05-12T11:13:39.000Z</time>
      </trkpt>
      <trkpt lat="48.77966" lon="2.06732">
        <ele>183</ele>
        <time>2019-05-12T11:13:42.000Z</time>
      </trkpt>
      <trkpt lat="48.77964" lon="2.06728">
        <ele>183</ele>
        <time>2019-05-12T11:13:45.000Z</time>
      </trkpt>
      <trkpt lat="48.77961" lon="2.06724">
        <ele>183</ele>
        <time>2019-05-12T11:13:49.000Z</time>
      </trkpt>
      <trkpt lat="48.77959" lon="2.06721">
        <ele>183</ele>
        <time>2019-05-12T11:13:53.000Z</time>
      </trkpt>
      <trkpt lat="48.77957" lon="2.06717">
        <ele>183</ele>
        <time>2019-05-12T11:13:56.000Z</time>
      </trkpt>
      <trkpt lat="48.77951" lon="2.0671">
        <ele>183</ele>
        <time>2019-05-12T11:14:04.000Z</time>
      </trkpt>
      <trkpt lat="48.77949" lon="2.0671">
        <ele>182</ele>
        <time>2019-05-12T11:14:07.000Z</time>
      </trkpt>
      <trkpt lat="48.77949" lon="2.06711">
        <ele>182</ele>
        <time>2019-05-12T11:14:10.000Z</time>
      </trkpt>
      <trkpt lat="48.77948" lon="2.0671">
        <ele>182</ele>
        <time>2019-05-12T11:14:20.000Z</time>
      </trkpt>
      <trkpt lat="48.77948" lon="2.0671">
        <ele>182</ele>
        <time>2019-05-12T11:14:30.000Z</time>
      </trkpt>
      <trkpt lat="48.77947" lon="2.06709">
        <ele>182</ele>
        <time>2019-05-12T11:14:40.000Z</time>
      </trkpt>
      <trkpt lat="48.77947" lon="2.06708">
        <ele>182</ele>
        <time>2019-05-12T11:14:50.000Z</time>
      </trkpt>
      <trkpt lat="48.77946" lon="2.06707">
        <ele>182</ele>
        <time>2019-05-12T11:14:51.000Z</time>
      </trkpt>
      <trkpt lat="48.77946" lon="2.06707">
        <ele>182</ele>
        <time>2019-05-12T11:14:51.000Z</time>
      </trkpt>
      <trkpt lat="48.77946" lon="2.06706">
        <ele>182</ele>
        <time>2019-05-12T11:14:51.000Z</time>
      </trkpt>
      <trkpt lat="48.77945" lon="2.06706">
        <ele>182</ele>
        <time>2019-05-12T11:14:51.000Z</time>
      </trkpt>
      <trkpt lat="48.77945" lon="2.06705">
        <ele>182</ele>
        <time>2019-05-12T11:14:52.000Z</time>
      </trkpt>
      <trkpt lat="48.77945" lon="2.06704">
        <ele>182</ele>
        <time>2019-05-12T11:14:52.000Z</time>
      </trkpt>
      <trkpt lat="48.77944" lon="2.06704">
        <ele>182</ele>
        <time>2019-05-12T11:14:53.000Z</time>
      </trkpt>
      <trkpt lat="48.77944" lon="2.06703">
        <ele>182</ele>
        <time>2019-05-12T11:14:53.000Z</time>
      </trkpt>
      <trkpt lat="48.77943" lon="2.06703">
        <ele>182</ele>
        <time>2019-05-12T11:15:11.000Z</time>
      </trkpt>
      <trkpt lat="48.77943" lon="2.06703">
        <ele>182</ele>
        <time>2019-05-12T11:15:29.000Z</time>
      </trkpt>
      <trkpt lat="48.77943" lon="2.06703">
        <ele>181</ele>
        <time>2019-05-12T11:15:46.000Z</time>
      </trkpt>
      <trkpt lat="48.77943" lon="2.06702">
        <ele>181</ele>
        <time>2019-05-12T11:16:04.000Z</time>
      </trkpt>
      <trkpt lat="48.77943" lon="2.06702">
        <ele>181</ele>
        <time>2019-05-12T11:16:04.000Z</time>
      </trkpt>
      <trkpt lat="48.77943" lon="2.06702">
        <ele>181</ele>
        <time>2019-05-12T11:16:04.000Z</time>
      </trkpt>
      <trkpt lat="48.77943" lon="2.06702">
        <ele>181</ele>
        <time>2019-05-12T11:16:04.000Z</time>
      </trkpt>
      <trkpt lat="48.77943" lon="2.06701">
        <ele>181</ele>
        <time>2019-05-12T11:16:05.000Z</time>
      </trkpt>
      <trkpt lat="48.77942" lon="2.06701">
        <ele>181</ele>
        <time>2019-05-12T11:16:05.000Z</time>
      </trkpt>
      <trkpt lat="48.77942" lon="2.067">
        <ele>181</ele>
        <time>2019-05-12T11:16:06.000Z</time>
      </trkpt>
      <trkpt lat="48.77941" lon="2.06699">
        <ele>181</ele>
        <time>2019-05-12T11:16:06.000Z</time>
      </trkpt>
      <trkpt lat="48.7794" lon="2.06698">
        <ele>181</ele>
        <time>2019-05-12T11:16:07.000Z</time>
      </trkpt>
      <trkpt lat="48.77934" lon="2.06687">
        <ele>181</ele>
        <time>2019-05-12T11:16:08.000Z</time>
      </trkpt>
      <trkpt lat="48.77927" lon="2.06665">
        <ele>181</ele>
        <time>2019-05-12T11:16:19.000Z</time>
      </trkpt>
      <trkpt lat="48.77921" lon="2.0664">
        <ele>181</ele>
        <time>2019-05-12T11:16:36.000Z</time>
      </trkpt>
      <trkpt lat="48.77921" lon="2.06637">
        <ele>181</ele>
        <time>2019-05-12T11:16:39.000Z</time>
      </trkpt>
      <trkpt lat="48.77922" lon="2.06634">
        <ele>181</ele>
        <time>2019-05-12T11:16:42.000Z</time>
      </trkpt>
      <trkpt lat="48.77923" lon="2.06633">
        <ele>181</ele>
        <time>2019-05-12T11:16:45.000Z</time>
      </trkpt>
      <trkpt lat="48.77924" lon="2.06632">
        <ele>181</ele>
        <time>2019-05-12T11:16:48.000Z</time>
      </trkpt>
      <trkpt lat="48.77925" lon="2.06632">
        <ele>181</ele>
        <time>2019-05-12T11:16:59.000Z</time>
      </trkpt>
      <trkpt lat="48.77925" lon="2.06632">
        <ele>181</ele>
        <time>2019-05-12T11:17:10.000Z</time>
      </trkpt>
      <trkpt lat="48.77925" lon="2.06633">
        <ele>181</ele>
        <time>2019-05-12T11:17:21.000Z</time>
      </trkpt>
      <trkpt lat="48.77925" lon="2.06634">
        <ele>181</ele>
        <time>2019-05-12T11:17:31.000Z</time>
      </trkpt>
      <trkpt lat="48.77925" lon="2.06634">
        <ele>181</ele>
        <time>2019-05-12T11:17:32.000Z</time>
      </trkpt>
      <trkpt lat="48.77926" lon="2.06635">
        <ele>181</ele>
        <time>2019-05-12T11:17:32.000Z</time>
      </trkpt>
      <trkpt lat="48.77926" lon="2.06635">
        <ele>181</ele>
        <time>2019-05-12T11:17:32.000Z</time>
      </trkpt>
      <trkpt lat="48.77926" lon="2.06636">
        <ele>181</ele>
        <time>2019-05-12T11:17:32.000Z</time>
      </trkpt>
      <trkpt lat="48.77926" lon="2.06637">
        <ele>181</ele>
        <time>2019-05-12T11:17:33.000Z</time>
      </trkpt>
      <trkpt lat="48.77927" lon="2.06638">
        <ele>181</ele>
        <time>2019-05-12T11:17:33.000Z</time>
      </trkpt>
      <trkpt lat="48.77927" lon="2.0664">
        <ele>181</ele>
        <time>2019-05-12T11:17:34.000Z</time>
      </trkpt>
      <trkpt lat="48.77928" lon="2.06642">
        <ele>181</ele>
        <time>2019-05-12T11:17:34.000Z</time>
      </trkpt>
      <trkpt lat="48.77929" lon="2.06644">
        <ele>181</ele>
        <time>2019-05-12T11:17:35.000Z</time>
      </trkpt>
      <trkpt lat="48.77929" lon="2.06647">
        <ele>181</ele>
        <time>2019-05-12T11:17:35.000Z</time>
      </trkpt>
      <trkpt lat="48.77931" lon="2.06649">
        <ele>181</ele>
        <time>2019-05-12T11:17:36.000Z</time>
      </trkpt>
      <trkpt lat="48.77931" lon="2.06652">
        <ele>181</ele>
        <time>2019-05-12T11:17:36.000Z</time>
      </trkpt>
      <trkpt lat="48.77932" lon="2.06653">
        <ele>181</ele>
        <time>2019-05-12T11:17:37.000Z</time>
      </trkpt>
      <trkpt lat="48.77932" lon="2.06654">
        <ele>181</ele>
        <time>2019-05-12T11:17:38.000Z</time>
      </trkpt>
      <trkpt lat="48.77932" lon="2.06655">
        <ele>181</ele>
        <time>2019-05-12T11:17:39.000Z</time>
      </trkpt>
      <trkpt lat="48.77932" lon="2.06655">
        <ele>181</ele>
        <time>2019-05-12T11:17:40.000Z</time>
      </trkpt>
      <trkpt lat="48.77932" lon="2.06656">
        <ele>181</ele>
        <time>2019-05-12T11:17:51.000Z</time>
      </trkpt>
      <trkpt lat="48.77932" lon="2.06656">
        <ele>181</ele>
        <time>2019-05-12T11:18:02.000Z</time>
      </trkpt>
      <trkpt lat="48.77932" lon="2.06656">
        <ele>181</ele>
        <time>2019-05-12T11:18:02.000Z</time>
      </trkpt>
      <trkpt lat="48.77932" lon="2.06656">
        <ele>181</ele>
        <time>2019-05-12T11:18:02.000Z</time>
      </trkpt>
      <trkpt lat="48.77932" lon="2.06657">
        <ele>181</ele>
        <time>2019-05-12T11:18:02.000Z</time>
      </trkpt>
      <trkpt lat="48.77932" lon="2.06657">
        <ele>181</ele>
        <time>2019-05-12T11:18:03.000Z</time>
      </trkpt>
      <trkpt lat="48.77932" lon="2.06658">
        <ele>181</ele>
        <time>2019-05-12T11:18:03.000Z</time>
      </trkpt>
      <trkpt lat="48.77932" lon="2.06659">
        <ele>181</ele>
        <time>2019-05-12T11:18:04.000Z</time>
      </trkpt>
      <trkpt lat="48.77931" lon="2.06661">
        <ele>181</ele>
        <time>2019-05-12T11:18:04.000Z</time>
      </trkpt>
      <trkpt lat="48.77931" lon="2.06662">
        <ele>181</ele>
        <time>2019-05-12T11:18:04.000Z</time>
      </trkpt>
      <trkpt lat="48.77931" lon="2.06665">
        <ele>181</ele>
        <time>2019-05-12T11:18:06.000Z</time>
      </trkpt>
      <trkpt lat="48.77931" lon="2.06668">
        <ele>181</ele>
        <time>2019-05-12T11:18:07.000Z</time>
      </trkpt>
      <trkpt lat="48.7793" lon="2.06671">
        <ele>181</ele>
        <time>2019-05-12T11:18:08.000Z</time>
      </trkpt>
      <trkpt lat="48.7793" lon="2.06674">
        <ele>181</ele>
        <time>2019-05-12T11:18:09.000Z</time>
      </trkpt>
      <trkpt lat="48.77931" lon="2.06677">
        <ele>180</ele>
        <time>2019-05-12T11:18:12.000Z</time>
      </trkpt>
      <trkpt lat="48.77932" lon="2.06679">
        <ele>180</ele>
        <time>2019-05-12T11:18:14.000Z</time>
      </trkpt>
      <trkpt lat="48.77933" lon="2.06682">
        <ele>180</ele>
        <time>2019-05-12T11:18:16.000Z</time>
      </trkpt>
      <trkpt lat="48.77935" lon="2.06684">
        <ele>180</ele>
        <time>2019-05-12T11:18:18.000Z</time>
      </trkpt>
      <trkpt lat="48.77936" lon="2.06687">
        <ele>180</ele>
        <time>2019-05-12T11:18:20.000Z</time>
      </trkpt>
      <trkpt lat="48.77938" lon="2.0669">
        <ele>180</ele>
        <time>2019-05-12T11:18:22.000Z</time>
      </trkpt>
      <trkpt lat="48.7794" lon="2.06693">
        <ele>180</ele>
        <time>2019-05-12T11:18:24.000Z</time>
      </trkpt>
      <trkpt lat="48.77942" lon="2.06695">
        <ele>180</ele>
        <time>2019-05-12T11:18:26.000Z</time>
      </trkpt>
      <trkpt lat="48.77943" lon="2.06698">
        <ele>180</ele>
        <time>2019-05-12T11:18:28.000Z</time>
      </trkpt>
      <trkpt lat="48.77945" lon="2.067">
        <ele>180</ele>
        <time>2019-05-12T11:18:31.000Z</time>
      </trkpt>
      <trkpt lat="48.77947" lon="2.06702">
        <ele>180</ele>
        <time>2019-05-12T11:18:33.000Z</time>
      </trkpt>
      <trkpt lat="48.77949" lon="2.06705">
        <ele>180</ele>
        <time>2019-05-12T11:18:35.000Z</time>
      </trkpt>
      <trkpt lat="48.77951" lon="2.06709">
        <ele>180</ele>
        <time>2019-05-12T11:18:42.000Z</time>
      </trkpt>
      <trkpt lat="48.77952" lon="2.06715">
        <ele>180</ele>
        <time>2019-05-12T11:18:49.000Z</time>
      </trkpt>
      <trkpt lat="48.77952" lon="2.06716">
        <ele>180</ele>
        <time>2019-05-12T11:19:15.000Z</time>
      </trkpt>
      <trkpt lat="48.77952" lon="2.06716">
        <ele>180</ele>
        <time>2019-05-12T11:19:42.000Z</time>
      </trkpt>
      <trkpt lat="48.77953" lon="2.06716">
        <ele>180</ele>
        <time>2019-05-12T11:20:09.000Z</time>
      </trkpt>
      <trkpt lat="48.77953" lon="2.06716">
        <ele>180</ele>
        <time>2019-05-12T11:20:35.000Z</time>
      </trkpt>
      <trkpt lat="48.77953" lon="2.06716">
        <ele>180</ele>
        <time>2019-05-12T11:20:36.000Z</time>
      </trkpt>
      <trkpt lat="48.77953" lon="2.06716">
        <ele>180</ele>
        <time>2019-05-12T11:20:36.000Z</time>
      </trkpt>
      <trkpt lat="48.77953" lon="2.06717">
        <ele>180</ele>
        <time>2019-05-12T11:20:36.000Z</time>
      </trkpt>
      <trkpt lat="48.77953" lon="2.06717">
        <ele>180</ele>
        <time>2019-05-12T11:20:36.000Z</time>
      </trkpt>
      <trkpt lat="48.77955" lon="2.06719">
        <ele>180</ele>
        <time>2019-05-12T11:20:39.000Z</time>
      </trkpt>
      <trkpt lat="48.77958" lon="2.06721">
        <ele>180</ele>
        <time>2019-05-12T11:20:42.000Z</time>
      </trkpt>
      <trkpt lat="48.77961" lon="2.06723">
        <ele>180</ele>
        <time>2019-05-12T11:20:45.000Z</time>
      </trkpt>
      <trkpt lat="48.77964" lon="2.06726">
        <ele>180</ele>
        <time>2019-05-12T11:20:47.000Z</time>
      </trkpt>
      <trkpt lat="48.77966" lon="2.06727">
        <ele>180</ele>
        <time>2019-05-12T11:20:52.000Z</time>
      </trkpt>
      <trkpt lat="48.77966" lon="2.06727">
        <ele>180</ele>
        <time>2019-05-12T11:20:58.000Z</time>
      </trkpt>
      <trkpt lat="48.77966" lon="2.06727">
        <ele>180</ele>
        <time>2019-05-12T11:21:03.000Z</time>
      </trkpt>
      <trkpt lat="48.77965" lon="2.06727">
        <ele>180</ele>
        <time>2019-05-12T11:21:08.000Z</time>
      </trkpt>
      <trkpt lat="48.77965" lon="2.06727">
        <ele>180</ele>
        <time>2019-05-12T11:21:08.000Z</time>
      </trkpt>
      <trkpt lat="48.77965" lon="2.06727">
        <ele>180</ele>
        <time>2019-05-12T11:21:08.000Z</time>
      </trkpt>
      <trkpt lat="48.77966" lon="2.06727">
        <ele>180</ele>
        <time>2019-05-12T11:21:08.000Z</time>
      </trkpt>
      <trkpt lat="48.77966" lon="2.06727">
        <ele>180</ele>
        <time>2019-05-12T11:21:09.000Z</time>
      </trkpt>
      <trkpt lat="48.77967" lon="2.0673">
        <ele>180</ele>
        <time>2019-05-12T11:21:11.000Z</time>
      </trkpt>
      <trkpt lat="48.77968" lon="2.06732">
        <ele>180</ele>
        <time>2019-05-12T11:21:14.000Z</time>
      </trkpt>
      <trkpt lat="48.77974" lon="2.06741">
        <ele>180</ele>
        <time>2019-05-12T11:21:16.000Z</time>
      </trkpt>
      <trkpt lat="48.77978" lon="2.06746">
        <ele>180</ele>
        <time>2019-05-12T11:21:18.000Z</time>
      </trkpt>
      <trkpt lat="48.77987" lon="2.06756">
        <ele>180</ele>
        <time>2019-05-12T11:21:27.000Z</time>
      </trkpt>
      <trkpt lat="48.77988" lon="2.06756">
        <ele>179</ele>
        <time>2019-05-12T11:21:31.000Z</time>
      </trkpt>
      <trkpt lat="48.77988" lon="2.06757">
        <ele>179</ele>
        <time>2019-05-12T11:21:43.000Z</time>
      </trkpt>
      <trkpt lat="48.77989" lon="2.06758">
        <ele>179</ele>
        <time>2019-05-12T11:21:44.000Z</time>
      </trkpt>
      <trkpt lat="48.77991" lon="2.0676">
        <ele>179</ele>
        <time>2019-05-12T11:21:46.000Z</time>
      </trkpt>
      <trkpt lat="48.77996" lon="2.06767">
        <ele>179</ele>
        <time>2019-05-12T11:23:12.000Z</time>
      </trkpt>
      <trkpt lat="48.77999" lon="2.06771">
        <ele>179</ele>
        <time>2019-05-12T11:23:13.000Z</time>
      </trkpt>
      <trkpt lat="48.78006" lon="2.06781">
        <ele>179</ele>
        <time>2019-05-12T11:23:17.000Z</time>
      </trkpt>
      <trkpt lat="48.78016" lon="2.06792">
        <ele>179</ele>
        <time>2019-05-12T11:23:25.000Z</time>
      </trkpt>
      <trkpt lat="48.78027" lon="2.06808">
        <ele>180</ele>
        <time>2019-05-12T11:23:42.000Z</time>
      </trkpt>
      <trkpt lat="48.78035" lon="2.06817">
        <ele>180</ele>
        <time>2019-05-12T11:23:49.000Z</time>
      </trkpt>
      <trkpt lat="48.78044" lon="2.06825">
        <ele>180</ele>
        <time>2019-05-12T11:23:59.000Z</time>
      </trkpt>
      <trkpt lat="48.78053" lon="2.06834">
        <ele>180</ele>
        <time>2019-05-12T11:24:19.000Z</time>
      </trkpt>
      <trkpt lat="48.78058" lon="2.06843">
        <ele>180</ele>
        <time>2019-05-12T11:24:25.000Z</time>
      </trkpt>
      <trkpt lat="48.78062" lon="2.06854">
        <ele>180</ele>
        <time>2019-05-12T11:24:32.000Z</time>
      </trkpt>
      <trkpt lat="48.78061" lon="2.06859">
        <ele>180</ele>
        <time>2019-05-12T11:24:37.000Z</time>
      </trkpt>
      <trkpt lat="48.78059" lon="2.06864">
        <ele>180</ele>
        <time>2019-05-12T11:24:43.000Z</time>
      </trkpt>
      <trkpt lat="48.78056" lon="2.0687">
        <ele>180</ele>
        <time>2019-05-12T11:24:48.000Z</time>
      </trkpt>
      <trkpt lat="48.78053" lon="2.06875">
        <ele>180</ele>
        <time>2019-05-12T11:24:54.000Z</time>
      </trkpt>
      <trkpt lat="48.78052" lon="2.0688">
        <ele>180</ele>
        <time>2019-05-12T11:24:57.000Z</time>
      </trkpt>
      <trkpt lat="48.7805" lon="2.06883">
        <ele>180</ele>
        <time>2019-05-12T11:25:00.000Z</time>
      </trkpt>
      <trkpt lat="48.78048" lon="2.06886">
        <ele>180</ele>
        <time>2019-05-12T11:25:03.000Z</time>
      </trkpt>
      <trkpt lat="48.78047" lon="2.06889">
        <ele>180</ele>
        <time>2019-05-12T11:25:07.000Z</time>
      </trkpt>
      <trkpt lat="48.78045" lon="2.069">
        <ele>180</ele>
        <time>2019-05-12T11:25:13.000Z</time>
      </trkpt>
      <trkpt lat="48.78045" lon="2.06912">
        <ele>180</ele>
        <time>2019-05-12T11:25:19.000Z</time>
      </trkpt>
      <trkpt lat="48.78045" lon="2.06915">
        <ele>180</ele>
        <time>2019-05-12T11:25:22.000Z</time>
      </trkpt>
      <trkpt lat="48.78046" lon="2.06917">
        <ele>180</ele>
        <time>2019-05-12T11:25:25.000Z</time>
      </trkpt>
      <trkpt lat="48.78048" lon="2.06919">
        <ele>180</ele>
        <time>2019-05-12T11:25:28.000Z</time>
      </trkpt>
      <trkpt lat="48.78049" lon="2.0692">
        <ele>180</ele>
        <time>2019-05-12T11:25:31.000Z</time>
      </trkpt>
      <trkpt lat="48.7805" lon="2.06922">
        <ele>180</ele>
        <time>2019-05-12T11:25:32.000Z</time>
      </trkpt>
      <trkpt lat="48.78052" lon="2.06924">
        <ele>180</ele>
        <time>2019-05-12T11:25:33.000Z</time>
      </trkpt>
      <trkpt lat="48.78053" lon="2.06926">
        <ele>180</ele>
        <time>2019-05-12T11:25:34.000Z</time>
      </trkpt>
      <trkpt lat="48.78055" lon="2.06928">
        <ele>180</ele>
        <time>2019-05-12T11:25:34.000Z</time>
      </trkpt>
      <trkpt lat="48.78057" lon="2.06931">
        <ele>180</ele>
        <time>2019-05-12T11:25:37.000Z</time>
      </trkpt>
      <trkpt lat="48.78059" lon="2.06935">
        <ele>180</ele>
        <time>2019-05-12T11:25:39.000Z</time>
      </trkpt>
      <trkpt lat="48.78062" lon="2.0694">
        <ele>180</ele>
        <time>2019-05-12T11:25:41.000Z</time>
      </trkpt>
      <trkpt lat="48.78065" lon="2.06944">
        <ele>180</ele>
        <time>2019-05-12T11:25:43.000Z</time>
      </trkpt>
      <trkpt lat="48.78067" lon="2.06948">
        <ele>180</ele>
        <time>2019-05-12T11:25:48.000Z</time>
      </trkpt>
      <trkpt lat="48.78069" lon="2.06951">
        <ele>180</ele>
        <time>2019-05-12T11:25:53.000Z</time>
      </trkpt>
      <trkpt lat="48.78071" lon="2.06954">
        <ele>179</ele>
        <time>2019-05-12T11:25:58.000Z</time>
      </trkpt>
      <trkpt lat="48.78073" lon="2.06957">
        <ele>179</ele>
        <time>2019-05-12T11:26:03.000Z</time>
      </trkpt>
      <trkpt lat="48.78074" lon="2.06959">
        <ele>179</ele>
        <time>2019-05-12T11:26:05.000Z</time>
      </trkpt>
      <trkpt lat="48.78075" lon="2.06961">
        <ele>179</ele>
        <time>2019-05-12T11:26:06.000Z</time>
      </trkpt>
      <trkpt lat="48.78076" lon="2.06962">
        <ele>179</ele>
        <time>2019-05-12T11:26:07.000Z</time>
      </trkpt>
      <trkpt lat="48.78077" lon="2.06964">
        <ele>179</ele>
        <time>2019-05-12T11:26:08.000Z</time>
      </trkpt>
      <trkpt lat="48.78079" lon="2.06966">
        <ele>179</ele>
        <time>2019-05-12T11:26:10.000Z</time>
      </trkpt>
      <trkpt lat="48.7808" lon="2.06968">
        <ele>179</ele>
        <time>2019-05-12T11:26:11.000Z</time>
      </trkpt>
      <trkpt lat="48.78082" lon="2.06971">
        <ele>179</ele>
        <time>2019-05-12T11:26:12.000Z</time>
      </trkpt>
      <trkpt lat="48.78083" lon="2.06974">
        <ele>179</ele>
        <time>2019-05-12T11:26:14.000Z</time>
      </trkpt>
      <trkpt lat="48.78093" lon="2.06987">
        <ele>179</ele>
        <time>2019-05-12T11:26:19.000Z</time>
      </trkpt>
      <trkpt lat="48.78102" lon="2.07004">
        <ele>179</ele>
        <time>2019-05-12T11:26:31.000Z</time>
      </trkpt>
      <trkpt lat="48.78111" lon="2.07023">
        <ele>179</ele>
        <time>2019-05-12T11:26:43.000Z</time>
      </trkpt>
      <trkpt lat="48.78119" lon="2.07042">
        <ele>179</ele>
        <time>2019-05-12T11:26:55.000Z</time>
      </trkpt>
      <trkpt lat="48.78123" lon="2.07063">
        <ele>179</ele>
        <time>2019-05-12T11:27:09.000Z</time>
      </trkpt>
      <trkpt lat="48.78122" lon="2.07082">
        <ele>179</ele>
        <time>2019-05-12T11:27:23.000Z</time>
      </trkpt>
      <trkpt lat="48.78121" lon="2.07102">
        <ele>179</ele>
        <time>2019-05-12T11:27:35.000Z</time>
      </trkpt>
      <trkpt lat="48.7812" lon="2.07119">
        <ele>179</ele>
        <time>2019-05-12T11:27:45.000Z</time>
      </trkpt>
      <trkpt lat="48.7812" lon="2.07126">
        <ele>179</ele>
        <time>2019-05-12T11:27:52.000Z</time>
      </trkpt>
      <trkpt lat="48.7812" lon="2.07132">
        <ele>179</ele>
        <time>2019-05-12T11:27:54.000Z</time>
      </trkpt>
      <trkpt lat="48.78121" lon="2.07142">
        <ele>179</ele>
        <time>2019-05-12T11:27:57.000Z</time>
      </trkpt>
      <trkpt lat="48.78121" lon="2.07146">
        <ele>179</ele>
        <time>2019-05-12T11:28:02.000Z</time>
      </trkpt>
      <trkpt lat="48.78121" lon="2.07146">
        <ele>179</ele>
        <time>2019-05-12T11:28:21.000Z</time>
      </trkpt>
      <trkpt lat="48.78121" lon="2.07147">
        <ele>179</ele>
        <time>2019-05-12T11:28:22.000Z</time>
      </trkpt>
      <trkpt lat="48.7812" lon="2.07153">
        <ele>179</ele>
        <time>2019-05-12T11:28:25.000Z</time>
      </trkpt>
      <trkpt lat="48.78118" lon="2.07163">
        <ele>179</ele>
        <time>2019-05-12T11:28:27.000Z</time>
      </trkpt>
      <trkpt lat="48.78116" lon="2.07173">
        <ele>179</ele>
        <time>2019-05-12T11:28:33.000Z</time>
      </trkpt>
      <trkpt lat="48.78116" lon="2.07174">
        <ele>179</ele>
        <time>2019-05-12T11:28:35.000Z</time>
      </trkpt>
      <trkpt lat="48.78116" lon="2.07174">
        <ele>179</ele>
        <time>2019-05-12T11:28:37.000Z</time>
      </trkpt>
      <trkpt lat="48.78117" lon="2.07174">
        <ele>179</ele>
        <time>2019-05-12T11:28:38.000Z</time>
      </trkpt>
      <trkpt lat="48.78117" lon="2.07174">
        <ele>179</ele>
        <time>2019-05-12T11:28:40.000Z</time>
      </trkpt>
      <trkpt lat="48.78117" lon="2.07174">
        <ele>179</ele>
        <time>2019-05-12T11:28:48.000Z</time>
      </trkpt>
      <trkpt lat="48.78117" lon="2.07174">
        <ele>179</ele>
        <time>2019-05-12T11:28:57.000Z</time>
      </trkpt>
      <trkpt lat="48.78117" lon="2.07174">
        <ele>179</ele>
        <time>2019-05-12T11:29:05.000Z</time>
      </trkpt>
      <trkpt lat="48.78117" lon="2.07174">
        <ele>179</ele>
        <time>2019-05-12T11:29:13.000Z</time>
      </trkpt>
      <trkpt lat="48.78117" lon="2.07174">
        <ele>179</ele>
        <time>2019-05-12T11:29:14.000Z</time>
      </trkpt>
      <trkpt lat="48.78117" lon="2.07174">
        <ele>179</ele>
        <time>2019-05-12T11:29:14.000Z</time>
      </trkpt>
      <trkpt lat="48.78117" lon="2.07174">
        <ele>179</ele>
        <time>2019-05-12T11:29:14.000Z</time>
      </trkpt>
      <trkpt lat="48.78117" lon="2.07174">
        <ele>179</ele>
        <time>2019-05-12T11:29:14.000Z</time>
      </trkpt>
      <trkpt lat="48.78118" lon="2.07175">
        <ele>179</ele>
        <time>2019-05-12T11:29:15.000Z</time>
      </trkpt>
      <trkpt lat="48.78119" lon="2.07175">
        <ele>179</ele>
        <time>2019-05-12T11:29:16.000Z</time>
      </trkpt>
      <trkpt lat="48.78119" lon="2.07176">
        <ele>179</ele>
        <time>2019-05-12T11:29:17.000Z</time>
      </trkpt>
      <trkpt lat="48.7812" lon="2.07177">
        <ele>179</ele>
        <time>2019-05-12T11:29:19.000Z</time>
      </trkpt>
      <trkpt lat="48.7812" lon="2.07178">
        <ele>179</ele>
        <time>2019-05-12T11:29:47.000Z</time>
      </trkpt>
      <trkpt lat="48.7812" lon="2.07178">
        <ele>179</ele>
        <time>2019-05-12T11:30:15.000Z</time>
      </trkpt>
      <trkpt lat="48.7812" lon="2.07179">
        <ele>178</ele>
        <time>2019-05-12T11:30:42.000Z</time>
      </trkpt>
      <trkpt lat="48.7812" lon="2.0718">
        <ele>178</ele>
        <time>2019-05-12T11:31:10.000Z</time>
      </trkpt>
      <trkpt lat="48.7812" lon="2.0718">
        <ele>178</ele>
        <time>2019-05-12T11:31:11.000Z</time>
      </trkpt>
      <trkpt lat="48.78121" lon="2.0718">
        <ele>178</ele>
        <time>2019-05-12T11:31:11.000Z</time>
      </trkpt>
      <trkpt lat="48.78121" lon="2.07181">
        <ele>178</ele>
        <time>2019-05-12T11:31:11.000Z</time>
      </trkpt>
      <trkpt lat="48.78121" lon="2.07181">
        <ele>178</ele>
        <time>2019-05-12T11:31:11.000Z</time>
      </trkpt>
      <trkpt lat="48.7812" lon="2.07185">
        <ele>178</ele>
        <time>2019-05-12T11:31:13.000Z</time>
      </trkpt>
      <trkpt lat="48.7812" lon="2.0719">
        <ele>178</ele>
        <time>2019-05-12T11:31:15.000Z</time>
      </trkpt>
      <trkpt lat="48.78119" lon="2.07196">
        <ele>178</ele>
        <time>2019-05-12T11:31:17.000Z</time>
      </trkpt>
      <trkpt lat="48.78119" lon="2.07203">
        <ele>178</ele>
        <time>2019-05-12T11:31:18.000Z</time>
      </trkpt>
      <trkpt lat="48.78119" lon="2.07207">
        <ele>178</ele>
        <time>2019-05-12T11:31:20.000Z</time>
      </trkpt>
      <trkpt lat="48.78118" lon="2.07211">
        <ele>178</ele>
        <time>2019-05-12T11:31:22.000Z</time>
      </trkpt>
      <trkpt lat="48.78117" lon="2.07214">
        <ele>178</ele>
        <time>2019-05-12T11:31:24.000Z</time>
      </trkpt>
      <trkpt lat="48.78117" lon="2.07218">
        <ele>178</ele>
        <time>2019-05-12T11:31:25.000Z</time>
      </trkpt>
      <trkpt lat="48.78117" lon="2.07221">
        <ele>178</ele>
        <time>2019-05-12T11:31:28.000Z</time>
      </trkpt>
      <trkpt lat="48.78117" lon="2.07224">
        <ele>178</ele>
        <time>2019-05-12T11:31:31.000Z</time>
      </trkpt>
      <trkpt lat="48.78118" lon="2.07226">
        <ele>178</ele>
        <time>2019-05-12T11:31:34.000Z</time>
      </trkpt>
      <trkpt lat="48.78118" lon="2.07229">
        <ele>178</ele>
        <time>2019-05-12T11:31:36.000Z</time>
      </trkpt>
    </trkseg>
  </trk>
</gpx>